GFSNGP_sfc_30mbdewp_000.txt.gz
Dewpoint
27 27 25 20 20 26 22 21 18 19 20 21 30 32 34 34 34 33 32 29 28 23 17 18 19 19 18 18 19 21 21 22 25 29 30 30 31 32 33 33 33 31 31 22
26 30 27 22 22 23 26 25 25 26 24 32 34 34 34 34 33 32 31 29 27 22 15 17 18 17 16 16 18 20 21 22 27 29 30 30 31 32 33 34 30 23 17 19
9 26 22 13 18 21 22 24 24 22 24 34 34 34 34 34 33 32 30 27 25 20 14 13 15 16 14 15 18 20 22 23 27 29 29 29 31 32 32 32 30 27 21 22
14 16 6 12 25 26 24 28 30 30 30 33 34 36 35 35 34 33 30 26 24 21 13 8 13 15 16 16 17 19 21 23 27 29 28 30 30 31 31 31 30 23 22 23
11 13 12 13 27 28 26 23 33 31 33 34 35 35 34 35 34 33 30 26 24 21 10 6 11 14 15 16 18 20 21 23 25 28 28 29 30 30 29 30 27 22 22 21
20 8 1 7 26 31 28 23 33 33 33 34 34 31 32 33 33 31 28 23 17 11 10 11 13 16 18 19 21 21 22 24 26 28 28 28 29 27 27 21 20 21 19 17
17 14 15 18 31 30 21 16 35 35 34 34 33 33 33 33 32 30 25 13 14 14 14 16 19 21 20 21 21 22 23 24 26 27 27 27 25 24 19 21 21 19 18 16
22 19 12 25 30 27 28 30 34 36 35 34 34 33 33 33 29 17 15 16 16 16 17 20 22 22 22 22 23 25 26 26 26 26 26 24 23 19 20 21 17 17 15 15
21 16 25 28 31 32 33 31 35 36 37 37 35 34 35 29 18 16 16 16 17 18 19 19 20 23 23 25 26 26 27 27 26 26 25 24 22 19 19 18 16 15 15 13
27 26 28 31 31 33 35 35 37 38 38 38 37 36 30 19 17 16 16 17 18 18 16 18 22 24 26 26 27 28 28 27 27 26 24 24 21 19 19 18 17 17 17 15
30 31 32 33 36 37 37 40 40 40 39 38 36 30 20 18 18 18 18 19 18 18 20 22 24 26 28 27 28 28 29 29 28 26 25 24 19 19 19 19 18 17 17 16
24 26 28 28 31 38 39 39 41 40 38 33 28 20 20 19 21 21 19 20 19 21 23 24 26 27 27 28 28 28 27 26 27 28 30 29 20 21 22 22 21 22 22 17
29 33 34 34 38 40 39 41 41 37 30 24 20 20 21 27 25 21 21 21 22 23 25 27 27 27 27 27 28 28 28 28 26 29 30 28 24 21 19 20 23 24 24 23
38 39 38 39 38 41 41 38 29 22 21 22 23 26 29 23 21 22 22 24 25 26 27 27 26 26 26 27 28 29 30 29 28 27 29 28 27 25 22 20 20 21 21 24
39 39 39 40 36 27 24 22 22 24 27 28 32 31 26 20 20 22 25 26 27 27 27 26 26 26 26 27 28 30 31 30 28 27 22 22 25 26 25 21 21 21 20 21
39 40 37 28 22 23 25 29 30 31 31 34 33 27 22 21 23 25 26 27 26 26 25 25 25 25 26 27 29 30 32 31 29 25 22 21 22 25 25 22 22 22 20 19
36 31 26 28 30 32 31 31 32 33 35 34 28 23 21 24 24 24 25 26 26 26 25 25 25 26 27 29 30 31 32 31 29 27 23 24 25 24 23 22 23 23 21 17
32 33 34 34 34 33 33 32 34 35 33 27 24 21 22 22 22 22 24 24 25 26 26 26 26 26 28 30 30 29 30 30 28 27 27 25 23 22 21 20 22 22 23 19
34 35 35 35 36 35 35 32 28 26 25 24 24 24 24 23 23 25 25 24 25 25 26 27 27 27 28 28 27 29 29 29 27 25 25 25 22 21 20 19 20 22 23 22
33 33 31 23 21 20 19 23 25 24 25 26 25 25 24 24 24 24 23 25 26 27 27 27 27 27 27 29 29 30 30 29 28 25 24 22 21 21 21 20 19 21 22 22
25 20 20 21 22 25 26 26 26 26 26 26 26 25 25 26 27 28 27 26 28 28 28 27 28 28 29 30 30 30 30 30 28 26 25 24 24 24 22 22 21 22 21 22
24 26 25 25 25 26 27 27 28 28 28 27 26 26 26 27 27 27 28 29 30 30 29 27 28 28 28 30 30 30 30 30 29 28 26 26 26 26 25 25 24 24 24 23
27 27 28 27 27 27 28 27 27 27 27 27 27 27 26 27 27 27 28 29 29 29 27 28 28 28 30 30 30 30 30 30 30 29 28 27 27 27 26 26 26 26 25 25
28 27 27 27 27 27 28 28 28 28 27 27 28 28 28 28 28 28 30 31 31 31 30 30 30 31 29 28 29 30 30 29 29 28 28 28 27 27 27 26 25 25 25 25
27 28 28 28 28 27 27 28 28 28 29 29 29 29 29 28 29 30 31 30 30 30 30 30 31 31 27 24 20 21 21 23 23 22 23 24 26 26 25 25 25 25 25 26
28 28 27 28 26 26 25 25 25 26 26 26 27 28 28 28 27 27 28 28 29 30 30 29 22 20 18 16 14 13 13 13 11 11 11 11 12 13 15 17 22 24 25 26
25 24 24 23 22 22 20 20 21 21 22 24 25 25 25 25 27 28 30 31 30 29 23 20 17 16 13 12 10 9 9 9 8 9 8 7 7 7 8 8 9 12 21 25

GFSNGP_sfc_30mbdewp_003.txt.gz
Dewpoint
26 26 24 19 23 23 19 19 16 17 19 20 24 30 32 34 33 32 31 30 28 22 16 18 20 21 20 20 21 22 21 21 24 29 30 30 31 31 32 34 35 33 30 21
25 28 26 22 21 23 25 24 21 23 23 26 31 33 33 33 33 32 31 30 28 23 16 17 20 21 19 19 20 21 22 23 25 29 30 30 30 31 32 33 34 28 27 24
13 24 21 14 17 21 23 25 25 21 23 32 31 32 33 34 33 32 33 31 27 24 18 14 18 19 17 17 19 20 21 22 25 28 29 29 30 29 31 32 33 32 25 24
13 15 4 11 26 24 22 23 25 27 27 31 32 34 34 34 34 34 33 31 28 24 20 14 15 16 17 16 17 18 19 21 24 27 28 29 29 28 31 31 29 29 25 23
12 14 12 10 18 25 24 17 28 27 29 33 35 35 35 35 35 35 34 33 28 24 20 12 11 15 15 15 17 19 21 22 23 26 27 28 28 29 29 27 27 27 24 22
18 8 2 8 20 33 28 21 27 32 32 33 35 32 29 36 36 35 34 31 25 22 11 7 10 14 16 19 21 20 21 23 24 26 28 28 28 28 27 25 19 23 21 17
16 14 15 18 28 30 16 13 30 34 34 34 33 33 34 35 35 35 30 19 16 11 10 13 17 21 21 21 20 21 24 26 26 27 27 28 28 26 23 20 22 23 20 18
20 17 10 24 30 24 25 31 31 35 35 35 35 34 33 33 29 25 19 16 15 16 17 20 22 22 20 20 23 25 26 27 27 28 28 27 26 24 20 21 21 22 21 20
21 17 23 26 31 32 33 31 32 35 36 36 36 34 33 28 21 18 16 16 17 18 20 20 20 22 20 22 27 27 28 27 28 29 28 26 25 22 20 21 20 19 19 20
26 26 27 29 31 32 32 33 34 36 36 38 37 35 31 21 18 17 16 17 19 18 16 17 22 23 25 28 28 28 28 28 29 28 27 25 24 21 20 21 20 20 21 20
29 30 30 30 33 34 34 37 38 39 40 39 38 34 25 20 18 18 24 31 20 17 18 20 24 25 28 28 28 28 28 26 26 27 28 27 23 21 21 20 21 21 21 21
24 26 28 28 29 33 35 36 39 40 39 37 33 26 21 19 24 34 35 22 19 20 22 23 26 27 27 27 29 29 27 26 26 27 27 29 30 25 22 23 21 22 22 22
29 34 32 33 35 38 38 40 42 41 33 26 22 22 25 31 34 33 24 21 21 22 24 26 27 27 27 28 28 28 28 28 29 29 28 30 30 28 24 23 23 24 25 25
37 38 37 38 38 40 39 29 24 22 23 29 32 34 33 33 31 28 23 23 25 26 26 27 27 26 27 27 28 28 29 30 30 30 29 29 30 29 28 26 27 25 25 23
40 40 40 34 27 24 23 25 27 30 33 35 36 35 34 32 28 24 25 26 28 27 27 28 26 26 27 28 27 28 29 31 32 31 30 27 25 26 28 28 27 26 25 24
33 28 26 25 25 27 29 31 32 33 35 35 34 34 34 30 24 24 28 28 27 26 28 26 25 26 27 28 28 29 30 32 32 31 30 26 25 27 27 28 27 26 25 25
35 28 29 31 30 31 33 34 34 34 35 36 36 32 26 24 26 27 26 26 27 27 27 26 26 27 28 28 29 30 30 30 29 30 30 29 27 26 26 27 26 25 24 28
34 34 34 35 34 33 34 35 36 36 35 34 27 26 24 24 24 25 24 24 25 25 27 28 27 27 27 28 30 29 28 29 30 29 29 28 29 29 27 25 25 25 24 26
36 36 36 35 35 35 36 36 33 29 27 27 27 27 27 26 26 25 26 25 24 24 25 28 28 28 28 28 29 30 29 30 30 29 29 28 28 27 27 26 25 25 24 24
33 34 31 26 25 26 25 27 28 28 28 27 27 26 25 25 25 25 26 26 26 27 28 28 28 28 29 29 28 30 30 30 30 29 29 28 27 26 27 25 25 25 25 25
21 23 23 24 25 26 27 27 27 28 27 27 27 27 27 28 27 26 28 28 30 29 29 29 28 29 29 29 29 31 31 30 30 30 29 28 27 27 27 27 27 27 27 27
26 26 26 26 26 27 27 28 28 28 28 27 27 26 26 27 27 27 27 28 30 30 31 31 30 29 29 29 30 30 30 30 30 30 29 29 28 28 28 28 28 28 28 28
28 27 28 27 27 28 27 28 27 28 28 28 27 28 27 28 28 28 28 30 30 31 31 31 31 29 29 30 30 30 30 30 30 29 30 30 29 28 27 26 26 26 26 26
27 28 27 27 27 27 26 26 27 27 27 28 28 28 28 27 27 28 29 29 29 30 30 32 32 32 30 31 31 31 30 27 25 24 25 24 25 25 25 24 23 24 24 23
28 28 27 26 25 24 23 21 22 22 22 22 23 24 25 24 26 26 27 28 28 29 29 30 31 32 29 26 24 21 20 18 15 15 14 14 13 13 13 12 12 12 14 19
26 25 25 23 21 18 16 16 16 18 19 20 21 23 23 23 24 25 25 25 28 28 31 27 23 21 20 18 17 15 14 12 12 11 10 10 10 10 10 9 9 10 10 10
20 17 17 17 14 14 13 12 13 14 16 16 16 17 17 20 20 20 22 23 26 26 20 17 15 14 13 13 12 11 10 9 8 7 7 7 7 7 8 8 8 9 10 10

GFSNGP_sfc_30mbdewp_006.txt.gz
Dewpoint
24 25 23 21 21 22 18 18 15 9 14 11 18 22 27 32 34 34 35 34 33 30 27 25 24 26 26 23 22 21 19 19 21 25 27 27 27 26 27 30 30 30 28 25
27 27 25 22 20 22 22 20 21 17 17 19 24 29 31 33 34 33 33 33 32 30 28 25 23 25 23 21 20 20 20 21 22 24 26 27 25 27 26 26 28 28 29 29
21 26 24 21 22 19 20 22 22 17 19 26 28 29 30 32 33 33 33 33 32 32 29 24 22 25 21 19 19 19 19 20 21 23 25 24 24 24 24 25 27 26 27 28
24 19 12 15 24 23 20 20 21 21 24 25 26 31 33 33 33 33 33 33 33 32 29 23 21 23 19 16 17 17 18 19 21 23 22 22 22 24 24 25 25 23 23 26
24 18 16 7 16 19 22 14 23 21 22 27 33 34 33 34 34 35 35 35 35 33 30 25 20 20 17 15 15 17 20 20 17 18 20 20 21 24 25 25 23 22 24 25
22 17 12 17 21 32 29 16 26 29 30 33 34 32 21 35 35 36 36 36 35 32 27 22 19 16 15 13 18 20 18 17 19 20 20 20 22 25 26 25 24 21 22 23
26 25 21 21 27 31 18 18 29 33 33 34 33 30 35 36 36 37 36 36 33 26 21 19 17 14 16 20 21 17 20 22 20 20 21 23 25 26 26 25 23 25 24 22
26 22 17 23 30 25 28 35 33 34 34 35 35 37 36 34 35 36 36 31 26 20 19 16 18 21 20 18 16 21 23 22 22 24 26 26 26 25 26 24 22 25 28 25
26 24 27 28 31 33 35 34 34 34 33 36 36 36 36 33 31 31 28 20 18 19 21 22 22 19 14 15 23 24 24 24 24 26 26 26 26 26 25 23 22 23 22 23
28 26 27 28 30 30 32 33 34 34 34 36 37 36 37 34 27 24 20 18 19 20 18 20 21 20 21 23 25 25 25 25 26 25 27 27 26 25 24 23 23 22 22 21
30 29 29 30 32 33 33 35 37 37 39 39 39 39 37 29 24 20 23 27 27 28 27 21 20 22 24 25 26 25 26 26 25 25 25 26 28 26 24 25 23 23 22 21
28 26 31 30 32 35 36 37 38 40 40 40 39 38 32 24 22 34 32 28 26 22 22 23 24 24 26 26 26 28 27 26 25 27 26 26 26 27 28 24 22 22 21 23
32 35 35 36 38 41 41 40 39 37 35 31 29 26 26 34 34 33 32 31 27 23 23 26 27 28 27 27 28 29 28 27 27 27 27 27 28 28 29 26 24 25 25 25
40 40 38 39 37 34 32 30 30 31 32 33 34 35 35 33 33 32 31 30 27 28 29 29 30 28 27 28 28 28 28 28 28 28 28 27 27 30 30 29 30 29 28 24
35 38 39 32 29 29 31 33 34 35 35 34 35 34 34 32 31 31 30 27 29 29 29 28 28 26 27 28 27 27 27 27 29 31 32 31 30 28 27 27 29 28 27 27
32 32 31 30 30 32 34 35 34 33 34 34 33 33 32 32 31 28 26 28 30 29 28 28 29 28 27 28 28 28 28 30 31 30 30 30 30 28 27 28 28 27 25 24
36 33 31 31 33 35 34 35 35 35 35 35 36 37 36 32 29 27 29 30 30 30 31 31 30 29 28 29 29 28 28 28 27 26 27 30 32 31 29 30 28 26 26 30
34 34 35 36 34 35 35 36 35 35 35 33 29 28 27 27 27 29 30 30 28 28 29 30 31 30 29 30 30 29 29 29 29 29 29 28 27 28 29 30 30 29 29 28
36 36 36 35 34 35 35 33 30 28 29 29 29 28 29 29 29 29 29 28 28 28 28 31 30 30 30 31 30 30 30 31 32 32 30 30 30 28 29 30 30 31 30 29
32 30 26 25 27 28 29 29 30 29 29 29 28 29 29 30 29 29 30 29 31 31 32 31 31 31 31 31 30 30 32 32 31 30 31 30 30 28 29 29 29 30 30 30
24 26 27 27 28 29 29 30 30 30 30 29 29 29 29 30 31 30 30 29 29 32 32 31 31 31 31 31 30 31 33 32 31 30 30 31 30 30 30 30 30 30 30 30
30 29 28 28 30 30 31 30 30 30 29 29 29 29 28 29 28 29 30 30 31 31 30 30 30 31 32 32 32 32 32 31 30 30 29 31 30 30 30 29 29 29 29 29
29 30 30 29 29 30 29 27 27 27 26 26 26 25 24 25 25 25 24 26 26 26 28 27 29 31 31 32 31 31 31 31 31 30 28 29 30 29 29 28 28 27 27 26
30 29 29 28 27 25 22 19 20 21 22 22 22 23 24 24 25 22 24 25 24 24 25 27 27 29 31 31 31 30 31 29 26 24 23 22 22 22 21 21 19 19 19 19
28 27 26 24 21 17 15 15 15 16 16 17 17 18 19 19 19 22 24 23 23 24 26 27 26 25 26 24 25 26 25 21 19 19 18 17 17 17 17 16 15 15 15 16
24 22 21 17 15 14 13 13 14 14 14 14 14 15 16 17 18 19 20 20 19 20 19 18 16 17 18 17 16 16 17 16 15 14 13 13 13 13 13 13 13 13 14 15
15 15 15 14 12 12 13 12 13 13 13 14 13 14 15 15 17 16 15 15 15 15 15 14 13 12 12 12 12 12 12 12 9 9 9 9 9 9 9 9 10 11 12 13

GFSNGP_sfc_30mbdewp_009.txt.gz
Dewpoint
24 24 20 18 17 18 16 15 13 13 3 5 10 14 18 23 28 29 34 37 38 38 38 38 35 30 29 30 27 22 20 19 21 24 26 25 26 26 24 25 26 26 25 27
29 25 23 20 18 14 16 16 11 10 10 11 18 20 22 24 29 30 33 35 37 37 36 34 32 29 29 29 25 23 22 22 23 24 23 23 25 25 24 23 23 23 23 24
21 27 26 23 25 20 15 16 15 14 15 22 23 22 24 24 28 30 32 34 35 35 34 32 31 29 29 26 23 22 21 21 22 23 22 23 24 21 21 22 23 23 22 22
23 23 16 15 20 18 19 17 16 16 16 17 21 26 28 29 29 32 32 33 34 34 34 32 31 28 28 23 22 21 20 20 21 21 20 20 20 19 20 22 22 22 21 22
29 18 14 12 12 16 17 14 19 19 17 19 27 31 28 30 31 32 32 33 34 34 35 34 30 26 26 22 20 18 21 20 21 16 16 17 17 18 20 22 22 22 21 20
25 23 18 22 23 29 26 12 21 21 22 23 27 24 23 32 31 31 31 33 34 35 35 34 29 25 24 20 23 23 19 21 17 17 17 16 17 18 20 22 22 22 21 21
27 28 25 21 24 28 16 21 26 28 25 27 27 26 34 36 34 33 33 34 35 36 35 33 28 23 21 27 20 20 20 20 19 17 18 19 20 22 23 23 23 25 25 24
32 30 20 21 26 23 31 29 28 30 29 31 34 33 33 35 34 34 35 35 36 35 31 26 22 23 25 25 23 20 21 20 19 20 22 23 24 24 24 24 24 25 29 27
26 25 28 26 25 27 31 30 30 30 31 31 32 31 33 33 35 33 34 33 30 24 22 25 26 28 28 23 25 23 23 22 23 23 25 24 25 25 25 24 24 25 26 27
28 22 24 25 26 28 29 30 32 33 34 35 35 36 36 36 36 30 28 23 21 23 23 29 34 34 31 23 25 26 26 25 26 26 25 26 26 26 23 23 25 25 25 23
28 25 24 26 28 31 32 35 36 37 37 38 39 37 37 36 30 25 21 23 27 34 34 31 28 23 27 28 27 26 28 28 26 27 27 25 25 26 28 26 24 27 25 25
28 29 32 30 34 37 38 39 41 40 39 36 36 36 34 27 26 31 31 31 32 32 31 27 26 25 27 28 29 29 29 28 28 27 27 27 26 26 28 28 28 23 22 25
34 37 37 37 39 37 35 34 33 33 31 30 30 32 34 34 34 34 35 34 32 29 25 25 26 29 30 30 29 28 28 28 28 28 27 26 27 28 28 29 28 24 23 23
39 40 39 36 35 34 34 36 36 36 36 36 36 36 35 34 33 33 31 30 29 27 28 29 30 29 30 27 27 29 29 28 28 28 28 30 30 29 30 30 30 31 28 24
35 37 34 33 33 34 36 36 36 35 35 34 34 33 32 30 28 28 27 28 28 28 28 27 27 26 26 27 27 27 27 28 28 31 31 31 31 31 30 29 28 29 29 30
34 33 33 33 33 34 35 35 34 34 33 32 30 30 28 27 27 28 27 25 28 27 27 31 31 30 29 28 27 28 28 29 29 30 30 30 29 29 30 30 30 29 29 28
35 34 34 34 34 34 34 35 34 33 32 32 33 33 32 32 30 26 27 28 33 32 33 33 32 30 30 30 28 28 29 30 30 31 30 28 29 28 28 30 29 28 29 32
35 35 35 34 34 35 34 33 35 33 32 28 29 30 30 30 30 31 32 33 32 31 32 32 32 31 30 29 29 30 31 31 31 31 32 32 31 30 29 29 28 28 29 30
34 34 33 33 33 32 30 29 30 30 31 31 30 29 31 31 32 32 32 31 31 31 28 33 31 32 31 31 31 31 32 32 32 31 33 32 33 31 30 30 29 30 30 30
29 26 25 27 30 31 31 31 33 31 31 31 31 31 30 31 31 31 31 31 32 33 33 32 31 31 32 32 31 32 32 33 33 32 31 32 31 31 30 31 30 30 30 31
26 28 29 31 31 31 31 31 31 30 31 29 29 28 27 28 27 27 26 24 25 29 27 26 26 26 27 29 31 32 33 33 33 32 31 31 31 30 30 31 31 31 31 31
31 31 32 33 32 30 29 29 29 27 27 27 27 26 26 23 24 25 25 24 24 25 24 24 25 26 26 26 27 30 31 31 32 32 31 31 30 29 30 31 30 30 29 29
31 31 31 29 29 29 26 24 26 25 24 23 24 22 22 22 20 20 19 20 22 22 23 24 27 25 25 27 29 29 30 31 30 31 30 28 28 27 27 26 26 26 26 26
30 29 28 28 26 23 19 17 18 19 20 19 19 20 18 17 18 17 19 20 21 19 20 23 19 17 20 23 23 23 21 21 22 26 25 24 23 21 21 21 20 20 20 20
28 27 26 24 20 18 15 14 14 14 14 15 15 15 16 16 16 17 19 18 17 17 18 18 15 14 18 17 17 17 17 17 17 17 19 19 18 17 18 17 17 16 16 17
25 24 19 16 16 15 14 12 14 14 14 14 13 15 16 16 16 17 16 16 16 16 15 16 15 13 14 13 13 13 13 13 11 12 13 13 12 13 14 12 12 13 13 13
17 18 17 16 13 12 14 13 14 14 14 15 13 15 14 14 15 14 15 15 14 14 14 14 14 12 10 11 11 11 11 11 10 9 10 9 8 8 8 8 9 10 11 12

GFSNGP_sfc_30mbdewp_015.txt.gz
Dewpoint
24 28 26 24 24 24 16 20 17 17 19 20 19 22 22 26 25 25 28 32 37 37 40 41 42 42 41 39 35 33 31 29 30 32 33 29 29 29 29 29 27 27 27 28
27 29 28 24 25 24 24 21 18 18 18 19 22 22 22 23 24 26 27 28 31 40 41 41 42 42 41 38 35 32 28 26 29 31 30 28 29 29 29 29 29 28 28 27
25 26 24 21 22 23 23 24 23 18 17 22 25 24 23 24 25 28 28 31 33 37 41 41 42 42 40 36 34 30 28 28 30 28 29 31 31 30 29 29 29 28 27 26
26 25 19 22 23 18 20 22 22 23 25 24 24 30 33 32 31 30 32 32 32 34 37 41 42 42 38 35 32 29 28 28 30 31 32 30 31 30 27 27 26 25 27 28
24 21 23 19 20 21 17 20 24 24 25 25 26 29 34 35 34 34 33 32 32 33 35 37 38 39 35 32 29 28 29 30 33 31 31 31 29 28 29 28 26 26 27 27
32 22 14 23 25 25 23 21 29 27 27 29 28 26 33 35 35 34 34 35 33 31 31 36 37 35 30 28 29 30 31 34 32 31 30 27 28 30 29 28 27 27 26 26
27 21 26 31 25 24 12 23 29 29 31 31 31 34 34 35 35 35 31 28 27 30 31 32 30 29 28 30 32 34 35 34 33 34 32 30 29 29 28 28 28 27 27 26
34 30 23 27 24 17 32 31 30 30 31 31 33 36 37 37 34 29 27 27 29 31 31 31 32 32 33 34 34 34 34 33 34 33 31 29 28 28 28 28 28 28 28 26
31 29 32 25 27 32 30 29 30 33 37 37 39 39 37 24 24 24 26 31 34 34 35 35 34 34 33 33 33 34 35 35 33 32 31 29 29 27 27 28 28 29 28 27
29 27 28 25 26 31 35 38 41 39 38 39 38 35 25 24 27 30 32 34 34 33 31 31 32 33 34 34 33 33 31 32 32 31 30 30 29 28 27 27 27 27 27 28
29 27 36 39 40 41 39 39 34 34 34 33 30 27 29 32 31 32 31 31 31 31 30 30 32 32 32 31 30 30 30 31 31 31 31 30 29 29 28 27 27 26 26 27
27 37 37 38 38 36 35 34 35 35 34 34 34 33 33 33 33 34 34 34 33 32 31 31 31 29 29 29 29 30 30 30 30 30 30 30 29 29 29 29 27 28 29 28
39 40 37 37 38 38 37 36 36 36 35 34 35 35 35 35 34 34 34 33 32 32 30 28 28 28 29 30 30 30 30 29 28 29 29 28 28 29 28 30 31 30 30 30
39 37 35 37 36 36 36 35 36 35 35 35 35 35 34 33 34 33 32 32 29 28 27 27 28 29 30 31 31 30 30 29 28 29 29 29 29 29 30 29 26 26 29 31
35 37 37 37 36 35 35 34 33 33 33 32 34 33 33 32 30 28 29 29 28 28 29 30 28 28 31 32 31 30 29 28 28 29 29 29 30 31 29 28 27 26 27 29
36 36 36 35 34 34 33 32 32 33 33 30 28 28 28 29 29 30 32 31 29 28 29 29 30 32 33 33 32 32 31 31 30 30 30 30 30 30 30 29 27 27 27 27
34 34 34 33 33 33 34 34 32 29 28 27 29 29 29 30 30 29 29 29 29 29 31 30 26 27 29 29 27 27 28 29 30 31 31 31 31 31 31 30 28 28 28 28
36 35 34 33 34 33 30 29 28 28 28 29 29 29 28 28 27 25 25 27 29 30 27 25 24 24 24 25 25 26 26 25 24 23 24 25 26 30 31 30 30 31 31 31
35 34 34 33 31 29 30 30 29 29 29 29 28 26 25 25 25 25 26 25 24 23 24 22 22 23 21 20 18 18 19 21 22 23 24 24 24 25 26 28 30 31 30 30
32 32 31 30 31 31 31 31 29 28 27 26 24 22 23 24 25 25 22 23 22 21 20 21 19 15 15 17 18 21 22 22 20 19 20 20 23 26 26 27 28 30 30 30
30 30 30 29 29 30 29 28 26 26 26 23 19 20 20 19 19 18 21 20 21 17 18 20 16 12 13 16 17 17 17 14 14 15 16 17 17 18 21 24 26 28 28 29
30 29 29 29 28 27 27 26 24 24 23 19 18 18 17 19 18 19 19 19 19 16 17 19 15 11 12 15 15 13 13 11 10 11 12 13 13 14 15 15 16 17 18 20
31 30 29 28 25 25 25 21 18 18 21 17 16 16 16 19 19 17 16 18 17 17 16 18 15 12 11 13 13 12 11 11 8 9 9 10 11 11 11 11 12 12 13 14
30 29 29 27 23 22 19 22 20 17 18 19 16 16 18 16 16 17 18 17 15 15 15 15 15 13 11 10 11 11 9 9 9 7 7 7 8 8 8 9 9 10 10 11
29 28 26 24 19 17 16 18 18 17 18 17 16 19 19 18 14 15 14 15 15 14 13 12 12 13 10 9 10 9 9 7 8 5 5 4 5 5 6 6 7 8 9 10
25 19 18 18 18 16 17 17 17 16 17 14 13 12 18 16 15 14 12 13 13 13 11 11 10 10 10 8 8 6 7 5 5 4 2 2 2 2 3 3 5 5 6 7
22 19 17 16 17 17 17 17 14 14 17 12 9 11 18 14 13 11 10 10 12 10 9 9 8 6 7 8 6 5 5 2 3 3 -0 -0 0 1 1 1 2 3 4 4

GFSNGP_sfc_30mbdewp_018.txt.gz
Dewpoint
23 28 27 24 24 24 22 21 18 18 21 18 19 20 21 24 26 33 40 40 39 38 38 41 43 43 43 37 37 35 34 34 34 33 34 33 30 29 29 29 28 27 27 28
24 28 27 24 24 24 24 23 22 21 19 22 23 25 25 26 27 27 28 30 34 35 38 40 42 43 43 38 37 35 34 33 33 35 33 31 30 30 29 30 30 30 29 30
21 26 24 22 22 21 22 24 23 20 21 25 27 28 27 28 30 30 32 33 35 40 41 41 43 43 43 41 38 35 33 32 35 32 31 32 31 30 31 31 32 31 31 31
24 24 21 25 25 24 23 23 24 23 25 30 32 34 33 32 31 32 32 33 33 34 41 42 43 43 43 40 35 32 32 32 32 33 32 33 32 31 32 32 29 28 27 28
24 22 24 22 19 18 18 23 25 25 26 31 34 33 33 35 34 34 34 34 31 32 33 37 42 42 37 33 30 30 32 33 33 33 31 32 33 33 32 31 29 28 27 28
31 21 19 21 25 25 24 23 28 28 28 28 28 26 32 35 35 32 29 30 31 31 30 30 33 32 30 31 32 33 32 32 32 33 33 34 34 34 33 29 28 28 28 27
25 22 18 25 27 23 11 16 30 31 31 31 30 33 36 32 28 28 30 31 31 32 31 30 32 33 33 33 34 34 35 35 36 36 37 36 34 32 29 28 29 28 28 29
30 24 19 31 24 20 24 32 30 31 32 36 38 33 29 27 27 29 31 32 33 32 32 33 33 33 33 33 34 35 36 37 38 37 36 33 29 28 28 28 27 28 28 28
27 24 30 27 28 34 32 30 31 36 38 39 36 27 26 26 30 33 33 33 33 33 33 34 33 32 32 33 35 36 36 37 36 33 32 31 30 29 28 27 27 27 27 26
32 30 32 30 35 35 38 38 39 39 39 37 28 26 30 32 32 33 33 32 31 31 31 32 33 33 33 33 32 31 31 31 31 31 31 31 30 30 28 27 27 27 26 25
30 38 38 40 40 38 35 35 34 34 31 28 30 31 31 31 31 31 32 32 31 31 31 31 31 31 31 30 30 29 29 30 30 30 29 30 30 29 29 29 28 27 26 25
26 33 35 38 37 36 35 35 34 33 33 34 33 32 33 34 34 33 33 33 32 31 31 30 29 28 28 29 29 29 29 29 29 29 28 28 29 29 29 30 30 30 29 27
37 39 37 37 37 36 35 35 35 34 34 34 34 34 34 33 33 33 32 31 31 30 28 28 28 29 29 30 30 30 29 29 29 29 28 27 28 27 27 28 29 30 30 30
38 37 36 37 35 36 35 35 35 34 34 34 34 33 33 32 32 31 30 29 28 29 30 29 30 31 32 32 32 31 30 30 29 29 28 28 28 28 28 28 28 29 28 28
37 38 37 35 35 34 34 33 32 33 33 32 31 30 29 29 30 30 30 30 29 30 30 29 28 28 31 32 29 30 29 28 29 29 29 30 30 30 30 30 30 31 30 28
36 36 35 34 33 33 32 33 32 31 28 27 27 29 30 30 30 29 29 29 29 28 28 25 24 24 25 25 25 25 26 26 25 24 23 23 23 24 25 28 30 31 30 29
34 33 33 32 32 33 33 31 29 28 27 27 28 29 29 27 25 25 26 28 29 27 23 21 22 24 24 21 18 18 19 20 20 21 22 22 22 23 23 23 23 24 25 30
35 34 34 34 33 31 29 28 28 28 29 29 28 27 23 23 24 25 25 24 25 22 20 22 19 17 16 17 19 19 20 20 21 19 18 19 19 19 19 21 23 23 24 26
34 34 34 32 30 29 28 28 28 29 29 27 24 24 25 25 25 24 22 20 19 17 19 19 16 13 13 16 18 16 17 14 14 14 14 15 15 15 17 17 17 19 22 26
32 32 31 30 30 30 28 29 29 27 25 23 23 21 20 18 19 21 20 18 15 16 20 16 12 11 12 15 14 13 15 10 9 10 11 11 11 12 13 12 13 13 14 17
30 29 29 29 29 29 28 26 25 23 20 20 19 18 18 18 19 18 18 18 16 16 19 15 12 11 11 13 12 11 11 9 7 8 8 8 8 9 9 9 10 11 12 12
29 28 28 28 28 26 26 25 24 19 18 17 16 17 18 19 18 18 17 15 16 15 17 16 14 10 10 10 12 10 9 9 7 5 6 6 6 6 6 7 7 8 9 10
29 28 27 26 25 24 22 22 22 18 16 15 15 17 19 18 16 13 13 17 16 14 16 14 13 11 9 9 9 9 7 6 6 4 4 3 4 4 4 5 5 6 7 8
29 28 26 25 24 21 18 18 19 18 17 17 17 16 17 15 15 17 16 15 13 13 11 11 10 9 7 7 6 6 6 4 4 2 1 0 2 1 1 2 2 4 4 5
29 27 23 22 19 19 22 19 18 19 17 15 16 20 18 15 13 13 12 12 13 11 10 8 8 9 7 6 4 3 4 1 1 1 -2 -2 -1 -1 -1 -0 -0 1 2 3
24 21 19 18 18 19 18 17 17 17 15 10 11 15 15 13 11 10 9 10 10 9 9 6 4 1 5 5 5 3 0 -1 0 -0 -3 -4 -3 -3 -2 -2 -2 -1 -1 1
22 21 20 19 19 18 16 14 14 16 12 9 11 14 13 10 7 7 4 7 9 7 7 5 5 1 1 5 4 3 -1 -1 -0 -2 -5 -6 -6 -5 -4 -3 -4 -3 -2 -1

GFSNGP_sfc_30mbdewp_021.txt.gz
Dewpoint
21 22 27 24 24 24 22 21 19 20 21 22 22 21 21 22 26 35 41 43 43 45 46 46 46 46 45 43 40 39 38 37 34 36 35 32 32 31 31 30 28 28 28 29
25 28 27 24 25 25 25 23 22 22 20 23 24 26 26 26 27 30 32 35 38 40 41 41 43 45 45 42 40 39 37 35 36 36 34 34 32 31 31 31 30 30 32 32
19 27 25 22 23 22 22 23 23 20 22 26 26 28 30 31 32 32 32 33 34 37 40 40 40 43 43 41 40 38 36 36 36 37 34 32 31 32 32 33 36 36 33 30
18 24 17 21 27 24 23 23 24 24 26 30 30 32 32 32 32 33 33 33 33 33 34 39 43 43 44 40 38 36 36 35 35 33 33 33 32 33 34 36 35 33 31 29
23 22 23 24 22 22 21 22 26 28 31 33 34 33 34 35 35 33 31 31 31 31 31 35 40 39 36 33 33 34 34 34 33 34 33 34 35 36 37 36 35 31 29 28
26 23 22 24 25 25 25 21 27 30 32 32 29 21 31 35 30 30 31 31 32 31 31 31 32 32 33 33 33 32 33 33 34 35 37 37 38 37 36 34 30 29 29 29
28 26 23 23 27 23 17 16 28 30 30 30 27 30 33 30 30 32 32 32 33 33 33 33 34 34 33 33 34 34 36 37 38 38 38 38 37 37 34 30 29 28 27 28
26 23 23 27 27 18 21 32 31 32 32 34 36 32 29 29 31 32 32 32 32 32 32 33 33 33 33 33 35 36 37 38 39 39 38 37 35 31 29 28 28 27 27 27
28 26 28 31 25 27 32 31 31 32 37 36 31 28 29 31 32 32 32 32 33 33 33 33 34 34 34 35 36 37 37 37 37 36 34 32 31 30 29 29 27 27 26 26
28 31 33 32 36 35 33 33 37 39 39 31 28 29 31 32 32 31 31 30 31 31 32 32 32 32 32 31 31 30 30 30 30 30 30 30 30 30 30 29 27 27 27 27
32 38 38 38 38 36 36 36 35 33 30 29 31 31 31 31 31 31 31 31 31 31 30 30 30 30 30 29 29 29 29 29 29 29 29 28 28 28 29 29 29 28 28 27
29 35 32 36 37 36 35 34 33 31 32 32 31 31 32 32 32 32 32 31 30 30 29 28 29 29 31 31 30 30 29 29 29 29 28 28 28 28 29 30 30 30 30 29
31 38 38 37 36 36 35 34 34 33 33 33 34 33 33 33 33 31 31 30 28 28 28 30 31 30 31 31 30 29 28 27 27 27 27 28 28 28 27 28 29 29 30 30
37 37 35 36 35 35 35 35 35 34 34 34 33 33 32 31 30 29 28 29 30 30 29 27 26 26 28 27 25 26 26 26 26 26 25 25 24 24 25 24 25 27 29 30
37 37 36 35 34 33 33 32 32 32 31 31 32 31 29 28 28 28 29 29 29 27 25 23 23 24 25 22 21 22 21 22 22 22 22 22 22 22 22 21 21 21 22 22
35 35 34 33 33 32 32 32 30 29 28 29 29 30 30 29 28 28 28 29 26 22 21 22 22 20 20 18 18 18 19 20 20 21 20 18 18 19 18 18 18 19 20 21
34 32 33 32 32 32 32 30 28 27 28 28 28 28 25 25 26 27 28 25 22 21 22 18 16 15 16 16 17 18 18 17 18 17 16 16 16 15 16 16 17 15 15 16
35 34 33 32 32 30 29 28 27 28 28 28 25 23 23 23 24 24 25 21 18 20 19 16 14 12 14 15 15 15 15 11 11 12 13 12 12 12 12 13 12 12 12 13
34 34 34 32 30 29 28 28 28 28 27 24 24 24 24 24 23 21 18 15 15 17 17 14 13 11 11 13 12 12 13 7 8 8 9 9 8 8 9 9 9 9 10 11
33 31 30 29 28 27 28 29 28 25 24 23 21 19 19 21 20 18 16 15 14 18 16 13 11 10 9 11 11 10 10 7 6 5 6 6 5 6 6 6 6 6 7 8
30 30 29 29 28 28 28 26 22 22 22 20 19 18 19 20 19 18 18 15 14 16 16 14 11 11 9 10 11 7 7 7 4 3 3 3 3 4 3 3 4 4 5 6
29 29 28 27 26 25 25 21 20 19 18 17 17 17 17 17 16 15 15 14 15 15 16 15 13 9 9 9 9 6 5 3 4 1 0 0 -1 1 -0 1 1 2 3 4
29 28 27 26 25 24 22 19 17 16 15 16 17 18 18 16 14 13 14 16 15 14 13 11 10 7 7 5 4 4 3 -0 1 -0 -3 -3 -3 -2 -2 -2 -1 -1 0 1
27 27 25 23 21 21 20 19 18 17 16 17 17 17 17 15 15 16 15 13 12 10 10 8 9 7 6 4 2 2 0 -2 -0 -2 -4 -5 -5 -5 -5 -4 -3 -3 -2 -2
25 25 22 21 20 19 20 20 19 18 17 18 19 18 16 14 12 12 11 11 11 10 8 5 2 2 5 3 2 1 -3 -3 -2 -3 -6 -7 -7 -7 -7 -6 -5 -5 -4 -4
23 21 21 21 21 20 19 19 18 15 11 12 15 14 13 11 10 9 9 9 8 8 7 4 1 -2 0 3 2 1 -2 -3 -3 -4 -7 -8 -9 -9 -9 -7 -6 -7 -7 -6
21 21 20 19 19 17 15 15 15 14 10 10 13 12 11 8 6 4 4 6 6 5 5 2 3 -0 -1 -0 1 1 -0 -3 -4 -5 -9 -11 -11 -11 -11 -10 -9 -8 -9 -8

GFSNGP_sfc_30mbdewp_024.txt.gz
Dewpoint
18 21 25 24 22 25 23 23 21 21 21 21 22 23 22 23 28 37 40 43 44 46 47 48 48 47 46 45 44 43 42 41 40 39 36 34 33 32 32 31 30 29 30 29
22 27 27 25 25 25 24 24 23 22 21 23 24 26 26 27 32 34 36 37 38 40 40 41 44 47 46 44 43 42 41 40 39 37 35 34 33 32 31 30 30 29 31 37
20 27 25 23 24 24 25 25 24 22 23 24 26 29 29 31 32 32 32 32 33 34 36 39 42 43 44 44 41 40 40 39 38 37 35 34 32 31 31 32 36 37 38 38
20 23 18 22 27 25 24 23 24 24 24 26 29 31 32 33 33 33 31 32 31 32 34 38 42 43 41 40 39 38 37 37 36 35 34 33 33 35 36 37 38 38 38 35
19 20 21 22 24 23 22 20 25 24 29 31 33 34 34 33 32 31 32 31 31 31 32 33 34 34 35 34 35 35 35 34 34 34 35 35 36 37 38 39 38 37 36 31
23 20 19 22 25 25 24 18 27 30 32 33 31 24 32 31 31 31 32 32 33 33 33 33 33 33 33 33 33 33 34 35 36 37 38 38 38 38 38 37 36 33 32 31
24 24 26 27 25 24 18 19 27 32 33 32 26 27 32 31 32 32 32 32 33 33 33 33 34 34 33 34 34 36 37 38 39 39 39 39 38 38 37 35 34 31 28 28
27 27 26 26 25 21 23 27 30 32 33 31 33 31 31 31 31 31 31 32 32 32 32 33 34 34 34 35 37 38 38 38 39 39 38 38 36 35 32 30 28 28 28 27
29 28 30 29 26 26 28 29 31 32 34 34 31 30 31 31 31 31 31 32 32 32 33 33 34 35 34 34 36 35 34 33 32 31 31 31 30 29 29 29 28 28 27 27
29 30 30 32 33 33 33 31 33 35 36 33 30 31 31 31 30 30 31 31 32 31 30 30 30 30 30 29 29 29 28 29 29 29 29 29 29 28 28 28 27 27 27 27
29 35 37 36 37 35 35 36 35 34 31 30 31 31 31 30 30 30 31 31 30 29 29 28 29 30 30 30 30 29 29 28 27 27 26 26 27 28 28 28 29 28 28 28
25 31 28 28 36 36 35 34 33 32 31 31 31 30 31 30 31 31 30 30 29 28 29 30 30 29 29 29 27 25 25 25 25 25 25 25 25 23 25 27 27 29 30 30
29 37 36 36 36 35 34 33 33 32 31 31 31 32 32 32 31 31 29 28 28 29 29 28 26 25 25 25 25 24 23 24 23 23 22 22 21 21 20 20 20 21 21 22
37 36 35 35 34 34 34 34 34 33 33 33 33 32 31 30 29 29 29 29 28 26 25 24 24 22 19 19 21 19 20 21 21 21 21 20 20 20 20 19 18 17 18 17
36 37 36 35 34 34 34 33 32 32 32 32 31 30 30 28 28 29 29 27 24 23 22 21 19 19 18 18 17 18 18 19 19 20 19 17 17 17 16 16 16 16 15 15
35 35 34 33 32 32 32 31 31 30 31 30 30 29 29 28 29 28 28 25 21 20 18 16 15 15 16 16 16 16 16 15 15 15 15 14 14 13 13 13 13 12 12 12
33 32 32 32 32 31 30 30 30 30 30 30 29 28 27 28 27 25 22 21 21 18 16 14 13 14 14 14 14 14 12 11 11 12 12 11 10 11 11 11 9 9 9 10
36 34 34 32 32 30 29 28 29 29 29 28 26 25 26 26 25 22 20 20 19 17 15 13 12 11 12 11 10 12 9 7 8 9 9 8 7 8 8 7 6 6 6 7
34 33 32 32 30 29 28 28 28 27 25 24 24 24 24 23 22 19 16 16 17 16 14 12 12 10 9 12 9 10 9 4 5 5 5 5 4 3 5 4 4 4 4 4
32 31 30 29 29 29 28 28 26 25 25 24 23 23 21 20 17 15 15 14 16 17 14 12 10 9 8 10 8 7 7 5 3 2 1 1 -0 -1 2 0 1 2 1 2
30 29 28 28 27 27 27 25 24 23 22 21 21 21 20 19 16 16 15 14 14 17 14 12 11 10 8 9 9 5 2 2 2 -1 -2 -3 -4 -3 -2 -3 -2 -2 -2 -0
28 27 27 26 25 24 24 23 23 21 19 18 18 18 17 16 14 14 15 15 15 16 14 13 11 8 8 7 6 3 1 -1 1 -2 -4 -5 -6 -6 -6 -6 -5 -4 -4 -3
28 27 26 26 25 22 20 20 19 18 17 17 17 17 17 17 16 14 14 15 14 13 12 10 9 6 6 3 2 2 -1 -3 -1 -2 -5 -7 -8 -8 -8 -7 -7 -6 -6 -6
27 26 25 24 20 18 16 17 16 17 17 18 16 16 15 14 14 15 14 12 11 9 8 7 7 6 4 3 1 1 -3 -4 -3 -4 -5 -7 -10 -10 -10 -10 -9 -7 -7 -8
25 24 23 22 21 20 18 18 19 19 19 18 18 17 15 14 11 12 11 10 10 9 8 4 1 -0 2 1 0 -1 -2 -5 -4 -6 -7 -9 -11 -12 -12 -12 -11 -10 -9 -10
23 22 21 22 21 21 21 20 17 16 14 14 14 13 11 11 10 9 9 9 8 7 6 4 0 -2 -3 0 -0 -1 -2 -3 -4 -5 -7 -10 -13 -13 -13 -13 -13 -12 -11 -11
20 20 19 17 17 17 18 18 16 14 11 13 13 12 10 8 5 4 4 5 5 4 3 2 0 0 -2 -2 -1 -2 -1 -3 -6 -6 -9 -12 -14 -14 -15 -15 -15 -14 -13 -12

GFSNGP_sfc_30mbdewp_027.txt.gz
Dewpoint
18 18 20 19 20 25 23 23 21 22 22 23 24 24 24 25 33 39 41 42 44 46 49 49 49 49 48 48 47 46 45 45 45 45 43 40 36 35 35 33 32 32 32 32
19 24 23 21 24 25 25 24 24 23 23 24 25 26 26 30 36 36 36 36 38 40 41 42 43 46 48 47 46 45 44 43 43 42 39 37 36 35 34 33 32 31 32 37
18 26 25 23 25 25 25 26 25 22 24 25 25 27 28 34 33 33 32 33 34 36 39 42 43 44 45 45 43 43 42 42 40 39 37 36 35 34 32 32 34 37 40 39
21 24 20 23 27 26 25 25 26 25 25 25 28 32 33 33 33 32 32 32 33 34 35 36 38 39 39 40 40 39 38 38 38 37 36 34 34 36 38 39 40 39 38 38
22 22 22 21 24 23 21 19 24 24 26 29 34 34 33 32 33 32 32 32 33 34 34 35 35 36 36 36 36 36 35 35 35 35 35 36 37 39 39 39 39 38 38 38
23 19 18 22 24 27 24 20 24 25 29 32 33 29 32 32 32 32 33 33 33 34 34 34 34 34 34 34 35 35 36 36 37 37 37 38 38 39 39 39 38 38 36 35
23 22 24 27 26 25 21 23 26 29 32 34 30 30 34 32 32 33 33 33 33 34 34 34 35 35 35 35 36 37 38 38 38 38 38 39 39 38 37 36 35 34 32 32
26 24 22 28 25 23 27 27 29 33 35 34 32 32 32 32 32 32 32 32 33 33 33 34 35 35 35 37 38 38 38 37 36 36 35 35 34 33 32 31 31 30 31 30
29 27 33 28 28 28 28 27 31 34 35 34 32 32 32 31 31 31 31 32 33 33 33 33 33 34 33 32 31 29 29 29 29 29 29 29 29 29 29 29 29 29 29 29
29 30 31 30 31 33 32 31 33 35 35 33 32 32 31 31 31 31 31 32 31 30 29 28 29 30 29 29 30 30 29 28 27 26 26 25 25 25 24 25 25 25 25 26
29 29 36 35 35 34 34 37 35 35 34 32 32 31 31 30 30 31 31 29 28 28 29 30 29 29 28 28 28 26 24 23 22 21 19 18 18 19 19 20 23 22 22 23
26 27 27 28 35 36 35 34 34 33 32 32 32 31 30 30 31 30 29 28 29 29 29 27 25 24 24 23 22 21 19 18 19 19 19 17 16 14 18 19 20 20 19 19
28 35 34 36 36 35 34 34 33 33 32 31 31 30 30 31 30 29 28 29 29 28 25 23 20 17 19 19 18 17 17 17 17 17 16 15 15 15 14 15 17 17 17 17
37 36 34 35 34 35 34 33 33 32 32 32 31 31 31 30 29 28 29 28 26 24 24 21 16 15 16 15 15 16 16 18 17 15 14 14 14 14 14 13 13 13 13 13
36 36 36 35 34 34 33 33 32 32 32 31 31 31 30 28 28 28 26 24 23 21 18 16 14 14 15 15 13 13 11 11 15 15 14 14 13 12 12 11 11 11 10 10
35 35 35 34 33 33 32 32 31 31 31 31 30 29 29 29 28 25 23 23 21 17 14 15 14 13 14 13 12 11 11 11 11 12 11 10 9 9 9 9 8 8 8 8
34 33 33 32 32 32 31 32 31 31 30 29 29 29 29 27 25 23 21 19 18 16 14 14 12 12 11 10 10 11 9 8 9 9 8 8 7 7 7 7 6 6 6 6
36 34 34 33 32 31 31 31 31 30 29 28 28 28 27 25 23 22 20 18 17 15 13 11 11 11 10 8 8 10 7 6 6 6 6 6 4 4 5 4 3 4 4 3
35 34 33 32 30 30 30 30 29 27 27 27 27 26 25 23 22 21 20 18 17 14 12 12 12 9 10 10 8 8 6 5 5 3 3 2 2 1 2 2 2 2 2 1
31 30 30 29 29 28 27 27 27 26 26 25 25 23 22 21 19 18 18 17 16 15 12 11 10 8 8 9 6 5 5 5 3 2 2 -0 -0 -0 0 -1 -1 -0 0 -0
29 29 28 27 27 27 27 28 27 25 25 25 24 22 21 18 17 16 14 14 15 14 12 11 10 9 7 8 6 6 4 3 3 2 0 -1 -2 -2 -2 -2 -2 -2 -1 -1
27 26 26 26 25 25 26 25 25 23 22 21 21 19 18 17 17 16 16 14 15 15 13 12 10 8 7 6 5 5 3 1 1 1 -0 -1 -2 -3 -4 -4 -4 -3 -2 -3
27 27 26 25 23 22 23 22 21 20 20 19 19 18 17 15 15 14 13 14 14 13 12 11 8 6 5 7 6 5 3 0 0 0 -1 -2 -3 -4 -6 -6 -6 -5 -4 -4
25 24 23 23 23 21 19 18 18 19 19 18 17 17 15 14 15 15 15 13 12 12 10 9 9 5 4 6 5 4 3 1 -0 -0 -1 -4 -3 -5 -6 -8 -8 -7 -6 -5
24 24 23 22 20 19 18 18 18 18 18 17 17 16 15 14 14 13 13 12 11 10 9 5 2 0 4 4 4 3 3 2 1 -0 -1 -2 -4 -6 -7 -8 -9 -8 -8 -7
20 20 20 21 21 21 20 20 17 17 17 16 15 14 14 13 12 11 11 10 9 7 8 6 4 3 2 2 2 1 1 2 1 -0 -2 -3 -5 -6 -8 -9 -10 -10 -9 -9
18 18 17 16 16 17 17 17 16 15 15 16 14 12 11 11 9 8 6 6 6 5 5 5 4 3 3 2 1 1 1 1 -1 -1 -2 -4 -6 -7 -10 -11 -11 -11 -11 -10

GFSNGP_sfc_30mbdewp_030.txt.gz
Dewpoint
16 15 15 15 15 19 20 19 15 17 18 20 19 22 25 27 30 34 39 42 45 46 49 50 51 51 51 52 51 50 49 49 49 50 49 48 47 46 44 42 38 35 34 34
20 19 19 17 17 16 17 16 15 20 19 22 23 27 26 28 33 36 39 41 42 42 42 42 44 46 48 48 48 47 47 46 46 46 44 43 41 39 37 35 34 34 33 36
17 25 24 22 23 19 19 20 20 19 23 22 25 26 27 32 34 35 35 36 37 39 41 42 43 44 44 44 45 45 44 43 43 42 41 40 38 35 34 33 35 34 37 37
21 27 23 20 27 23 21 20 24 25 24 24 24 28 31 34 34 33 33 34 36 37 38 39 40 40 41 40 41 40 40 40 40 40 38 36 35 35 36 37 38 38 39 37
27 23 21 22 24 25 24 22 24 25 23 24 30 32 33 34 34 34 35 35 36 37 37 37 37 38 38 38 37 37 37 37 37 37 37 37 36 37 38 37 37 37 37 37
28 23 22 21 24 27 26 20 23 24 24 27 31 28 28 33 34 34 34 35 35 36 36 36 36 37 37 37 37 37 37 37 37 37 37 37 38 38 38 38 38 38 38 37
28 26 24 27 26 27 22 22 28 26 27 30 31 29 34 34 34 34 34 34 35 35 35 36 36 37 36 36 36 36 37 37 37 37 38 38 38 38 37 36 36 35 34 32
30 29 25 29 26 24 27 34 31 32 30 32 35 35 34 34 33 33 33 34 34 34 35 35 35 36 35 36 36 36 36 36 35 35 33 32 31 29 27 27 28 28 30 29
29 27 32 30 28 30 33 30 32 32 33 35 34 34 34 33 33 33 33 33 34 34 34 35 35 35 34 34 32 31 28 27 27 27 27 27 28 27 26 26 27 27 25 25
32 28 32 33 31 32 31 31 31 33 35 36 34 34 33 33 32 32 32 32 32 31 30 30 30 29 29 28 27 27 26 26 25 24 23 22 20 17 17 19 19 17 18 18
32 32 34 34 34 32 32 34 33 34 35 34 34 33 33 32 32 31 31 31 30 30 30 28 28 28 27 26 25 24 23 21 20 19 14 13 12 15 15 18 19 17 18 17
31 31 30 28 34 35 34 34 34 35 35 34 34 33 32 32 32 31 30 29 29 29 27 26 25 24 23 22 22 20 17 15 17 16 15 11 10 11 19 19 18 18 18 18
31 35 35 37 37 37 35 34 35 35 35 34 33 32 32 32 31 30 29 29 28 27 25 23 22 20 18 18 16 14 13 14 15 14 12 12 12 12 11 15 15 15 15 14
38 37 35 35 34 36 36 35 35 35 34 34 32 32 32 31 30 29 29 29 27 24 21 19 17 15 14 13 13 14 14 16 13 12 12 13 12 13 13 13 13 13 12 11
37 37 37 37 36 35 35 34 33 33 33 32 32 32 32 30 29 29 28 26 25 22 19 16 13 13 12 10 8 8 9 10 14 15 14 12 12 11 11 11 11 10 10 9
36 36 36 35 34 34 34 34 33 33 32 32 32 31 30 30 29 27 25 24 21 18 16 17 13 11 12 9 8 8 11 12 12 11 11 10 9 10 9 10 9 9 9 9
35 35 35 34 34 33 33 33 33 33 33 32 31 31 30 27 25 24 22 20 19 18 17 15 10 10 10 8 7 6 9 10 11 9 9 8 9 9 8 8 8 7 8 9
37 36 36 35 34 33 33 33 33 33 32 31 30 28 26 24 22 21 21 20 19 16 13 12 11 8 6 7 8 7 7 7 7 7 7 9 6 6 7 7 7 6 7 6
36 35 35 34 34 34 33 32 31 30 29 29 27 26 25 25 23 21 21 19 18 14 12 11 12 9 8 10 7 8 8 9 7 5 7 5 7 6 6 7 6 5 6 5
33 33 32 31 31 29 28 28 28 27 28 27 26 24 22 22 22 21 21 18 17 14 11 11 8 8 8 7 6 6 7 8 5 5 6 5 6 6 6 4 3 4 5 5
30 29 28 27 27 28 28 29 28 27 28 28 26 23 21 21 21 20 17 15 15 13 11 11 9 8 6 7 5 9 7 7 6 6 6 5 5 4 4 4 4 4 4 4
27 27 27 27 26 26 27 27 26 25 24 22 22 21 20 19 18 18 18 15 15 14 12 11 9 9 7 7 6 8 6 5 5 5 5 4 3 3 3 3 2 2 2 3
26 25 25 24 23 23 23 23 23 23 22 22 21 21 20 19 16 14 13 14 14 13 11 12 10 9 8 9 8 7 6 5 5 4 4 4 3 2 1 1 0 -0 0 0
24 24 24 24 24 22 20 21 20 20 20 19 19 18 16 16 15 15 15 14 13 13 12 11 10 8 7 8 7 6 6 6 5 5 4 2 3 2 1 0 -1 -2 -2 -2
24 24 23 22 20 20 20 21 20 19 19 18 18 17 17 18 18 16 16 14 12 11 11 9 7 5 7 7 6 5 5 5 5 4 3 2 1 0 0 -0 -2 -2 -3 -3
19 19 19 20 21 21 21 20 19 19 19 17 17 17 17 16 15 15 14 12 10 8 8 8 8 7 6 6 5 4 4 3 3 3 2 1 0 -1 -1 -2 -4 -4 -4 -4
17 18 17 16 17 17 18 18 17 16 17 17 16 16 15 15 13 12 10 10 9 7 7 7 6 6 5 4 4 4 3 3 2 1 -0 -0 -1 -1 -2 -3 -4 -5 -5 -6

GFSNGP_sfc_30mbdewp_033.txt.gz
Dewpoint
18 16 14 13 16 18 19 20 21 21 19 16 17 19 18 26 27 26 29 35 38 42 46 49 51 52 52 53 53 52 52 52 53 53 52 51 51 50 49 46 44 42 39 38
16 16 13 12 13 14 16 17 18 18 18 16 16 19 20 22 27 29 34 38 42 46 48 49 50 50 51 50 49 49 48 47 48 48 47 47 46 44 43 42 40 37 36 35
19 17 15 16 16 16 14 14 15 16 17 16 15 21 23 23 29 32 36 39 41 41 42 43 44 44 45 45 45 45 44 44 45 44 43 42 40 39 37 36 36 36 36 37
23 26 21 22 21 20 19 17 17 15 15 17 21 22 24 27 31 35 36 38 39 39 39 40 41 41 41 41 41 41 41 42 42 41 40 39 37 36 35 35 35 35 35 34
26 24 20 18 20 21 19 18 18 18 19 22 23 28 30 32 34 35 36 36 37 38 38 38 38 38 38 38 38 38 38 38 39 39 38 37 37 38 38 37 37 37 36 35
29 23 20 22 22 23 21 20 20 21 21 23 26 29 25 33 35 35 36 36 37 37 37 37 37 37 37 37 37 37 38 38 38 38 38 38 38 38 39 39 39 38 39 39
31 26 23 22 21 23 22 21 22 23 24 23 23 29 33 35 35 35 35 36 36 36 36 37 37 37 37 37 36 37 37 37 38 38 38 38 38 38 38 37 37 37 35 32
31 28 27 25 26 22 24 25 29 29 25 25 28 36 35 35 35 34 35 35 36 36 36 37 37 36 36 36 37 37 37 36 36 36 34 34 31 29 26 27 28 28 30 29
28 28 32 30 27 28 25 28 32 29 27 29 37 35 35 34 34 34 34 35 35 36 36 36 36 36 35 35 35 34 31 28 26 25 25 25 25 25 23 24 24 25 21 22
31 32 30 32 31 29 31 31 32 32 30 33 37 35 35 34 34 34 34 34 35 35 35 34 34 33 33 32 30 29 27 25 25 23 21 20 17 14 15 20 19 17 17 18
29 28 30 33 34 33 32 33 32 32 32 34 36 35 34 34 34 33 33 34 34 32 32 31 31 30 28 27 26 24 23 21 21 19 15 13 15 15 16 19 18 17 18 17
30 29 33 32 33 33 34 33 34 32 33 36 35 34 34 34 33 33 33 33 32 32 31 29 28 26 25 24 23 21 19 19 20 18 14 10 11 19 18 17 18 18 17 17
33 35 36 36 37 35 33 33 35 33 34 34 35 34 34 33 33 33 32 31 31 30 28 26 24 22 21 21 20 18 17 16 16 16 13 12 12 12 12 19 18 17 16 14
34 37 35 35 32 36 36 35 35 34 35 35 34 34 34 33 33 32 31 31 30 28 25 23 20 18 18 16 14 15 15 15 14 13 13 13 13 13 13 14 15 15 15 12
37 38 37 38 36 36 36 36 35 34 35 35 34 34 34 33 32 31 31 29 26 23 20 18 16 13 12 11 10 11 12 13 16 17 15 14 13 13 12 12 13 12 12 11
38 37 36 36 35 35 35 34 34 34 35 34 34 34 33 32 31 30 27 26 22 18 17 17 14 13 11 9 10 11 12 14 15 13 13 12 11 11 10 11 11 11 11 11
37 37 37 36 36 35 34 34 34 34 34 34 34 33 32 30 26 23 21 20 21 20 18 16 14 14 10 9 8 9 11 12 12 11 10 10 10 10 9 10 10 10 10 11
38 37 37 37 36 35 35 35 35 35 34 33 31 29 26 23 22 21 21 21 21 21 21 21 18 9 7 8 8 9 9 8 9 10 9 11 10 8 9 10 9 9 9 9
37 37 36 36 36 36 35 33 32 30 29 28 27 25 24 23 21 21 21 20 19 18 18 18 17 10 9 11 9 10 10 11 9 7 10 8 10 10 9 10 9 8 8 8
31 31 31 30 30 30 29 29 29 28 27 26 25 24 22 22 22 22 23 21 22 18 16 11 10 9 8 7 8 8 10 11 8 7 9 8 10 9 9 8 7 8 8 8
28 28 28 28 28 29 29 29 28 27 28 27 24 23 23 23 22 22 19 16 17 15 14 12 10 8 7 7 6 11 10 10 10 9 9 9 8 8 8 8 8 7 7 7
26 26 25 26 25 25 26 26 25 24 23 22 22 22 21 20 20 20 22 17 17 16 13 12 10 10 8 10 8 11 9 8 8 9 8 8 7 7 6 6 6 6 5 5
26 25 24 23 23 22 23 23 23 23 23 22 22 22 21 21 22 18 16 16 14 14 13 14 11 10 8 11 11 10 10 8 8 8 7 7 7 6 6 5 4 4 3 3
25 24 24 24 24 22 20 21 21 21 21 21 22 23 21 19 17 16 16 15 14 16 15 13 12 9 7 10 10 10 9 9 8 8 8 7 6 6 5 4 3 3 2 1
24 24 24 23 22 22 22 23 22 21 20 20 20 20 19 19 19 19 17 15 13 14 16 10 8 7 9 9 9 8 7 7 9 6 4 4 4 4 4 3 2 2 -0 -1
20 19 20 20 21 22 22 20 19 21 19 18 18 18 18 17 17 16 15 13 11 10 11 10 11 8 8 10 8 6 6 6 6 6 5 3 4 4 3 1 1 -0 -1 -1
17 17 16 16 17 17 17 17 16 16 16 19 17 16 16 15 14 12 13 12 11 10 11 10 9 9 6 6 5 6 6 5 6 4 2 2 2 2 1 0 -0 -1 -2 -2

GFSNGP_sfc_30mbdewp_036.txt.gz
Dewpoint
21 19 19 18 18 17 17 29 27 28 28 27 26 25 27 26 27 24 24 27 31 41 45 48 50 51 53 54 55 54 54 55 55 56 55 55 53 51 48 45 43 42 42 42
23 23 18 18 18 16 16 16 16 19 20 21 23 26 28 28 25 27 27 30 35 38 47 49 51 52 53 53 53 53 52 52 52 52 51 51 50 50 48 45 44 42 41 40
24 23 20 17 18 16 15 17 18 17 20 20 20 19 18 25 22 25 31 36 41 45 49 50 51 51 50 50 49 48 47 48 47 46 45 44 43 42 41 40 39 38 38 38
26 26 19 21 19 16 16 16 18 17 15 16 17 17 22 25 27 30 36 40 43 44 45 46 46 46 46 45 45 45 44 44 44 43 42 40 38 37 37 37 37 37 37 37
26 25 22 18 21 20 20 19 19 19 19 17 16 17 28 29 28 36 38 41 41 42 42 42 42 42 41 41 41 41 41 41 41 40 39 38 37 37 38 37 37 37 36 36
28 25 23 25 25 23 21 20 22 20 20 20 21 27 27 32 36 37 39 39 39 39 39 39 39 39 38 38 38 38 39 39 39 39 39 39 40 40 39 39 37 37 39 39
32 28 26 26 25 23 21 23 25 25 23 24 25 29 31 34 37 37 37 38 38 38 38 38 38 38 38 38 38 38 39 38 38 39 40 39 38 39 38 38 38 38 37 37
35 29 25 29 24 23 26 30 28 28 29 26 27 35 35 36 36 36 36 37 37 37 38 38 38 38 37 37 37 38 39 38 38 38 37 38 37 37 35 33 32 32 31 31
34 32 33 29 28 31 30 30 30 30 31 29 35 36 36 36 36 35 35 36 36 37 38 38 37 37 36 37 37 37 37 36 34 31 29 28 27 26 26 28 27 23 22 23
30 33 36 35 35 32 31 32 30 31 33 31 37 37 36 36 35 35 35 35 36 37 37 37 37 36 37 36 35 32 29 28 26 24 22 21 17 18 25 23 21 19 21 20
31 30 29 31 31 34 36 35 34 33 32 32 37 37 36 36 35 35 35 35 36 36 36 36 35 35 33 32 30 29 26 24 22 20 17 18 18 20 21 17 20 20 20 21
27 30 34 35 34 38 36 35 35 34 33 33 38 37 36 35 35 35 35 35 36 36 34 33 31 30 29 28 27 24 23 23 23 20 16 16 19 18 20 18 18 17 17 17
29 36 37 37 38 38 36 35 36 36 35 34 37 37 36 35 35 35 35 35 33 33 32 30 28 26 25 25 23 22 21 21 19 18 17 16 14 18 21 19 19 18 17 15
35 34 33 36 37 38 37 36 36 35 35 36 36 36 36 36 35 34 34 33 33 30 28 25 22 21 19 18 19 17 16 18 18 18 17 16 17 16 15 17 18 20 18 15
37 39 39 38 38 36 36 37 37 36 35 35 36 36 36 35 34 33 32 31 29 26 22 19 16 14 15 15 16 17 18 19 21 20 17 16 15 15 14 14 15 15 14 16
39 39 38 37 37 36 35 35 35 35 36 37 36 36 35 34 32 31 29 27 23 19 18 17 14 14 13 14 15 15 19 18 18 17 15 14 13 13 12 13 13 14 13 15
38 38 38 38 38 37 35 35 35 36 36 37 36 34 27 24 22 21 20 20 20 19 19 18 13 14 15 14 18 23 21 17 15 13 14 13 13 13 12 12 13 13 12 13
37 37 37 38 38 36 36 36 34 33 30 27 26 25 24 23 22 21 21 21 21 21 21 21 22 21 20 17 15 14 13 13 13 12 11 14 12 11 11 12 12 12 12 12
33 32 32 33 33 32 31 30 29 28 27 26 24 23 22 22 21 21 21 20 19 17 18 21 20 18 16 16 15 16 15 14 11 9 12 11 12 12 12 13 12 11 11 12
28 29 28 28 28 28 26 27 26 25 25 24 23 22 21 22 22 21 21 19 19 19 20 19 17 15 12 11 9 12 13 13 10 10 11 10 12 13 11 11 11 11 12 11
26 26 25 24 24 25 26 26 24 24 24 24 22 21 20 21 21 20 17 15 18 19 19 19 14 9 8 7 7 14 13 13 11 12 12 12 12 11 11 11 11 10 10 11
24 23 23 23 23 23 24 24 23 23 22 21 21 21 20 19 19 19 19 17 19 20 18 15 11 10 8 11 12 13 12 11 11 11 11 12 11 10 10 10 9 9 9 7
24 24 23 22 21 21 22 22 22 22 21 21 21 21 20 21 21 18 15 20 20 19 17 13 11 10 8 15 13 13 13 11 11 12 11 11 10 10 8 8 8 7 7 7
24 24 24 24 23 21 20 21 21 21 21 21 21 23 21 18 18 19 19 18 18 16 14 14 10 8 7 13 13 12 11 11 10 11 11 8 9 10 9 8 7 7 7 6
23 23 24 23 22 22 22 23 22 22 21 21 20 20 19 20 19 19 17 15 13 17 12 9 8 9 12 12 12 10 9 10 10 7 8 9 8 8 7 7 7 6 5 3
20 19 19 20 20 21 22 20 18 20 20 18 19 19 19 19 18 16 14 14 12 12 11 15 11 10 11 9 7 8 9 10 9 9 8 7 5 5 5 5 5 5 4 3
17 17 16 15 16 16 15 15 16 14 15 19 17 17 17 18 17 14 16 13 12 14 12 11 12 11 11 8 8 7 6 7 8 7 5 5 4 3 4 4 3 2 1 -0

GFSNGP_sfc_30mbdewp_042.txt.gz
Dewpoint
35 31 22 20 21 22 21 23 21 22 25 26 27 28 29 28 27 27 27 29 38 39 41 46 51 53 53 50 52 54 54 54 52 56 58 57 55 54 53 52 51 50 49 47
30 31 26 20 19 22 23 24 24 23 24 29 29 30 30 29 28 27 26 27 34 41 43 49 53 54 55 55 57 57 57 57 57 56 55 53 51 50 49 48 47 46 45 44
26 30 26 21 20 20 25 25 24 22 25 28 28 30 30 30 29 28 27 27 29 41 45 51 53 53 54 55 55 55 55 55 54 53 52 50 49 47 45 44 43 43 43 43
28 29 25 26 25 21 23 24 23 23 22 23 27 28 29 31 30 29 28 29 35 43 48 52 53 52 51 52 52 51 51 50 50 49 48 48 45 43 41 41 40 40 40 40
25 27 30 26 26 26 23 22 23 23 22 20 21 23 24 29 30 28 29 33 41 48 51 51 50 48 49 48 47 47 47 46 45 44 43 42 41 40 38 38 37 38 38 38
29 22 24 28 28 28 27 22 23 23 22 23 23 19 21 28 30 32 38 43 47 49 49 48 47 46 46 45 45 44 43 41 40 39 39 38 38 37 37 37 37 37 37 37
29 26 29 36 34 31 25 25 31 27 26 24 24 25 25 32 39 41 43 46 46 47 48 45 45 45 44 43 42 41 40 39 39 39 38 37 37 37 37 37 36 36 34 31
29 27 24 38 34 31 36 40 41 40 31 28 29 33 34 37 40 41 42 43 44 44 43 41 42 42 41 41 40 40 40 39 39 39 39 38 38 38 37 36 34 32 29 26
29 23 33 39 37 38 42 42 42 41 41 36 32 34 36 37 39 40 41 41 41 41 40 39 40 40 39 39 40 40 39 39 39 39 38 38 37 37 35 33 31 29 27 24
34 31 32 34 36 39 38 39 42 41 42 38 37 37 36 38 39 39 39 39 39 39 38 38 38 39 39 39 39 39 38 37 36 32 30 29 28 31 30 28 28 29 26 24
32 32 32 33 32 37 34 42 40 40 42 40 40 39 39 38 38 38 38 38 38 38 38 38 38 38 38 38 37 34 31 27 24 25 24 20 19 20 22 23 24 24 24 24
29 28 26 25 30 35 32 38 41 40 41 40 39 38 38 38 37 37 38 38 38 37 37 36 35 34 33 32 30 27 24 23 22 22 20 16 16 19 21 21 22 22 22 20
38 39 38 37 35 39 39 37 41 40 39 38 41 40 38 37 37 38 38 36 35 30 27 27 28 28 27 26 24 22 22 22 22 21 19 19 19 19 19 21 20 19 20 20
37 39 38 38 37 38 37 36 38 38 38 39 38 39 38 38 38 36 32 26 23 22 21 22 22 22 24 23 22 23 23 23 22 22 22 22 22 21 21 21 20 21 21 18
36 37 38 39 37 37 38 39 36 34 34 34 37 37 36 32 26 23 20 19 18 18 18 19 20 21 23 23 22 21 20 21 22 23 23 23 23 23 23 22 22 22 21 18
35 35 36 35 33 32 32 31 30 28 27 26 25 24 22 21 19 19 19 19 19 21 22 22 23 23 24 24 24 24 24 24 23 23 23 22 22 21 21 20 20 19 19 17
33 32 33 33 31 29 28 28 27 25 24 23 22 21 20 19 19 19 20 21 21 21 22 22 22 24 24 23 22 22 22 22 22 21 21 20 19 18 19 18 17 17 15 13
31 31 31 30 29 27 25 25 24 23 22 22 21 21 20 20 19 19 19 19 18 17 18 20 21 21 21 22 21 21 20 20 19 19 18 16 17 17 17 16 16 14 13 13
25 25 26 25 25 24 23 23 22 22 22 21 20 19 19 18 18 18 18 17 16 14 16 18 19 19 19 20 20 19 18 17 18 17 16 15 15 15 13 13 14 13 13 12
23 23 22 21 22 22 21 21 21 20 20 19 19 17 16 17 17 16 16 15 16 16 18 17 17 17 18 19 19 18 17 16 16 15 14 14 13 12 13 12 11 10 9 8
20 21 21 20 20 21 21 21 20 19 20 19 18 17 16 17 18 17 14 12 15 16 15 15 15 15 17 18 17 16 15 14 13 12 12 11 10 10 9 8 8 7 6 5
20 20 20 20 19 19 20 21 20 20 19 18 18 17 16 16 17 16 15 13 14 14 13 13 13 14 16 15 14 12 11 11 11 10 8 7 7 7 6 5 6 6 5 3
21 20 20 19 18 18 19 19 18 18 17 17 16 16 16 16 16 13 11 14 13 11 10 11 13 12 12 11 10 9 9 8 6 6 6 5 5 4 3 3 3 4 3 3
19 20 20 20 18 16 16 17 17 17 17 17 17 16 14 13 14 14 13 11 10 9 10 10 10 8 7 7 7 7 7 6 5 4 4 3 2 1 1 1 1 1 1 0
17 16 16 16 15 15 17 16 16 15 15 15 15 15 16 15 12 14 13 12 11 10 9 9 6 5 5 4 4 4 4 5 4 3 2 0 -0 -0 -1 -1 -1 -1 -1 -2
15 13 12 13 13 13 13 13 14 14 13 11 12 12 12 14 14 13 12 11 10 9 9 8 6 4 4 5 4 2 2 2 2 1 -0 -2 -1 -2 -3 -4 -5 -6 -5 -5
11 11 11 10 9 9 10 10 9 10 10 8 7 8 9 9 9 8 7 6 5 4 2 1 1 2 -0 -2 0 1 -0 -1 -3 -3 -4 -3 -4 -3 -4 -5 -6 -7 -7 -7

GFSNGP_sfc_30mbdewp_048.txt.gz
Dewpoint
32 31 32 29 26 26 25 27 26 26 23 23 24 24 25 26 28 27 25 24 30 34 40 42 46 48 49 50 51 51 50 50 50 51 52 52 52 53 54 56 56 56 56 56
28 31 28 25 26 26 25 27 27 26 24 25 25 27 27 28 28 29 27 26 25 32 37 38 42 45 48 49 50 52 52 52 52 52 53 54 54 54 55 56 56 56 55 52
23 29 26 21 21 22 23 23 26 25 28 27 25 26 27 27 29 30 29 28 27 29 35 39 41 43 45 47 48 51 52 53 53 53 54 54 55 56 56 55 53 53 51 49
25 26 16 16 27 25 24 26 28 28 27 30 30 26 27 29 30 29 30 30 30 28 30 37 41 46 48 50 49 49 51 53 54 54 55 55 54 53 51 49 49 48 47 46
24 23 21 19 16 15 19 11 27 23 31 39 37 27 25 26 27 27 29 32 32 32 30 34 43 49 51 53 53 52 53 54 54 54 51 50 50 48 46 46 45 44 43 43
26 23 14 14 26 36 33 19 36 37 39 39 40 33 26 26 25 25 27 29 30 33 37 40 47 51 51 53 54 53 52 51 51 51 49 47 45 43 42 41 39 38 37 37
24 25 24 28 31 36 25 19 34 35 36 39 38 38 38 39 38 29 28 28 37 43 43 46 50 51 50 51 51 49 48 48 47 47 45 42 40 39 38 36 34 32 31 30
26 25 19 28 36 25 28 33 34 35 38 39 40 41 41 39 36 36 36 41 46 46 47 49 50 49 48 46 44 44 43 43 41 40 39 38 38 37 35 33 31 29 28 26
27 24 29 36 36 38 38 35 37 38 38 38 39 40 41 39 40 41 43 44 46 45 44 45 46 46 44 41 42 42 41 39 38 38 37 37 36 35 33 32 30 29 27 25
28 26 27 28 32 35 37 38 40 38 35 38 40 41 42 39 40 40 41 42 42 42 42 42 42 43 42 42 41 40 37 35 34 33 32 32 32 33 32 31 29 28 26 24
27 28 31 30 36 40 39 40 40 40 37 38 41 41 42 40 39 39 39 40 40 40 39 39 40 40 40 39 37 34 32 30 29 29 28 27 27 28 29 30 30 29 26 23
25 36 36 37 39 36 38 38 39 41 39 41 39 39 41 39 39 39 38 37 36 35 34 33 33 34 34 33 33 31 29 28 27 26 25 24 24 24 28 28 27 25 24 23
35 36 36 37 38 34 33 33 33 33 30 30 36 38 36 33 31 30 30 30 29 28 27 26 26 26 28 29 29 28 25 24 23 23 22 21 21 21 20 24 26 26 25 24
36 35 36 36 34 32 30 30 29 27 25 24 25 25 24 24 24 25 25 26 26 26 25 24 24 24 25 25 25 24 24 23 23 23 24 24 23 23 23 21 20 21 23 22
33 33 35 34 30 28 28 27 25 24 22 22 23 23 23 23 23 23 24 24 24 24 25 25 25 25 27 27 26 26 25 25 25 25 25 25 25 24 24 23 21 20 21 21
30 33 32 31 28 26 25 25 24 22 22 21 21 21 21 21 20 20 21 21 20 20 21 22 22 24 25 25 24 24 23 23 23 22 22 22 22 21 21 20 20 20 18 16
26 27 26 27 26 24 23 23 23 22 21 20 20 20 19 18 18 18 18 18 18 18 19 19 19 21 22 22 22 21 20 19 19 19 19 19 18 18 18 17 16 15 14 15
26 25 24 24 23 21 20 20 20 19 19 19 18 17 16 15 14 15 16 16 16 16 18 19 19 19 19 20 20 19 18 17 17 16 16 15 15 15 15 14 14 14 12 11
22 22 22 21 22 20 19 19 18 18 18 17 15 14 14 14 14 14 15 14 13 13 15 17 18 17 17 18 17 16 15 15 15 15 14 13 13 13 12 11 10 9 9 8
20 20 20 19 19 18 17 18 18 17 17 16 15 13 12 13 13 12 12 11 12 14 16 16 15 15 15 15 15 14 14 13 12 11 11 10 8 8 8 7 6 5 5 5
17 18 17 16 16 17 17 18 16 15 15 14 12 11 11 12 13 12 10 9 12 14 13 13 13 12 11 11 11 11 10 8 7 6 6 5 3 3 2 2 2 2 2 1
17 17 16 16 15 15 16 16 15 15 15 14 14 13 11 10 10 10 11 10 11 10 9 8 9 9 8 8 7 6 6 5 4 3 2 0 -1 -1 -1 -2 -2 -2 -3 -3
17 17 16 15 14 14 15 14 14 13 13 12 11 11 11 11 10 7 7 10 7 6 5 5 5 4 4 3 2 2 2 1 0 -1 -2 -3 -3 -3 -3 -4 -5 -4 -4 -3
16 16 16 17 15 13 12 13 13 13 13 12 12 11 8 8 8 9 7 6 4 4 3 2 2 1 1 0 0 -0 -1 -2 -2 -3 -4 -5 -6 -7 -6 -5 -6 -8 -8 -8
14 13 13 13 12 12 12 11 10 10 9 9 9 10 10 10 6 7 6 5 4 2 1 -0 0 -0 -1 -2 -2 -3 -3 -3 -4 -5 -5 -6 -7 -7 -8 -8 -8 -8 -9 -10
11 10 10 10 10 10 9 8 7 7 7 6 5 5 5 6 5 4 2 1 -0 -1 -4 -6 -5 -3 -3 -4 -4 -4 -5 -5 -5 -6 -7 -8 -8 -9 -9 -9 -10 -11 -12 -13
8 8 7 7 6 6 6 5 4 3 2 2 2 3 3 2 0 -1 -3 -3 -3 -5 -6 -7 -6 -5 -4 -4 -4 -5 -5 -6 -7 -8 -10 -10 -10 -10 -11 -13 -14 -15 -16 -16

GFSNGP_sfc_30mbdewp_051.txt.gz
Dewpoint
25 28 31 28 25 24 25 25 23 22 25 27 28 28 28 27 28 29 29 29 28 30 38 45 48 50 50 50 50 49 48 47 48 49 49 49 51 52 52 52 52 53 53 54
27 31 30 27 27 25 25 24 24 27 27 29 29 28 28 28 29 29 29 29 30 29 33 39 44 48 49 51 51 50 49 48 48 49 49 50 50 51 52 52 52 54 54 54
22 29 26 20 23 23 21 21 21 18 18 29 29 29 31 30 29 30 30 30 31 31 30 35 39 44 47 49 51 52 51 50 50 50 51 51 51 51 52 52 53 55 55 55
25 26 16 15 25 25 23 23 23 24 28 29 30 36 38 38 31 30 31 30 31 31 32 33 38 42 44 46 50 51 52 52 52 52 52 52 53 53 54 54 55 55 54 52
24 23 21 18 18 15 16 14 28 32 35 36 37 39 37 34 33 35 36 34 32 33 33 33 36 40 44 46 47 49 51 52 52 53 53 54 54 53 51 50 48 46 46 45
27 20 15 16 30 34 31 19 31 35 32 33 37 34 35 39 40 42 42 41 38 32 34 35 35 46 47 48 49 48 49 51 53 54 52 52 50 47 44 43 40 38 38 39
27 24 24 26 27 33 21 19 30 34 33 36 35 36 38 41 42 42 40 39 36 36 36 40 46 49 49 52 52 52 51 51 51 51 49 45 43 41 39 36 34 33 32 31
26 25 21 28 35 29 28 34 35 35 36 38 38 38 38 41 41 41 41 43 44 45 46 48 50 50 50 49 47 48 47 45 44 43 42 41 39 36 35 33 31 30 29 27
27 25 29 33 34 38 37 38 38 38 37 39 38 38 41 42 42 40 40 42 44 45 46 47 48 47 45 44 44 43 42 40 40 39 38 37 36 34 33 32 31 29 28 26
26 26 27 29 33 39 37 39 40 40 40 39 40 41 42 42 41 40 40 41 42 42 42 42 43 44 44 43 42 40 38 36 35 34 34 34 34 33 32 31 30 29 27 24
28 29 31 33 38 37 37 36 36 36 39 37 38 38 41 41 38 38 38 38 39 39 37 38 38 39 39 39 37 35 33 32 31 30 29 29 29 30 30 31 32 30 27 25
26 35 34 35 37 36 34 33 33 32 33 32 33 32 34 32 31 31 31 32 31 31 32 32 32 32 33 34 34 33 31 31 30 29 28 28 27 26 28 27 26 25 24 23
33 36 35 37 37 32 31 30 30 28 27 27 27 26 28 27 27 28 28 28 27 26 27 27 28 27 28 28 28 28 27 26 25 25 25 24 23 22 21 25 26 26 26 25
35 34 35 36 33 30 29 28 26 25 24 24 25 25 25 25 26 25 25 26 26 26 25 26 26 26 28 27 27 26 26 26 25 25 25 25 24 24 24 23 21 22 25 24
29 31 33 35 29 27 26 25 24 23 23 22 22 22 22 21 21 22 22 22 21 22 23 23 23 24 26 27 26 26 25 25 25 25 25 26 26 25 24 22 21 20 19 20
26 28 31 29 26 24 24 24 23 22 21 21 20 20 19 19 19 19 19 19 18 18 20 20 20 22 24 24 23 23 22 22 23 23 22 22 22 22 21 21 20 18 17 16
24 25 24 24 23 22 22 22 21 20 20 19 19 18 17 16 16 16 17 17 17 17 18 18 18 21 21 21 21 21 20 20 20 19 19 19 19 18 18 17 15 14 14 15
24 24 23 23 22 21 19 19 19 18 17 17 17 16 15 14 13 14 15 16 15 15 16 18 18 19 19 19 19 18 18 17 17 16 16 16 15 15 14 14 13 11 11 11
21 21 21 21 21 20 19 17 17 16 16 15 14 13 13 13 13 14 14 13 13 12 14 16 16 16 17 17 16 15 15 14 14 13 12 12 12 11 11 10 9 8 7 6
18 19 18 18 18 17 16 16 16 15 15 14 14 12 12 12 13 12 11 10 11 12 14 14 14 14 13 13 12 12 12 11 10 10 9 8 8 8 7 6 5 6 5 5
17 17 16 15 15 16 16 16 14 13 13 13 11 10 10 11 12 12 9 7 10 11 9 9 9 7 7 7 8 9 8 7 7 6 6 5 4 3 3 3 3 3 3 3
16 15 15 14 14 13 15 15 14 14 13 13 13 12 11 10 9 8 8 6 5 5 5 5 5 5 5 5 5 5 4 4 3 3 2 1 1 1 0 0 0 1 1 1
16 16 15 14 13 13 14 13 13 12 11 10 9 9 9 8 7 4 3 5 4 4 3 4 3 2 3 4 4 3 2 2 1 0 -0 -0 -1 -1 -1 -1 -2 -2 -3 -4
16 15 15 15 14 12 11 12 12 11 11 9 10 9 6 6 7 6 5 4 3 3 3 2 1 0 2 2 2 1 1 0 -0 -0 -1 -2 -1 -2 -2 -3 -4 -4 -4 -5
14 13 12 12 11 10 10 9 8 8 7 7 7 8 7 7 5 5 4 3 2 1 1 -1 -1 -1 1 2 1 0 -1 -1 -2 -2 -2 -2 -3 -3 -3 -4 -5 -5 -6 -7
10 10 10 10 9 8 8 7 7 7 6 6 5 6 6 5 3 2 1 -0 -2 -3 -3 -2 -2 -1 -0 -1 -2 -2 -2 -2 -2 -3 -3 -3 -4 -4 -5 -7 -8 -9 -9 -10
8 8 7 6 5 5 5 5 5 4 3 3 3 4 3 1 0 -0 -1 -1 -2 -3 -2 -2 -2 -2 -1 -1 -1 -2 -2 -3 -6 -4 -5 -5 -6 -7 -9 -10 -10 -11 -11 -12

GFSNGP_sfc_30mbdewp_057.txt.gz
Dewpoint
20 23 23 21 24 24 23 23 22 22 23 21 22 22 19 20 20 21 24 30 31 31 30 31 37 44 47 48 50 52 51 50 51 53 54 54 55 55 55 55 54 54 54 54
27 22 21 22 22 22 20 19 19 19 18 20 21 22 20 20 19 21 25 33 36 37 36 34 33 33 43 46 49 51 52 52 51 52 53 54 54 54 55 55 54 54 53 53
25 23 21 17 20 22 22 22 21 19 19 16 17 16 19 23 27 29 32 36 38 40 40 40 38 37 36 41 47 49 51 52 51 52 52 53 54 53 53 54 54 53 53 53
25 24 21 18 18 18 19 18 18 16 15 18 22 24 26 26 33 35 37 39 40 40 41 41 40 39 39 35 40 46 48 50 51 51 52 52 53 53 53 53 53 53 53 53
19 18 17 13 15 14 14 10 13 14 22 24 26 27 26 33 35 36 38 39 40 41 42 43 43 43 40 36 35 38 45 48 50 50 50 51 51 52 53 53 53 53 54 54
22 17 12 14 18 25 19 10 23 26 27 27 28 26 26 34 35 37 36 38 39 41 42 44 45 46 45 38 34 36 39 46 49 49 49 50 51 52 53 53 52 46 43 42
20 18 16 15 20 21 19 23 29 29 29 29 28 28 33 35 37 37 37 37 39 40 42 43 44 44 46 46 43 38 39 41 48 49 49 51 51 52 50 44 39 36 34 34
20 21 17 22 22 21 33 33 32 32 33 36 35 33 32 37 38 39 37 36 37 38 39 40 39 39 42 47 49 52 51 50 50 50 49 48 45 43 41 38 35 32 31 30
19 20 27 26 33 36 35 34 34 35 35 35 34 34 36 38 38 38 37 36 35 36 36 34 33 35 37 40 45 47 47 44 42 41 41 40 39 37 35 34 33 31 29 27
30 23 29 26 33 35 35 35 35 34 34 34 35 36 35 35 35 35 34 34 34 32 32 30 30 31 32 37 39 39 37 36 36 35 34 35 35 35 34 32 31 29 27 25
24 25 24 24 34 36 35 35 34 34 34 34 33 33 33 33 32 32 32 31 32 30 29 28 28 29 30 34 35 33 32 31 30 29 28 28 28 30 29 30 30 27 26 25
23 33 33 30 33 35 33 33 33 33 32 32 32 31 31 31 29 27 28 27 27 26 26 26 27 28 29 31 32 31 29 29 28 27 26 26 25 25 28 27 27 27 26 25
33 35 35 34 34 34 33 32 31 30 29 29 29 28 28 28 26 24 24 24 24 24 24 25 25 25 28 30 30 29 28 27 27 27 26 25 23 22 21 25 27 27 27 27
31 31 33 34 33 32 31 30 29 28 27 26 25 25 24 22 21 22 22 22 22 21 22 23 23 24 27 28 28 28 28 27 26 26 26 26 25 24 23 22 20 21 25 25
28 27 29 31 31 29 28 27 28 25 24 22 21 20 20 19 18 19 20 21 20 20 21 21 22 24 26 27 26 26 27 27 28 27 27 26 24 23 22 21 20 20 21 21
25 26 28 28 26 25 25 24 24 22 21 20 19 19 19 18 18 18 18 18 17 17 20 20 21 24 26 27 26 25 25 26 26 25 25 25 24 22 21 20 20 20 20 21
24 25 24 25 24 22 21 21 20 19 19 19 20 21 20 19 18 18 18 18 17 18 18 19 20 22 25 26 25 25 25 24 24 24 24 23 22 20 19 18 16 16 16 16
23 24 23 24 24 22 20 21 19 18 18 18 18 18 17 16 15 16 17 18 17 16 17 18 19 20 21 23 24 23 22 21 20 20 20 19 18 17 17 16 15 14 12 12
23 22 21 22 22 20 19 18 18 18 18 17 16 15 15 15 15 14 15 14 13 12 13 13 13 14 14 16 16 17 17 16 16 15 15 15 15 14 14 13 12 11 9 8
19 18 18 18 19 18 16 17 17 16 18 17 16 15 14 15 16 14 12 9 9 8 8 9 7 7 8 10 12 12 12 11 9 10 10 11 11 10 8 7 8 9 8 7
16 16 17 16 16 17 17 17 15 14 15 14 12 11 11 11 9 11 7 5 6 5 4 5 6 5 5 6 8 10 10 9 9 9 9 9 8 7 7 7 7 7 7 6
16 15 15 16 15 15 15 15 15 15 15 15 15 15 11 9 8 6 6 5 4 4 4 4 5 6 6 7 7 7 6 7 7 7 7 7 7 6 6 6 5 5 5 5
16 16 16 15 15 14 15 14 14 13 11 10 9 8 7 6 5 5 3 3 3 4 3 4 4 6 6 8 7 7 6 5 5 5 5 5 5 5 4 3 4 3 3 2
18 18 18 18 18 15 13 12 11 10 9 8 8 9 8 8 6 5 4 3 3 3 3 3 4 5 5 6 6 5 5 5 5 5 4 3 4 3 3 2 1 3 2 1
18 18 16 13 11 10 10 8 7 7 7 6 6 5 5 5 6 5 5 3 2 4 5 2 3 3 5 4 4 4 4 3 2 4 3 3 2 2 2 1 1 -0 -0 0
13 11 11 11 9 8 7 7 7 7 6 7 7 8 8 6 5 5 5 3 3 3 4 4 3 4 4 3 3 2 3 2 2 1 1 1 1 1 0 -1 -1 -1 -1 -1
11 9 8 7 6 7 7 7 8 7 8 7 6 6 6 6 4 3 4 4 4 4 4 4 4 2 1 2 2 2 2 2 1 -2 0 0 -0 -0 -1 -2 -2 -2 -2 -3

GFSNGP_sfc_30mbdewp_060.txt.gz
Dewpoint
28 28 26 26 28 25 27 33 32 29 28 32 34 33 23 20 20 21 24 32 36 39 40 41 41 41 45 49 53 53 52 51 50 54 56 56 56 56 56 56 56 56 55 54
29 29 24 21 26 34 33 22 23 28 32 31 29 21 21 21 23 26 31 36 38 39 40 41 41 42 42 43 49 53 53 52 52 51 53 55 55 56 56 56 56 56 56 55
26 27 24 20 20 27 29 21 19 18 19 23 20 19 20 25 27 35 36 38 39 40 41 42 43 44 43 44 43 46 52 53 53 52 52 53 54 55 55 55 56 56 55 55
26 31 21 20 19 19 21 21 22 22 22 20 21 24 24 33 35 35 35 37 38 39 40 42 45 46 47 47 47 42 42 50 52 53 53 53 54 54 54 55 55 55 55 55
27 24 28 25 18 15 16 18 18 15 17 22 26 27 32 34 35 35 36 36 37 39 40 43 44 43 44 45 46 47 46 39 48 51 52 53 53 53 54 54 55 55 55 55
24 22 21 18 21 22 18 14 21 26 27 27 27 29 33 34 35 36 38 37 37 38 39 41 40 40 41 43 44 48 50 52 51 44 51 52 52 53 54 54 54 53 45 42
23 22 20 16 18 21 17 27 31 30 32 32 31 31 32 34 36 36 38 37 36 36 37 37 35 35 38 39 41 40 44 49 48 49 51 51 52 53 53 50 42 38 36 34
22 20 18 18 21 19 35 37 36 35 34 35 34 33 33 37 37 37 35 35 35 34 34 34 32 32 33 34 37 39 42 45 44 43 44 46 47 44 42 40 37 33 32 30
20 20 24 28 34 35 35 36 35 34 33 33 33 33 34 35 35 34 33 33 33 33 32 31 30 30 31 32 36 36 37 37 37 37 37 39 39 38 37 35 33 31 29 27
27 26 21 36 36 34 34 34 33 33 33 33 33 33 33 33 32 30 30 29 29 28 28 27 28 28 30 31 34 33 31 31 30 29 30 32 34 34 33 32 30 29 27 25
29 33 37 39 38 33 33 33 32 33 32 32 32 32 32 30 29 28 27 26 26 25 25 25 26 26 29 30 31 30 29 28 28 27 27 26 27 28 27 29 29 27 26 25
32 36 38 37 34 33 32 32 31 30 30 30 30 29 29 27 26 25 25 25 23 23 23 24 25 26 28 29 30 28 27 26 26 25 25 25 25 25 28 28 28 28 27 26
32 31 34 34 33 33 32 31 30 29 27 27 26 26 25 24 23 22 22 22 22 23 23 25 25 25 27 29 29 28 27 27 26 25 25 24 23 21 20 24 26 26 27 27
28 29 32 32 31 30 30 30 29 26 25 23 23 22 22 20 20 20 21 22 21 22 22 24 24 25 27 27 27 27 27 27 26 25 24 23 23 22 21 20 19 21 24 25
26 27 30 30 28 26 26 27 25 23 22 21 20 20 19 18 18 18 20 21 20 20 20 21 22 24 27 27 25 25 25 25 26 25 25 24 23 22 21 21 19 19 20 20
25 28 26 27 25 24 23 23 23 21 20 20 19 18 18 18 17 17 18 18 16 16 18 19 19 23 26 25 25 24 24 24 25 24 23 22 21 19 18 18 18 18 19 19
24 24 24 24 24 22 21 21 20 19 19 20 21 22 20 17 16 16 17 17 17 17 18 18 18 21 24 24 24 23 22 22 23 22 22 22 20 18 17 16 16 16 16 16
24 24 23 24 24 20 19 19 18 18 18 18 18 17 16 15 14 15 16 16 15 13 16 17 18 18 20 22 22 22 21 19 18 18 18 18 18 18 17 16 15 14 13 12
22 20 21 21 20 18 17 17 18 18 18 17 16 15 15 14 13 13 13 12 11 10 11 12 11 12 13 15 15 15 14 15 15 15 14 13 12 14 14 14 13 12 12 11
18 18 17 17 18 16 17 18 17 17 17 16 15 13 12 13 16 14 11 9 9 9 8 9 10 9 9 12 13 13 13 13 12 12 12 12 12 12 11 11 12 11 11 10
17 17 17 16 16 17 17 17 15 14 15 15 13 12 11 9 9 10 8 6 7 7 7 7 8 8 8 8 9 11 11 11 11 12 11 11 10 10 10 10 10 10 9 9
17 16 16 16 15 16 17 16 15 15 14 14 14 14 13 11 8 6 6 6 5 6 5 6 8 9 10 10 10 9 9 9 9 10 10 10 9 9 8 8 8 8 7 8
18 17 16 16 15 15 15 15 14 13 13 13 13 10 8 6 5 5 3 4 3 4 4 6 7 8 9 10 10 10 9 8 8 7 8 8 7 7 6 4 7 6 5 3
19 19 18 19 19 15 13 12 11 11 10 9 9 8 11 11 8 6 4 4 7 5 4 5 5 7 8 9 9 7 6 6 9 7 7 6 6 7 7 3 4 5 3 3
18 18 17 14 11 10 10 9 8 8 8 7 7 7 6 6 7 6 7 5 4 7 8 4 6 8 7 7 5 6 8 6 5 5 5 5 4 5 4 3 2 1 3 3
13 12 12 11 10 9 8 9 9 10 9 10 9 10 10 9 8 9 8 5 6 5 7 8 5 5 6 6 6 5 5 6 3 3 4 4 3 4 3 1 1 2 2 1
11 10 8 7 7 8 9 10 12 11 12 10 8 8 8 9 7 6 7 7 8 7 8 7 8 5 2 3 4 4 4 4 3 1 2 2 2 2 2 0 0 -0 -0 -0

GFSNGP_sfc_30mbdewp_063.txt.gz
Dewpoint
32 30 33 33 32 29 30 30 33 34 36 37 40 40 36 25 33 37 38 39 40 40 41 42 43 45 46 46 48 55 53 53 55 55 55 54 54 54 54 54 54 54 54 53
28 29 29 29 31 28 34 34 33 36 37 43 41 42 38 31 36 38 39 39 39 39 41 44 45 46 46 46 47 48 54 53 52 55 56 55 55 55 55 55 55 55 53 54
26 27 29 24 24 33 35 36 34 34 35 39 40 37 34 35 35 37 37 38 39 40 42 43 42 41 41 43 45 46 48 50 53 53 54 55 56 56 55 55 56 55 55 55
25 23 22 27 30 31 30 33 32 25 29 25 31 35 35 36 36 36 37 37 38 40 42 40 39 39 40 41 43 45 45 45 48 51 52 53 54 55 56 56 56 56 55 55
21 24 26 24 26 19 25 24 26 23 25 27 35 33 34 37 38 37 37 36 37 39 39 37 35 35 37 38 39 40 40 41 44 48 47 48 52 54 54 55 55 55 56 56
27 20 20 28 27 25 23 27 33 32 32 32 33 31 34 37 37 36 36 35 35 35 35 33 32 33 34 34 35 35 37 39 42 44 43 44 46 48 54 54 54 55 52 46
23 23 26 28 26 24 19 31 36 36 35 34 33 36 37 36 34 33 32 33 33 33 31 30 30 31 31 32 32 34 35 38 38 38 39 40 42 43 51 53 47 43 39 36
24 22 20 23 30 25 36 37 36 34 35 35 35 35 35 33 31 30 29 29 29 30 28 27 28 28 29 30 31 34 34 33 32 32 32 34 38 39 40 40 39 36 34 31
24 23 31 38 37 39 37 35 35 34 34 34 34 33 31 30 29 28 27 27 27 27 26 26 26 27 27 29 31 31 30 29 28 28 28 29 30 33 35 36 34 33 31 28
27 33 35 40 39 35 34 34 34 34 33 34 33 32 30 28 27 26 26 25 24 24 24 24 25 26 28 29 30 29 27 27 26 26 26 26 27 28 28 31 31 29 28 26
30 37 37 37 37 36 33 33 32 31 31 31 31 29 28 26 26 25 24 23 23 23 23 24 25 26 27 29 29 27 25 25 25 25 25 24 25 26 26 28 28 27 27 26
30 35 36 36 37 36 33 31 30 29 27 27 28 27 25 24 23 23 22 22 22 23 23 25 25 25 26 28 28 26 25 24 25 24 24 23 22 23 27 28 28 28 28 28
31 38 35 33 32 32 30 27 26 25 25 24 24 24 22 22 22 21 21 21 22 22 23 24 24 25 26 27 27 25 24 23 22 22 22 22 22 21 20 22 25 27 28 27
30 33 30 29 27 28 28 26 24 22 22 21 21 20 20 20 20 21 21 21 20 20 20 21 22 23 25 25 24 25 25 25 23 23 22 21 21 20 20 18 17 18 23 23
27 29 28 25 24 24 25 24 22 21 20 19 19 18 17 17 16 17 19 19 18 17 17 18 19 22 24 24 23 23 23 23 23 22 21 20 20 19 20 19 18 17 18 18
26 25 26 23 22 22 21 22 21 20 20 19 19 19 18 17 16 16 16 16 14 14 16 16 17 21 23 23 21 21 22 23 23 21 20 19 18 17 17 17 16 16 15 16
23 22 23 23 21 20 21 21 20 19 18 17 19 19 17 16 15 14 14 14 13 14 16 16 17 20 21 21 22 21 20 20 20 20 20 19 18 17 16 15 14 14 14 14
25 24 23 22 20 19 18 17 17 16 15 16 15 14 13 12 11 12 12 12 11 11 12 13 14 15 18 18 17 17 18 16 15 14 15 17 17 16 15 14 13 12 12 12
21 20 20 20 19 18 17 16 16 16 16 15 13 13 12 11 11 11 11 10 8 8 9 12 12 13 13 15 15 15 14 13 14 14 14 13 13 13 13 12 11 11 10 9
18 18 17 17 17 16 15 15 14 14 13 12 11 11 10 12 11 8 8 8 8 8 9 10 11 11 10 11 13 13 13 13 12 12 11 11 11 11 11 11 11 10 10 9
16 15 15 14 14 15 14 13 13 13 13 11 8 7 7 7 7 8 7 6 7 7 8 9 10 12 10 10 10 11 11 11 10 11 10 9 9 8 9 8 8 7 7 6
15 15 14 14 14 14 14 13 12 12 11 11 13 12 9 7 5 5 6 5 6 6 7 8 9 9 10 11 11 10 8 8 8 7 6 7 3 3 5 6 3 1 4 4
16 16 15 13 13 14 14 13 12 11 9 10 11 8 7 7 6 4 4 6 5 4 6 5 6 8 9 7 4 4 5 7 6 5 6 5 5 2 2 4 4 2 2 3
17 16 15 15 15 14 12 12 11 10 8 8 7 8 12 9 9 6 5 7 4 2 3 5 8 6 4 3 7 2 1 2 3 4 4 3 3 3 3 0 -2 -2 1 1
19 20 18 15 12 11 10 10 10 10 10 10 10 9 7 7 3 5 5 4 7 7 2 2 5 6 4 5 2 5 3 2 2 0 4 1 3 2 -1 -1 1 1 -0 -2
14 12 11 11 11 12 13 14 12 14 12 11 9 7 6 8 10 10 8 7 7 7 7 2 1 -0 0 4 2 2 5 1 -2 -2 1 1 1 2 -1 -1 -2 -2 -1 -2
12 11 10 9 9 9 11 12 11 8 8 10 8 10 10 9 7 9 6 6 6 4 5 6 5 3 1 2 1 2 2 2 1 1 3 2 1 1 -1 -3 -4 -3 -2 -2

GFSNGP_sfc_30mbdewp_066.txt.gz
Dewpoint
31 32 29 29 34 34 33 33 30 31 32 38 43 40 40 40 39 38 38 40 42 43 43 42 41 42 43 44 46 47 54 55 54 54 54 54 54 54 54 54 54 53 53 53
27 28 25 26 33 34 36 37 31 32 34 41 45 45 41 39 38 38 39 40 41 41 40 38 39 39 41 42 43 46 46 46 52 55 55 55 54 54 54 54 54 54 53 53
23 26 22 24 27 30 31 37 37 35 36 42 41 42 39 37 37 37 38 39 40 39 36 34 34 36 38 39 41 40 41 42 44 45 49 54 55 55 54 54 54 54 54 54
24 23 12 25 25 26 34 36 37 38 40 42 40 42 42 37 36 36 37 38 37 35 33 32 32 33 35 35 36 36 37 38 40 42 45 45 46 49 55 55 54 54 54 54
20 19 19 17 28 28 30 33 36 36 40 42 38 37 36 36 36 35 35 35 35 32 31 31 31 32 32 32 32 33 35 35 37 39 39 40 42 43 45 46 53 55 55 55
25 19 13 24 28 29 29 31 36 35 38 36 36 34 34 34 33 32 32 33 32 30 29 28 28 30 31 30 31 32 33 33 33 33 34 36 38 39 42 43 44 50 56 56
22 22 23 26 28 30 23 32 36 36 37 37 35 34 33 31 29 29 29 30 30 28 27 26 27 29 29 29 30 31 31 30 29 29 29 32 33 35 39 40 40 41 43 36
23 22 18 32 31 25 34 37 36 35 36 34 33 31 30 29 28 27 26 26 26 26 25 26 27 28 28 28 30 29 28 28 27 27 27 28 30 31 34 35 35 33 31 30
24 23 36 34 34 36 38 37 37 36 35 33 31 29 29 28 26 25 24 24 24 24 24 25 25 27 27 28 28 27 26 25 26 25 25 27 27 28 29 31 31 30 28 27
32 35 35 36 35 33 32 32 32 33 33 32 30 28 27 26 24 23 22 22 23 23 24 24 25 26 27 27 26 25 24 24 24 24 23 24 26 26 27 27 27 27 26 24
34 35 36 37 37 36 31 31 29 28 30 29 27 26 25 24 23 22 22 22 23 23 23 23 24 25 25 26 26 24 23 23 23 23 23 22 24 25 26 28 28 26 26 26
28 35 33 35 36 35 32 28 27 26 25 25 25 24 23 22 21 21 21 21 21 21 22 22 23 24 24 25 24 23 21 21 21 20 20 20 21 20 22 25 27 27 28 27
31 33 32 33 32 31 28 25 24 23 23 22 22 22 21 21 20 20 19 19 19 19 19 21 22 22 23 24 24 22 21 22 21 21 20 19 19 18 18 20 21 23 24 25
36 36 29 29 28 26 24 22 22 21 21 20 20 20 19 19 18 17 17 18 18 17 17 18 19 20 22 22 22 22 21 21 20 19 19 19 19 19 18 17 16 16 19 20
27 26 24 23 24 24 23 22 20 19 19 19 19 18 16 15 15 16 17 16 16 16 16 17 17 19 22 20 20 20 21 20 19 19 18 18 18 17 17 16 15 15 15 15
27 24 23 22 21 22 22 21 19 19 18 17 16 15 15 14 14 13 13 13 13 13 15 15 16 19 20 20 19 19 19 20 19 18 17 16 16 16 15 14 13 12 12 12
24 24 22 21 20 20 20 20 19 18 20 18 17 16 14 13 12 12 12 12 12 11 12 13 15 16 18 17 19 19 17 16 16 18 17 17 16 14 13 12 11 11 11 11
23 22 23 20 19 17 17 17 17 16 15 15 13 11 10 10 10 10 10 9 8 9 10 12 13 14 15 15 15 15 15 15 14 14 14 14 13 13 12 11 10 10 10 9
20 20 19 18 17 16 15 15 15 14 14 12 11 10 10 10 10 9 8 7 7 7 9 11 13 12 12 15 14 14 13 12 12 12 12 12 11 12 11 10 9 9 8 7
16 16 16 15 15 14 13 13 13 12 12 11 9 9 8 7 6 6 6 6 7 8 10 11 12 11 11 11 11 11 11 11 11 9 9 9 8 8 8 7 7 7 7 6
13 13 13 12 12 12 11 11 11 10 9 7 7 7 6 6 6 6 5 4 6 8 8 9 10 11 11 9 9 8 8 8 7 6 5 5 5 5 4 3 4 4 4 3
13 12 12 12 12 12 12 11 11 11 10 8 6 4 4 4 5 4 5 5 6 6 7 8 9 6 6 7 7 7 6 5 5 4 2 2 2 3 1 0 1 1 -0 -1
14 13 13 12 12 12 12 11 9 9 9 8 7 6 6 6 5 3 3 4 5 5 7 6 3 5 4 1 1 3 4 4 4 3 3 1 0 0 0 -1 -0 -1 -1 -2
16 15 14 14 12 10 9 10 9 8 8 9 10 9 8 5 4 7 7 3 2 1 6 6 5 3 2 3 2 1 -1 0 2 2 1 1 0 -1 -3 -3 -2 -3 -3 -3
18 17 17 17 14 13 13 13 11 11 10 9 8 7 7 6 4 6 4 6 5 3 0 1 2 3 3 1 3 1 -0 -3 -1 2 1 1 -0 -2 -2 -2 -2 -2 -3 -5
13 12 11 11 12 14 14 13 13 12 10 8 8 7 7 6 6 8 7 8 8 7 3 0 -2 -1 1 0 1 3 -0 -1 -2 0 1 -0 -0 -2 -3 -4 -4 -4 -3 -3
12 11 10 11 11 11 13 11 9 9 10 8 8 7 8 7 8 6 5 4 3 3 4 5 4 2 2 3 0 0 1 1 -1 -1 0 0 -1 -1 -3 -4 -6 -5 -4 -4

GFSNGP_sfc_30mbdewp_069.txt.gz
Dewpoint
28 28 29 30 31 34 34 35 31 29 30 35 39 41 42 42 39 40 40 39 37 37 37 38 39 40 42 43 43 44 49 49 51 54 55 55 55 55 55 54 53 53 52 51
25 29 24 21 24 30 34 36 36 35 32 40 43 43 43 44 40 39 39 38 35 33 33 33 35 36 37 38 39 39 40 41 43 45 50 52 55 55 55 55 54 54 53 53
20 25 22 17 27 24 33 35 33 34 35 43 43 41 43 42 41 39 37 36 33 32 32 32 32 34 34 34 36 36 37 38 39 40 42 42 44 45 52 54 54 54 54 54
22 21 13 17 19 30 31 35 38 38 39 41 41 43 42 42 41 39 37 33 32 32 31 30 31 32 32 32 33 34 34 34 35 35 36 37 39 41 41 44 46 49 54 54
17 17 17 16 29 29 29 30 36 36 39 40 41 36 35 36 36 36 35 32 30 29 28 28 29 30 31 31 32 32 31 31 30 31 31 33 35 35 37 41 42 43 45 46
24 17 10 19 28 30 32 29 37 37 40 40 38 35 32 34 33 32 31 29 28 27 27 27 28 29 29 30 30 29 29 28 28 27 29 30 31 32 34 37 39 40 38 34
22 20 20 25 34 32 22 30 37 37 43 40 36 34 31 31 30 29 29 27 27 26 26 27 28 28 28 28 27 27 27 27 26 26 27 28 29 30 32 34 35 33 31 30
23 20 16 33 34 27 35 38 37 35 34 32 31 30 29 28 27 26 25 25 25 25 25 26 27 27 27 26 26 26 26 25 24 25 26 26 27 28 29 30 30 29 27 26
24 23 34 33 33 37 39 39 39 37 35 33 32 31 29 27 24 23 23 23 24 24 24 25 25 26 26 25 25 24 24 23 23 23 23 25 25 25 26 27 27 26 25 25
32 34 34 33 32 32 31 32 34 36 36 34 31 30 27 23 23 22 22 23 23 23 23 24 25 25 25 26 25 23 22 23 22 22 21 21 23 23 23 24 25 24 24 24
32 34 35 36 34 34 33 31 30 28 28 27 26 24 23 22 22 21 21 22 22 22 22 23 23 24 24 24 23 21 21 21 20 21 21 21 22 23 23 24 24 23 23 23
27 32 33 31 34 34 31 29 27 25 24 24 24 23 21 20 20 20 19 19 19 20 20 21 22 22 23 24 22 21 20 20 21 20 20 19 19 20 21 22 23 23 23 22
30 32 32 31 30 27 26 27 26 25 23 22 22 21 20 19 18 19 18 18 17 17 18 19 20 20 21 22 22 21 20 20 19 19 19 19 18 17 16 16 18 19 20 21
33 33 29 29 25 24 22 21 21 20 20 19 19 19 18 17 17 16 16 17 17 16 16 17 18 18 20 19 20 19 18 18 17 17 17 17 16 16 15 14 13 14 16 17
24 25 25 24 23 22 22 20 19 18 18 17 17 16 16 15 14 14 15 15 15 15 15 16 16 17 18 18 18 19 18 17 16 16 16 16 15 15 13 12 11 11 11 12
24 23 23 22 22 21 20 19 18 17 16 15 15 14 13 13 13 12 13 12 11 11 12 13 14 15 16 16 16 16 16 17 17 16 15 14 13 12 12 11 10 9 9 9
25 23 22 21 20 19 19 19 18 17 16 15 15 14 13 12 11 10 10 9 9 9 10 12 12 13 14 14 14 14 14 14 14 15 14 14 13 12 11 10 9 8 7 8
21 21 21 20 18 17 17 17 16 15 14 13 12 11 9 8 8 8 7 6 7 8 9 10 12 12 14 14 14 13 13 14 13 13 12 11 11 10 10 9 8 7 6 5
20 19 18 17 16 16 15 14 14 13 12 11 9 9 8 8 7 6 5 5 5 6 8 10 13 11 11 14 12 12 10 10 10 10 10 8 8 8 7 7 6 5 4 3
16 16 15 14 14 13 12 12 11 10 10 9 8 7 6 5 4 4 4 4 5 7 9 10 11 10 10 9 9 8 8 7 8 6 6 5 4 4 4 5 4 3 2 1
12 12 12 11 11 11 11 11 10 9 9 9 7 6 6 5 5 4 3 4 6 8 8 8 7 8 8 8 7 5 5 4 4 3 2 2 1 1 1 1 1 0 0 -1
11 11 11 11 11 11 11 11 10 8 6 4 3 3 2 2 3 3 4 5 7 6 6 7 5 2 4 5 4 3 3 2 1 1 1 0 -1 -1 -1 -1 -2 -2 -3 -4
13 12 12 12 12 11 12 10 10 9 8 6 6 6 6 5 5 2 1 5 6 6 5 3 3 1 0 0 0 1 1 2 2 0 -1 -1 -2 -3 -3 -2 -3 -4 -4 -5
14 14 14 14 12 11 9 9 10 10 8 7 5 4 5 3 5 7 5 2 2 5 5 4 3 3 2 1 -1 -2 -1 -0 -0 -1 -1 -2 -3 -4 -3 -4 -2 -4 -4 -4
16 15 14 13 14 12 11 11 10 10 8 8 10 9 7 6 3 4 5 5 5 1 -0 -1 1 1 1 1 -1 -2 -5 -4 -1 -1 -1 -1 -3 -3 -4 -4 -4 -4 -5 -7
17 15 14 14 14 14 13 12 11 11 10 8 7 5 3 4 5 5 6 7 7 6 2 -1 -2 -1 -1 -0 1 0 -2 -3 -3 -1 -1 -1 -2 -3 -4 -5 -6 -6 -5 -5
11 10 10 10 12 13 13 12 11 10 9 7 6 5 6 5 6 7 6 4 4 3 4 4 3 3 3 2 1 0 0 0 -1 -2 -2 -2 -3 -2 -3 -4 -6 -8 -7 -8

GFSNGP_sfc_30mbdewp_072.txt.gz
Dewpoint
27 27 28 27 26 26 30 32 30 33 34 36 38 41 42 39 38 35 33 33 34 35 36 38 38 38 38 39 40 42 45 45 46 50 55 55 55 55 55 54 53 52 51 51
22 28 23 19 14 22 24 32 33 34 33 36 44 43 44 41 37 36 33 32 32 32 32 33 34 33 34 36 37 38 38 39 40 41 43 44 45 47 54 55 55 54 53 52
18 23 20 8 21 19 26 34 35 31 33 41 42 42 42 41 39 36 33 32 32 30 30 31 32 32 32 33 34 34 34 34 34 35 36 37 40 41 42 43 45 47 51 54
21 19 7 10 17 28 32 33 36 36 38 41 40 42 42 41 39 37 34 32 30 29 29 29 30 31 31 32 32 31 30 30 30 31 32 34 35 35 37 39 42 43 44 44
16 16 15 14 28 29 29 26 33 37 38 38 37 36 34 37 36 34 33 31 29 28 28 28 29 30 30 29 29 28 27 27 27 29 30 31 31 33 34 36 39 39 36 35
23 16 9 14 28 32 32 23 37 36 36 37 37 34 32 35 34 32 30 29 27 27 27 27 28 29 28 27 26 26 26 25 26 28 28 29 29 31 33 35 35 34 30 29
22 20 19 24 32 35 21 23 35 36 39 38 38 36 34 32 31 30 27 26 26 26 26 27 27 27 26 26 25 25 24 24 24 26 27 27 28 29 30 31 29 29 27 27
24 21 16 33 33 23 35 36 34 33 35 32 31 31 29 28 27 26 24 24 25 25 25 26 26 25 24 24 24 24 24 23 22 23 24 24 25 26 27 28 27 26 26 26
24 23 32 33 32 32 39 38 35 34 33 31 30 29 28 25 25 24 23 24 24 24 24 25 25 25 25 24 24 23 23 22 21 22 22 23 23 24 24 24 24 24 24 24
31 33 32 32 32 32 31 30 35 34 33 32 28 27 25 24 23 22 23 23 23 23 23 23 24 24 24 23 22 22 21 21 21 21 21 21 22 23 23 22 21 22 21 21
31 33 34 34 33 32 30 30 29 29 29 28 26 25 23 22 21 21 21 21 21 21 21 21 22 22 24 22 22 21 21 21 20 20 21 20 22 22 22 24 22 20 21 22
26 30 31 28 30 31 28 27 27 25 24 24 23 22 22 20 19 18 18 18 18 19 19 19 20 20 21 22 22 21 20 20 19 20 19 19 19 19 20 21 22 22 22 21
29 31 29 28 27 28 25 25 25 25 25 23 22 20 19 18 19 18 17 17 16 16 17 18 18 18 19 20 20 19 19 18 18 17 17 17 16 15 13 14 16 18 19 20
30 32 28 27 24 24 21 20 20 19 19 20 19 18 17 16 16 16 16 17 16 15 16 16 16 16 17 18 17 16 15 15 15 15 15 14 13 12 11 11 10 10 14 16
24 25 24 23 22 21 20 19 18 17 16 16 17 16 15 14 13 13 15 15 14 13 13 14 14 14 16 16 15 16 15 14 14 13 13 12 12 11 10 9 8 8 8 8
24 23 23 22 21 20 19 17 16 15 15 14 14 13 13 12 11 11 11 12 10 10 11 11 12 13 14 14 14 14 14 15 14 13 12 11 10 9 8 7 6 5 5 6
25 23 22 20 19 18 18 18 17 15 15 14 14 14 13 11 10 9 8 8 8 8 9 10 11 11 12 13 13 13 13 12 12 12 11 11 10 9 8 7 6 5 3 4
20 20 20 19 18 17 16 16 15 14 13 12 10 9 8 7 6 6 5 5 6 7 8 9 11 11 12 12 12 12 11 12 11 10 9 8 8 7 6 5 4 3 3 1
18 18 17 16 16 15 14 13 12 11 10 9 7 7 6 5 4 3 3 4 4 5 7 9 12 10 10 12 10 9 8 8 8 7 7 5 5 5 3 2 1 0 0 -1
15 14 13 13 13 12 11 10 10 9 8 7 5 4 3 3 2 3 4 4 5 6 8 8 9 9 8 7 7 6 5 5 6 4 3 2 1 1 2 2 0 -1 -3 -4
11 11 11 11 10 10 10 9 9 8 8 6 5 4 4 3 2 2 3 4 6 7 7 5 5 6 6 5 4 2 3 2 2 1 0 -1 -1 -1 -2 -2 -2 -3 -3 -4
11 11 11 11 11 11 11 10 9 7 5 4 2 1 1 2 2 3 4 5 7 4 5 4 2 2 3 3 2 2 1 0 0 -0 -1 -2 -2 -2 -2 -3 -3 -4 -6 -7
12 12 12 11 11 11 10 10 7 5 4 4 5 5 4 5 5 1 -0 4 7 5 4 2 1 -0 -1 -0 -0 -0 -0 0 -0 -1 -2 -3 -4 -5 -4 -3 -4 -6 -5 -5
13 14 13 13 12 10 9 10 10 9 8 7 4 3 5 3 4 6 3 1 3 4 3 3 2 1 -0 -2 -3 -2 -1 -2 -2 -3 -3 -4 -5 -6 -5 -5 -4 -7 -7 -7
15 14 13 12 11 10 10 10 9 9 9 9 10 9 7 4 2 4 5 4 4 1 -1 -3 -0 -0 -1 -1 -3 -4 -6 -5 -3 -3 -3 -3 -4 -4 -5 -6 -6 -5 -6 -8
16 16 15 15 14 14 12 10 9 10 9 7 7 4 3 4 5 4 5 5 5 5 4 0 -2 -2 -1 -1 -1 -0 -1 -2 -4 -3 -3 -3 -4 -4 -5 -5 -6 -7 -8 -7
12 12 11 10 12 12 13 13 11 10 10 8 6 5 5 4 4 6 5 5 4 3 2 2 0 2 2 1 0 -1 -1 -1 -2 -2 -3 -4 -5 -4 -4 -4 -5 -7 -10 -9

GFSNGP_sfc_30mbdewp_075.txt.gz
Dewpoint
26 27 28 24 23 20 20 28 27 27 28 34 38 40 42 36 33 33 33 33 34 34 35 37 37 39 40 40 41 42 43 43 44 46 47 50 52 54 55 54 53 53 53 53
22 28 22 18 16 19 24 23 26 31 31 35 37 43 41 38 34 32 32 31 31 31 31 32 33 34 35 36 36 35 35 35 36 38 40 41 43 45 46 46 48 52 53 52
17 22 18 9 16 16 22 28 30 29 32 39 42 42 40 38 35 32 32 31 29 29 30 30 31 32 32 31 31 31 32 31 32 34 35 36 37 38 40 42 43 44 43 43
19 19 5 9 18 24 30 31 30 31 37 40 38 37 40 38 36 35 33 31 29 29 29 29 30 30 30 29 28 28 28 28 30 32 32 33 34 36 37 40 41 38 36 34
16 16 15 14 27 27 30 27 36 35 38 39 38 36 33 35 34 32 31 31 30 29 29 29 29 28 28 27 26 26 26 27 29 29 30 31 32 34 36 37 36 32 31 30
22 17 8 14 29 30 33 17 35 35 36 38 38 35 31 32 32 30 28 27 27 28 28 28 27 27 26 25 24 24 24 26 27 28 29 29 30 32 32 31 30 29 28 28
21 19 19 28 32 34 11 20 34 34 37 38 37 34 30 30 28 28 28 26 26 26 26 27 25 25 24 24 24 23 23 24 25 25 27 28 28 29 29 28 28 27 27 27
22 19 15 32 33 25 33 36 33 32 32 31 29 28 27 26 26 26 26 24 25 24 24 24 25 24 24 23 23 23 22 23 23 24 25 25 26 26 26 26 26 26 25 25
24 23 32 32 32 32 37 36 34 33 32 30 28 26 25 24 24 24 24 23 23 23 23 23 23 23 22 23 22 23 22 22 22 22 22 23 24 23 23 23 23 22 22 22
30 32 32 33 32 31 32 32 32 32 30 27 24 24 23 23 23 23 22 21 21 21 21 22 22 23 22 21 21 21 21 21 21 21 21 21 22 22 22 21 21 21 21 22
30 31 31 30 30 30 29 29 29 29 28 26 25 23 22 21 21 20 20 19 20 20 20 20 20 21 22 21 21 20 20 20 20 20 20 20 21 21 21 23 22 21 21 21
24 28 28 26 28 29 27 26 27 25 24 24 23 21 21 19 19 18 18 18 18 18 18 19 19 19 20 21 21 20 19 19 19 19 19 18 17 18 20 20 21 21 21 21
27 28 26 26 26 27 24 24 24 23 23 21 21 19 19 18 18 18 17 17 17 17 18 18 18 18 19 19 19 19 19 19 18 18 17 17 16 15 15 15 16 17 18 19
30 29 25 27 22 23 21 20 20 19 19 19 18 17 16 16 16 16 16 16 16 16 15 16 16 15 17 18 17 16 17 16 17 16 16 15 15 14 13 13 13 12 12 14
26 27 25 23 21 20 19 17 16 16 16 16 16 15 14 13 13 14 15 15 14 13 13 14 13 14 15 15 16 17 17 16 15 15 14 13 13 12 11 9 9 9 9 8
25 24 23 21 21 19 17 16 15 15 14 14 13 13 12 12 11 11 12 12 10 10 11 12 12 12 13 14 16 16 15 14 14 14 13 12 11 9 8 7 6 5 5 6
24 23 21 19 18 18 17 16 15 14 14 13 13 13 12 11 10 9 9 9 9 10 11 11 11 11 12 13 15 15 15 13 12 12 12 11 10 8 7 6 4 3 3 4
19 20 21 19 18 16 15 15 14 13 12 12 11 10 9 9 7 7 7 7 8 8 9 10 11 11 12 13 13 13 13 12 11 10 9 8 7 6 5 4 3 2 2 2
17 17 17 16 16 15 14 13 12 11 11 10 8 7 6 6 5 5 5 5 6 7 8 9 10 10 10 11 10 10 10 10 8 8 7 6 6 5 5 4 3 3 2 1
14 13 13 13 13 12 11 11 10 9 9 7 6 4 3 3 4 4 5 5 7 7 8 8 8 8 7 6 6 7 9 9 7 7 7 5 6 5 4 2 3 3 2 1
12 12 11 11 10 10 10 10 9 8 6 5 5 4 3 3 3 4 5 4 7 7 5 6 6 5 4 4 4 7 7 6 6 5 5 4 4 4 3 3 3 2 2 1
11 11 11 11 10 10 11 11 9 7 5 3 1 1 2 3 4 5 6 5 5 5 5 4 4 2 3 4 4 5 4 4 4 4 3 3 3 2 2 1 1 1 0 -0
12 12 11 11 10 10 9 7 6 5 4 4 5 5 5 5 4 2 2 6 6 5 4 4 1 -0 0 4 4 4 4 3 3 2 2 1 1 0 0 -0 -0 0 -0 -1
13 13 13 12 12 10 10 11 10 9 8 7 5 6 5 5 6 4 4 3 4 4 4 4 3 1 1 2 2 1 2 2 2 2 2 -3 0 -1 -0 -1 -1 -1 -1 -2
14 14 12 13 11 10 10 10 10 9 9 8 9 8 6 5 5 6 7 6 5 3 3 -1 0 -0 3 3 2 2 1 1 1 2 2 2 1 0 0 -1 -2 -1 -2 -3
15 14 14 15 15 13 11 10 9 9 9 8 8 6 5 6 6 6 7 6 6 6 6 5 4 2 3 3 3 2 3 3 2 1 1 1 1 0 0 0 -0 -0 -1 -2
15 13 12 11 11 12 13 13 12 11 11 10 9 8 7 6 7 7 6 7 7 6 5 4 4 4 5 5 4 3 3 3 1 2 2 1 1 1 0 -0 -0 -0 -2 -3

GFSNGP_sfc_30mbdewp_078.txt.gz
Dewpoint
27 28 28 20 18 18 22 23 21 15 16 21 30 36 39 34 35 34 33 33 33 34 35 36 37 39 40 39 42 43 42 43 43 44 46 47 49 49 53 54 54 54 54 54
24 26 23 20 17 13 16 21 20 21 23 29 36 41 38 35 36 34 32 31 31 31 32 33 34 35 35 36 36 36 36 37 38 39 40 41 42 43 45 46 47 45 45 43
20 21 17 12 12 15 17 19 26 25 27 34 36 40 38 37 34 34 31 30 30 30 31 31 31 31 31 32 32 32 33 34 35 36 36 37 39 40 42 42 40 38 38 38
16 15 5 16 18 21 23 24 30 28 36 39 38 37 37 37 35 33 33 32 30 30 30 29 29 29 28 27 28 29 30 30 32 33 35 36 38 39 40 37 35 34 33 33
14 11 9 9 24 24 24 23 33 33 34 39 36 34 31 33 32 30 30 30 31 30 30 28 27 27 26 26 26 26 27 28 29 31 32 34 35 35 35 34 32 31 30 30
18 10 6 22 26 27 26 18 33 34 35 37 38 35 28 30 30 29 29 30 28 28 27 27 28 26 25 25 25 25 26 26 28 29 30 31 32 32 32 31 30 29 29 29
17 13 14 27 29 30 14 25 34 34 33 36 37 30 27 27 27 29 29 29 29 27 26 25 26 26 25 24 23 25 25 26 27 28 29 29 30 30 30 29 29 29 28 27
19 17 14 32 31 26 33 36 34 32 30 27 27 26 26 26 26 27 28 27 25 24 24 24 24 24 23 24 24 24 24 24 25 26 26 27 28 27 28 27 27 26 26 26
23 26 32 33 32 33 35 35 34 32 30 27 26 25 25 24 25 26 27 23 23 23 23 23 22 22 22 23 23 23 23 23 23 23 24 24 24 25 25 25 25 25 25 25
30 28 30 32 31 31 32 31 30 30 28 27 24 24 23 23 23 24 25 21 21 21 21 21 22 22 22 22 22 22 22 21 22 22 22 22 22 23 24 24 24 24 24 24
28 28 30 29 30 29 30 29 29 30 29 27 26 25 24 22 22 22 23 23 20 20 20 20 21 21 22 22 21 21 21 22 21 21 21 21 22 22 21 23 24 23 23 23
26 29 28 26 29 29 28 28 29 27 26 26 25 22 22 21 21 21 20 20 20 20 20 20 20 21 21 22 22 22 21 22 22 21 21 20 19 18 20 20 21 20 21 23
27 29 27 27 27 27 26 25 25 25 23 22 21 21 20 20 20 21 20 19 19 19 20 20 20 20 21 22 22 23 23 22 21 21 21 21 21 21 19 17 16 16 18 18
30 30 26 27 24 24 22 21 20 20 19 19 18 18 18 18 18 18 18 18 17 18 18 18 18 18 20 21 21 21 21 21 22 21 21 21 20 20 19 19 18 17 13 13
28 29 26 25 23 20 19 18 18 17 17 17 17 16 16 16 16 16 16 16 16 16 16 16 16 17 18 19 19 20 21 20 20 19 18 18 18 16 15 14 13 13 13 12
27 24 22 21 19 18 18 17 16 16 16 15 15 15 14 14 14 14 14 14 13 13 13 14 14 15 17 19 19 19 17 16 18 18 17 16 15 12 11 10 9 9 8 8
24 22 21 20 19 18 17 16 16 15 15 15 14 14 13 13 12 12 12 12 12 12 13 13 13 14 16 17 18 17 17 16 15 15 14 13 12 10 9 8 7 6 5 6
21 22 21 20 18 17 16 16 15 15 15 14 14 13 12 12 11 11 10 10 10 10 11 12 13 13 14 14 15 14 14 13 12 11 11 10 8 8 8 6 5 5 5 4
18 18 18 18 18 16 16 15 14 14 13 13 11 10 10 9 9 9 9 9 9 9 9 10 11 11 11 12 11 11 12 12 10 9 8 8 8 7 8 7 6 6 5 4
16 16 16 16 16 15 14 14 13 12 12 10 9 7 6 6 7 7 8 8 8 8 9 9 8 8 7 7 8 9 10 10 8 9 9 8 9 8 6 5 5 6 6 5
14 14 13 13 12 13 12 12 11 10 9 8 7 6 6 6 6 7 7 6 7 7 6 6 5 4 3 4 4 10 9 9 9 8 8 8 7 6 6 6 5 5 4 4
14 13 13 13 12 12 13 13 10 9 7 5 4 5 5 5 6 6 8 6 5 6 5 4 4 4 4 5 6 7 6 6 6 6 6 5 5 5 4 4 3 3 3 3
14 14 13 13 13 12 10 10 9 8 7 6 7 7 6 5 4 4 3 5 4 6 4 5 4 4 5 6 6 6 5 5 5 4 4 4 3 3 3 2 2 2 2 1
14 14 14 13 12 11 10 10 9 9 9 8 7 8 5 6 6 4 5 6 6 5 5 5 5 5 5 5 4 3 3 3 3 3 3 1 3 2 2 1 0 1 0 -0
14 13 13 12 11 11 11 10 9 9 8 8 7 7 5 5 7 6 7 6 6 5 5 3 4 3 5 4 4 3 3 4 3 3 2 2 2 2 2 1 1 1 1 -0
14 13 14 15 14 12 11 10 9 10 10 10 10 10 9 7 6 7 7 7 6 6 6 6 6 6 5 5 4 4 4 3 3 3 3 2 2 2 2 1 1 1 1 1
15 14 12 11 10 10 11 11 11 11 12 12 10 10 9 8 8 6 6 6 6 6 6 6 6 6 5 5 5 4 4 4 4 2 2 3 2 2 2 1 1 1 1 0

GFSNGP_sfc_30mbdewp_081.txt.gz
Dewpoint
23 19 23 28 32 24 26 25 19 17 14 17 27 36 39 36 36 34 33 32 32 33 34 35 37 38 39 40 41 44 44 44 44 45 46 47 48 50 52 50 50 50 53 46
24 27 24 24 27 18 16 13 14 16 16 29 37 40 38 36 35 33 33 32 31 32 32 32 33 35 35 37 37 39 39 39 40 41 42 43 44 45 43 42 42 42 39 37
18 26 23 22 21 17 12 16 16 21 28 35 38 39 37 36 35 33 32 32 31 32 31 31 31 31 34 35 37 36 36 36 38 39 40 41 42 40 39 37 37 36 36 34
21 22 16 16 15 14 14 17 25 27 34 36 36 34 35 36 34 32 32 32 31 31 29 30 30 31 31 32 32 33 33 35 36 37 38 39 39 37 36 35 34 34 34 32
24 13 14 10 20 20 21 30 30 29 30 37 34 33 29 31 31 30 30 30 31 32 30 29 27 27 28 28 30 29 30 30 32 34 35 35 35 35 34 33 32 31 31 31
24 16 11 23 24 26 22 22 32 31 32 33 36 34 28 30 29 29 30 30 31 31 31 32 31 27 26 26 26 27 28 29 30 31 32 32 33 33 32 32 31 30 29 28
25 14 17 27 25 25 15 28 33 33 31 30 30 27 27 28 28 29 30 29 30 31 31 31 32 31 29 27 26 26 27 28 28 30 31 31 32 32 31 31 30 29 28 27
18 16 16 31 28 27 33 35 34 32 29 27 26 26 26 27 27 29 29 31 31 30 28 26 25 26 25 27 29 29 28 26 27 28 28 29 30 31 30 29 28 28 27 28
28 27 32 31 31 33 34 34 33 31 28 27 26 25 26 26 27 28 30 28 25 23 23 23 23 23 24 24 24 24 25 26 27 27 27 28 29 29 29 29 29 28 27 26
29 28 29 31 31 31 31 30 29 28 28 27 26 26 25 25 25 25 27 24 22 22 22 22 22 22 23 23 23 23 22 22 23 23 23 23 23 24 25 27 26 27 27 25
28 29 29 29 31 32 30 30 30 30 29 28 27 26 25 24 24 25 26 27 22 21 22 22 22 23 22 23 23 23 23 23 22 22 21 20 21 22 22 23 24 24 23 23
26 29 28 27 30 32 30 29 31 28 26 26 25 24 24 23 24 23 23 25 23 22 21 21 22 22 24 25 24 23 23 23 24 23 21 20 18 18 19 20 20 20 21 23
28 30 29 29 30 31 28 27 28 27 26 24 25 24 24 23 22 22 22 21 21 21 21 21 21 22 23 23 24 25 24 23 23 24 23 23 24 20 18 17 16 17 17 17
31 32 29 30 27 27 24 23 22 21 21 20 20 20 20 20 19 19 19 20 21 20 20 20 19 20 22 24 23 24 23 23 24 23 23 23 22 22 23 23 20 17 13 12
30 32 29 28 24 22 21 20 19 19 19 18 18 18 18 18 18 17 18 18 18 17 17 17 17 18 21 22 21 22 22 21 21 21 20 20 20 19 18 17 16 16 17 14
29 27 23 22 20 19 19 18 18 18 17 17 17 17 17 17 17 16 15 16 15 14 14 15 14 16 18 22 21 20 19 18 19 19 19 18 17 15 14 13 13 12 10 10
26 22 22 21 20 19 18 18 18 17 17 17 17 17 17 16 15 14 13 13 13 14 14 14 14 15 17 18 19 18 18 17 16 16 15 14 14 12 12 11 10 8 6 8
23 23 23 21 20 18 17 17 17 18 17 16 15 15 14 14 13 13 12 12 11 11 12 12 13 14 14 15 15 15 14 13 12 12 12 12 10 10 10 9 8 8 8 7
20 19 19 19 19 18 17 16 16 15 15 14 13 13 12 11 11 11 11 11 11 10 10 11 10 11 10 11 12 12 13 13 11 11 10 10 11 9 11 10 9 9 8 7
17 18 17 17 18 16 15 15 15 14 14 12 10 9 8 8 9 9 10 9 9 9 9 9 8 7 6 6 9 10 12 12 8 10 10 10 11 11 9 6 7 8 9 8
16 16 15 15 14 15 14 14 13 12 11 10 9 8 8 8 8 10 9 8 9 8 7 5 5 5 4 5 5 11 11 11 10 10 10 10 9 8 8 8 8 7 7 7
15 15 15 15 15 14 15 14 11 10 8 7 7 7 8 8 8 8 9 8 6 7 6 6 4 4 5 8 8 9 8 8 8 8 8 8 8 7 7 6 6 6 6 6
16 16 15 15 15 14 12 11 11 10 9 9 9 10 9 8 6 7 7 6 5 5 5 7 5 5 6 8 8 8 7 6 7 6 6 6 6 6 6 5 5 5 5 5
16 16 15 14 13 11 11 11 10 11 11 9 9 10 9 8 9 5 5 5 5 7 6 6 6 4 5 7 7 6 6 6 6 6 5 2 5 5 4 4 3 3 3 3
15 14 13 13 12 12 11 11 10 9 9 8 8 8 6 6 9 9 8 8 5 6 8 5 5 4 8 7 6 5 6 6 7 5 6 5 4 4 4 4 3 3 3 3
14 16 15 16 14 11 10 9 9 10 10 11 12 11 11 9 7 7 7 7 5 6 6 11 9 9 8 7 7 6 5 5 5 7 6 4 4 4 3 3 3 2 2 3
16 14 12 11 10 10 10 9 10 12 15 12 12 14 11 11 10 7 7 9 9 9 8 9 10 9 7 6 6 7 6 6 7 4 3 4 4 4 4 3 3 3 3 2

GFSNGP_sfc_30mbdewp_084.txt.gz
Dewpoint
21 20 19 24 31 28 27 32 24 23 18 32 37 39 37 36 35 33 32 32 32 32 32 33 34 36 38 39 41 45 46 45 46 47 48 49 48 47 47 47 45 45 42 40
15 17 18 22 23 28 30 34 32 29 20 39 41 38 37 36 34 33 32 32 32 31 31 32 32 34 35 38 39 40 41 42 42 43 44 43 42 41 40 40 39 37 35 35
15 14 18 22 19 19 22 29 22 22 34 35 36 35 35 34 33 32 32 32 31 31 31 31 32 33 33 34 36 38 39 40 41 42 40 39 38 37 37 36 35 34 33 32
20 19 14 18 17 17 18 30 34 29 34 35 34 32 32 33 32 31 30 30 30 31 31 31 31 31 32 32 33 34 35 37 39 39 39 38 36 35 34 34 34 33 32 31
20 19 23 17 17 18 19 32 31 30 30 35 33 32 29 30 30 29 29 30 30 31 31 32 31 30 30 31 32 32 33 34 35 36 37 36 35 35 34 33 32 31 31 30
20 18 19 30 29 24 22 28 33 31 31 30 34 32 26 29 29 29 30 30 30 31 31 31 31 31 30 30 31 31 32 33 33 34 34 34 34 33 32 31 30 29 27 28
21 21 28 30 31 25 17 27 32 31 29 28 27 26 27 29 28 30 30 30 31 31 31 31 31 31 29 30 30 31 31 32 33 33 33 32 32 32 31 30 29 28 27 26
22 24 21 30 29 27 31 33 31 29 27 26 26 26 27 28 29 30 30 30 31 30 31 32 32 32 30 28 30 30 30 31 31 32 33 33 32 32 31 30 29 29 28 28
26 24 32 30 31 31 31 31 30 29 28 26 26 25 26 26 27 28 31 31 31 30 28 25 27 28 27 29 31 31 31 30 29 30 29 28 27 29 29 30 29 27 26 25
29 28 28 30 30 30 30 29 29 29 28 28 26 26 25 25 26 26 28 29 28 25 23 23 23 23 23 24 23 24 23 23 22 22 23 24 24 24 23 27 26 27 26 24
28 30 29 27 31 30 31 30 30 30 29 28 27 26 25 25 25 25 26 27 27 26 24 24 24 25 27 24 25 24 24 23 22 21 20 20 22 22 21 23 24 23 22 22
25 29 28 27 30 29 29 30 31 28 27 27 25 25 25 23 24 23 23 24 24 24 24 23 23 24 25 27 26 25 25 26 25 22 20 19 18 19 20 20 20 20 21 21
27 31 29 30 31 32 29 28 29 28 28 26 26 25 24 23 23 23 22 22 21 22 22 22 22 23 26 26 25 26 26 25 25 25 25 26 22 19 17 16 15 15 16 17
31 31 29 30 28 31 28 26 23 21 21 21 21 21 21 21 22 21 21 21 21 21 20 20 20 20 24 24 26 25 24 24 25 25 24 24 24 24 23 22 18 16 14 14
30 32 30 30 26 24 23 21 20 19 19 20 21 21 20 20 20 20 22 20 19 17 17 17 17 19 21 24 21 21 24 25 23 23 23 23 21 20 19 19 19 18 19 16
30 32 28 24 21 20 20 20 19 19 18 18 18 18 18 18 17 16 15 16 15 14 15 15 14 16 19 20 24 21 19 19 21 21 20 19 18 17 16 16 14 12 11 12
29 28 25 21 20 20 19 19 20 18 18 20 21 20 17 16 15 14 13 14 14 15 14 15 16 15 16 18 20 20 19 17 17 17 16 16 15 14 14 14 12 9 8 9
23 24 24 23 21 19 19 18 17 16 16 16 16 16 15 14 14 14 13 13 13 12 13 13 13 14 14 15 16 16 15 14 14 14 14 14 13 13 13 12 11 11 10 8
21 21 20 20 20 19 17 16 16 16 17 16 14 12 12 12 12 13 13 14 14 11 12 12 12 11 9 11 13 15 15 15 13 14 12 13 14 14 14 12 12 11 11 10
20 19 19 18 18 16 16 17 16 15 14 12 11 10 10 10 11 11 11 9 10 9 10 9 10 7 7 6 10 14 15 14 10 11 11 15 16 14 7 6 9 12 11 11
17 17 16 16 16 16 16 16 14 12 11 11 10 9 9 9 10 12 15 14 9 9 9 7 4 5 5 8 10 14 13 12 12 12 13 13 12 11 11 10 10 10 10 10
17 16 16 17 16 16 16 14 12 10 9 8 8 9 10 11 10 9 9 9 8 5 9 8 4 4 7 9 12 12 10 11 12 12 13 11 11 11 10 9 9 9 8 9
17 17 17 18 16 14 13 13 12 11 10 11 11 11 9 8 7 8 13 8 7 6 12 7 4 4 4 12 12 11 10 9 9 9 10 10 10 10 9 9 5 6 7 9
18 18 16 15 14 13 13 12 12 12 11 11 9 9 11 11 14 8 7 3 6 4 7 6 4 2 3 13 10 9 9 9 10 10 9 4 9 8 8 7 5 5 6 5
16 15 15 15 13 13 12 11 10 10 10 8 8 9 9 8 9 14 12 11 5 6 13 4 3 2 8 10 9 8 8 9 10 5 5 7 7 7 7 7 7 7 6 3
15 17 16 15 15 12 11 11 10 13 13 10 15 14 13 11 10 7 11 6 6 7 7 12 12 9 9 8 12 8 7 7 7 10 10 7 6 6 7 6 5 5 4 5
16 14 13 12 10 10 12 10 12 16 18 18 15 19 14 13 13 9 8 10 13 14 13 11 13 13 10 8 7 7 8 9 8 9 6 5 4 6 6 7 6 6 6 5

GFSNGP_sfc_30mbdewp_087.txt.gz
Dewpoint
18 16 16 17 25 22 26 30 29 31 31 37 38 37 36 34 33 32 32 31 31 31 32 32 33 34 35 38 40 44 47 48 47 48 47 47 47 46 45 44 43 42 40 40
18 19 20 14 15 18 23 30 32 33 33 39 39 37 34 33 33 32 31 31 31 31 31 31 32 33 34 35 37 41 42 43 44 43 42 41 41 40 40 38 37 36 35 36
13 18 20 18 19 19 25 31 31 29 35 36 34 32 33 33 32 31 30 30 30 30 31 31 31 32 32 34 35 36 39 40 40 39 38 37 37 37 36 35 34 34 34 34
18 19 13 14 24 26 33 34 35 36 34 34 31 30 30 31 30 29 29 29 29 30 30 31 32 32 32 32 33 34 35 37 38 37 37 36 35 34 34 33 32 31 31 32
17 18 20 19 31 30 30 30 31 30 31 33 31 29 27 29 29 29 29 30 30 31 31 31 31 32 32 32 32 32 32 33 36 36 35 34 34 33 32 31 30 30 30 30
21 17 14 28 32 32 33 26 31 29 29 29 33 29 24 28 29 29 30 30 31 31 31 30 30 31 31 30 31 30 31 31 33 34 35 34 33 32 31 30 29 28 28 29
21 16 23 30 30 31 24 25 29 28 26 26 23 25 27 29 29 30 30 31 32 32 30 30 31 31 29 29 28 30 31 31 32 32 32 33 33 32 30 29 28 27 27 27
21 20 18 29 29 24 30 31 28 27 26 25 25 26 26 27 27 30 30 30 31 31 31 32 32 30 29 28 30 31 30 30 29 29 29 31 31 31 31 30 28 27 27 26
25 23 30 30 29 31 31 31 29 27 26 25 25 25 25 25 26 28 30 29 30 29 29 29 31 29 28 29 30 28 26 25 25 26 26 26 26 28 29 29 27 25 24 23
27 27 27 30 31 31 32 30 28 28 27 25 24 24 24 24 24 24 26 27 27 25 24 25 27 29 28 26 26 26 24 24 24 23 23 24 23 24 24 25 24 24 22 21
27 28 28 28 30 31 31 30 29 29 27 27 25 25 24 23 23 24 24 24 24 24 23 24 25 26 27 27 26 23 22 21 20 20 21 21 22 22 22 24 22 21 21 21
22 27 26 27 30 30 29 29 29 26 26 26 24 23 23 22 22 22 22 22 22 22 22 22 23 25 26 26 27 26 26 25 22 20 19 18 18 18 20 21 21 21 20 20
26 30 29 30 30 30 28 28 28 27 26 24 24 23 23 22 22 22 21 21 20 19 20 20 20 22 24 26 25 25 25 26 25 26 23 19 17 16 16 16 16 18 19 19
32 31 27 29 27 28 25 23 22 22 23 24 23 22 22 21 21 20 20 20 19 18 18 19 19 19 21 24 25 24 23 23 24 24 24 23 23 19 18 15 14 14 16 16
30 31 29 29 27 27 25 21 20 20 21 21 22 21 19 17 17 18 21 18 16 15 15 15 16 16 19 22 20 20 24 21 21 21 21 19 18 19 19 17 15 14 14 15
31 28 25 22 20 20 21 20 19 19 20 20 19 18 17 17 16 16 16 16 14 14 15 15 13 14 16 18 22 17 17 19 19 19 17 17 17 17 14 12 9 9 9 9
29 26 26 21 20 21 21 20 20 20 17 17 19 18 16 16 14 12 13 14 13 12 12 12 13 13 13 13 16 19 16 17 16 16 16 14 14 14 13 9 5 7 8 9
25 23 23 21 20 19 18 17 16 16 16 16 15 14 13 13 12 13 12 12 11 10 11 11 13 10 9 12 15 17 15 14 13 12 11 14 15 13 13 12 9 7 9 10
22 22 21 21 19 17 17 16 16 16 14 11 10 10 10 10 11 10 11 12 10 8 8 8 13 8 9 11 14 16 14 15 15 15 17 13 11 10 12 11 10 10 10 10
19 18 18 18 17 16 15 14 14 12 11 10 9 8 9 9 10 10 6 5 8 8 9 6 7 8 9 9 11 15 14 15 11 12 11 13 9 5 6 10 11 10 7 7
17 16 15 13 14 14 14 12 11 9 9 9 8 8 6 7 8 10 10 10 7 7 10 6 3 3 8 9 12 11 11 12 11 11 11 12 9 10 9 8 9 9 9 8
15 15 15 16 14 13 12 10 8 7 6 6 7 8 8 8 7 6 8 9 6 9 8 4 3 1 5 10 11 8 8 9 9 10 9 9 10 11 10 8 8 8 9 8
16 16 16 16 12 12 11 10 9 8 9 10 9 9 10 9 8 11 8 7 7 11 6 2 -0 -0 4 10 8 7 11 7 7 9 7 5 8 4 6 4 3 8 6 2
18 18 14 13 12 12 11 11 12 12 10 8 4 5 9 8 14 9 6 4 2 4 7 4 0 -2 1 9 8 6 6 8 9 5 5 8 9 7 7 6 3 3 5 6
16 15 14 14 15 15 14 13 13 13 12 12 11 9 9 9 9 12 10 8 4 4 9 4 1 1 3 8 9 6 6 9 6 2 2 3 5 6 7 7 8 6 4 0
16 16 17 16 14 14 15 13 15 16 16 15 13 12 11 10 8 7 7 8 8 7 6 7 4 4 5 6 10 9 7 7 5 8 7 7 7 7 8 8 6 4 3 3
18 15 13 13 13 12 10 11 13 13 11 9 10 16 16 13 10 11 9 11 9 10 11 10 10 11 9 8 4 4 5 7 8 8 6 4 2 1 2 5 6 6 7 5

GFSNGP_sfc_30mbdewp_090.txt.gz
Dewpoint
20 21 20 19 19 16 15 20 25 28 31 35 37 36 34 33 32 31 31 31 31 30 31 32 33 33 34 36 39 43 46 47 47 48 48 48 47 46 44 43 42 42 42 42
9 15 17 17 20 19 16 16 20 25 32 34 36 35 33 32 31 30 30 30 30 30 30 30 31 32 34 35 36 40 40 41 42 43 42 41 41 40 39 38 38 38 38 39
8 16 18 15 19 19 15 24 30 28 34 35 31 29 29 30 30 29 29 29 29 29 29 30 30 32 33 34 35 36 38 38 38 38 38 37 37 36 35 34 35 35 36 35
16 18 12 18 32 30 31 32 33 33 34 32 28 28 28 29 28 28 28 28 29 29 30 30 31 31 33 33 34 34 34 36 35 35 35 34 34 33 32 32 32 32 34 34
16 15 15 18 30 28 26 27 31 30 33 31 28 27 26 28 29 28 29 30 29 30 30 30 30 31 31 31 32 32 32 32 34 33 32 32 30 30 30 30 30 30 31 32
21 16 13 25 28 32 32 23 30 29 27 30 30 28 23 28 29 29 30 31 30 30 30 29 30 31 30 29 29 29 30 31 32 32 32 31 30 29 29 29 28 28 29 30
20 18 20 27 30 32 23 22 27 26 25 26 24 25 27 29 29 30 30 30 31 31 30 30 31 30 28 28 27 29 30 30 30 31 31 31 31 30 29 28 27 27 27 28
23 19 17 28 27 23 28 30 26 25 24 23 25 26 26 27 29 29 29 29 29 27 27 30 31 30 28 26 27 27 27 27 27 27 28 29 30 30 29 28 26 26 26 26
23 21 28 29 28 30 31 29 28 26 26 24 23 23 23 23 24 26 27 26 27 25 25 26 28 30 27 28 28 26 25 24 24 25 25 26 26 26 27 26 25 24 24 24
25 26 27 29 30 30 30 27 27 26 24 23 22 22 21 22 22 22 24 24 24 23 23 24 27 28 25 24 26 25 24 23 24 23 23 23 24 25 24 24 23 23 22 22
24 26 27 27 28 30 28 28 27 27 25 25 23 22 21 21 21 21 22 22 22 22 22 23 25 26 27 30 27 24 23 23 22 22 22 22 23 23 22 23 23 21 21 22
20 26 25 26 28 29 29 26 25 23 23 23 22 21 20 20 21 20 20 20 19 20 20 20 21 23 25 27 27 26 23 20 20 19 18 18 18 20 22 22 21 21 21 22
26 29 28 29 29 28 27 26 25 24 23 22 22 22 21 20 21 20 19 19 18 18 19 19 20 20 22 25 25 25 25 25 24 20 18 17 16 16 17 19 20 22 22 21
32 29 26 29 26 27 25 24 24 24 23 22 22 22 21 20 19 18 18 18 17 17 17 17 17 18 20 23 24 22 22 22 22 23 23 19 17 16 15 15 15 15 18 21
30 30 27 28 29 24 21 21 21 21 21 20 19 18 17 16 16 17 17 16 14 15 15 15 15 15 17 19 20 22 22 22 20 19 19 20 20 17 16 14 13 13 14 14
31 29 25 23 22 23 20 20 20 20 19 19 17 17 16 15 15 15 15 14 12 12 13 12 12 12 13 17 19 17 17 18 17 17 17 18 16 14 11 10 10 10 11 10
28 26 23 23 21 20 20 20 19 18 18 18 17 16 15 12 11 12 12 12 11 10 10 10 11 10 12 15 17 16 16 15 15 15 15 16 14 11 8 9 9 11 11 10
25 25 25 22 19 18 17 17 16 16 16 15 13 12 11 11 11 11 11 9 7 7 7 10 11 9 11 15 17 16 14 14 14 14 15 14 14 12 8 9 10 10 10 10
21 21 20 18 18 17 16 15 14 13 11 11 10 10 9 8 9 10 12 9 6 6 6 6 10 10 11 13 15 16 15 14 16 15 13 11 12 12 10 9 9 9 9 8
17 17 17 16 16 14 13 12 11 9 8 7 7 7 8 9 8 5 4 4 7 7 7 3 4 8 11 11 12 13 14 13 13 14 13 6 7 10 11 10 9 8 7 6
15 14 13 13 13 12 11 10 10 10 8 7 6 4 4 6 6 9 9 6 5 9 7 4 2 5 9 10 10 9 11 11 10 11 11 11 11 9 8 10 10 9 7 7
12 12 13 12 11 10 9 6 6 5 5 5 6 7 8 8 5 8 8 7 8 9 5 1 1 2 8 8 9 8 7 8 9 9 9 10 9 8 8 8 8 7 7 5
14 14 13 11 10 9 8 7 5 4 8 9 9 8 9 9 10 7 7 8 10 8 4 0 -2 -1 5 8 6 7 7 8 8 5 4 5 5 6 6 4 6 7 6 5
15 16 14 11 11 10 9 9 9 10 9 9 5 6 11 12 9 11 8 4 2 9 7 2 -0 -2 2 9 5 4 6 8 5 2 2 6 7 5 4 3 3 4 2 2
17 14 13 12 13 13 14 12 12 13 11 10 10 7 7 11 8 9 5 5 4 2 5 4 2 0 0 4 8 7 5 7 5 2 1 1 5 6 7 7 6 3 4 3
15 14 14 15 17 18 16 15 15 15 15 14 14 12 10 10 10 11 9 8 7 6 6 6 4 2 2 3 6 8 6 5 5 5 6 4 5 4 5 6 6 6 5 2
16 18 18 15 13 11 12 13 12 11 9 7 7 10 15 13 10 6 8 8 7 5 6 5 6 8 9 8 6 6 2 3 6 9 8 8 6 4 0 2 4 5 6 5

GFSNGP_sfc_30mbdewp_093.txt.gz
Dewpoint
19 20 16 14 14 15 17 17 16 16 21 24 33 33 33 32 31 30 29 29 30 29 30 31 31 33 34 36 38 41 41 42 44 47 49 49 49 47 46 45 45 45 44 43
15 12 9 15 17 17 18 17 17 16 15 35 34 34 31 30 29 28 29 29 29 29 30 30 30 31 33 34 36 38 37 37 39 39 40 40 41 40 40 39 39 40 39 38
8 15 17 12 19 27 20 17 20 17 25 33 30 28 27 28 28 28 28 28 28 29 29 30 30 31 31 32 34 35 35 35 34 35 35 35 35 35 35 36 36 36 35 34
13 13 6 16 30 30 29 29 32 33 32 31 28 27 28 28 27 27 28 27 28 29 29 29 30 31 31 31 31 32 32 33 34 33 32 32 32 32 32 33 33 33 33 32
12 15 14 18 27 26 25 26 29 30 30 28 28 26 25 28 28 28 29 29 29 30 30 29 29 30 30 30 29 29 30 30 32 33 32 31 30 29 30 30 30 30 32 31
20 15 12 22 26 29 30 22 28 28 27 31 28 27 23 28 29 29 30 30 30 30 30 30 30 29 28 27 26 27 28 29 30 31 31 30 29 29 29 29 28 28 29 30
18 17 18 25 28 31 20 21 26 25 25 27 23 25 27 29 28 29 28 28 27 27 28 29 29 27 25 25 24 26 27 28 28 29 30 30 30 29 29 28 27 27 27 28
21 19 16 27 27 21 26 28 27 25 25 24 25 25 25 25 26 26 25 25 25 26 26 27 27 26 25 24 26 26 26 25 25 26 27 28 28 27 27 27 26 26 26 26
21 20 28 28 27 29 30 28 27 25 25 23 22 21 21 21 22 23 24 24 23 24 24 26 27 24 24 25 25 24 24 24 24 24 25 26 25 25 25 25 25 24 24 24
24 25 25 28 28 29 28 26 26 26 24 22 20 20 20 19 20 19 20 21 22 22 21 22 25 27 26 25 24 23 22 23 23 23 23 24 24 24 23 23 23 23 23 23
24 26 27 27 28 28 27 27 26 26 24 22 20 20 20 19 19 18 19 19 20 20 20 21 23 24 26 28 25 23 22 22 22 21 22 23 23 23 23 24 24 22 23 24
19 26 25 25 28 29 26 25 25 23 21 22 20 19 19 19 19 18 18 18 18 18 18 19 20 21 23 26 27 23 20 20 20 19 20 20 21 23 26 26 26 26 26 26
25 28 28 28 28 28 25 25 24 23 21 21 21 20 19 19 19 18 17 17 16 16 17 17 18 18 20 24 24 24 25 23 20 19 18 18 18 18 17 19 21 25 23 23
31 28 26 28 26 28 26 24 22 22 22 22 20 19 19 18 17 17 16 17 16 15 15 15 15 15 17 20 22 22 21 22 22 21 17 16 16 16 16 15 15 16 20 22
30 30 27 27 23 22 22 22 21 20 19 18 18 17 16 15 15 15 16 13 13 12 12 12 11 12 14 18 18 20 20 19 19 20 20 18 16 15 14 14 14 14 14 13
30 28 25 28 24 20 20 20 19 19 18 17 16 16 15 15 14 13 13 12 10 9 10 9 9 11 14 16 17 16 17 17 17 18 18 16 15 13 12 11 12 10 10 10
24 23 23 22 21 20 20 19 19 19 18 17 16 14 12 11 11 10 9 8 6 7 8 9 7 10 13 15 16 15 14 14 15 16 16 14 10 7 10 11 11 10 10 9
26 27 25 22 20 19 18 17 17 17 16 15 13 11 10 10 10 9 10 5 5 5 4 5 10 10 12 15 16 16 14 14 15 15 15 13 10 9 10 11 11 10 9 8
23 22 21 19 18 17 16 15 14 13 11 10 10 9 8 7 8 9 9 5 6 5 5 2 9 11 11 13 14 14 14 15 14 13 13 13 12 10 9 9 9 9 9 8
19 18 17 17 15 14 13 11 10 9 7 7 7 7 8 8 4 4 3 6 6 7 6 3 4 10 11 11 11 12 13 12 13 12 8 9 9 9 9 10 9 7 6 6
15 14 13 12 11 10 9 8 7 7 6 4 4 4 6 5 4 7 9 5 4 8 6 2 1 7 10 9 9 9 10 10 11 10 9 9 7 9 9 8 8 6 6 4
12 11 11 11 10 9 8 7 7 6 6 4 5 5 7 6 5 7 7 9 7 8 3 -0 -0 3 8 8 8 6 8 9 9 9 9 9 8 8 8 8 8 7 7 6
12 11 10 10 9 7 5 4 3 3 5 8 9 8 8 9 9 7 7 7 9 8 5 1 -1 -2 5 5 4 5 7 7 6 5 6 7 7 7 7 7 7 6 6 6
13 12 11 10 9 8 5 6 6 7 7 8 7 6 9 10 10 11 10 7 4 4 7 5 1 -1 0 6 5 3 5 6 4 0 1 4 4 3 3 3 5 3 1 1
15 14 12 10 11 11 12 11 10 11 12 10 10 9 5 9 9 8 6 4 4 2 2 4 4 2 -1 0 4 6 5 4 5 2 1 0 3 4 4 3 3 2 2 2
15 14 12 13 14 15 15 16 13 13 14 13 13 13 13 10 11 11 9 6 5 6 4 3 4 4 2 1 1 3 6 6 4 5 3 4 2 3 3 4 4 5 5 3
16 15 15 16 16 15 16 15 14 13 12 9 6 6 9 12 10 12 10 7 7 6 6 5 4 5 5 5 6 6 5 4 2 3 6 7 6 6 5 4 1 3 4 4

GFSNGP_sfc_30mbdewp_096.txt.gz
Dewpoint
17 19 17 15 9 6 11 13 12 4 8 13 25 32 32 32 31 30 29 29 29 29 29 30 30 31 32 33 35 37 36 36 37 39 41 46 51 49 48 48 47 46 45 43
15 15 14 10 13 15 16 17 17 17 16 21 34 33 29 29 28 28 28 28 29 29 29 29 30 30 31 31 33 34 35 35 35 35 36 36 39 41 41 40 40 39 38 38
6 15 9 -2 12 26 26 27 27 19 18 31 29 27 26 27 27 27 27 27 28 28 28 29 29 30 30 30 31 32 32 33 34 34 33 33 33 35 36 36 36 35 34 34
11 10 -13 17 29 29 27 28 28 29 31 33 27 27 27 28 27 27 27 27 28 28 28 29 29 29 29 30 30 29 30 31 32 33 33 33 32 31 32 32 32 32 32 32
8 13 10 19 26 24 24 23 27 27 29 27 27 26 25 28 28 28 28 29 29 29 29 29 28 27 27 27 28 28 28 29 30 31 31 31 31 30 30 29 29 30 30 31
18 13 9 21 24 28 29 20 26 26 27 27 27 25 21 27 28 27 28 27 27 28 28 28 28 27 26 25 25 25 26 27 29 29 29 28 29 29 30 29 29 29 29 29
17 16 18 24 26 29 19 18 25 25 25 29 22 24 26 26 25 26 26 26 26 27 26 26 26 26 24 24 23 25 26 26 26 27 28 28 28 28 28 28 28 27 27 28
19 17 15 26 24 19 24 27 26 25 24 23 23 22 22 22 22 22 23 23 24 25 25 26 25 24 23 23 24 24 24 24 24 25 25 26 26 26 27 26 26 26 25 25
21 19 27 27 26 27 28 26 25 24 24 22 20 19 19 19 19 19 21 21 23 23 23 24 26 25 23 24 24 23 23 23 23 23 24 24 23 23 23 24 25 25 24 24
23 24 25 27 27 27 26 24 24 23 22 21 18 18 17 17 17 17 18 19 20 20 20 21 23 24 27 25 24 23 22 22 22 23 23 23 23 23 23 23 23 23 24 24
23 25 26 26 27 27 26 25 23 23 22 21 19 18 18 17 17 17 17 18 18 18 19 19 21 21 24 26 23 21 21 21 21 21 22 22 24 24 23 26 25 24 25 25
19 25 23 25 28 28 25 24 24 21 20 21 19 18 18 17 18 17 16 16 16 16 16 17 18 19 20 24 25 24 20 19 19 20 20 20 20 20 25 26 26 27 27 26
24 27 26 27 27 26 24 23 23 21 20 19 20 19 18 18 18 17 16 15 15 14 14 14 15 16 17 20 22 22 23 23 20 18 19 19 18 18 17 20 22 25 25 24
28 27 25 27 24 25 23 22 22 22 20 20 19 19 17 16 16 15 16 16 14 13 11 11 13 14 14 17 19 19 19 20 17 16 16 16 16 16 16 15 15 15 18 20
29 29 27 26 24 23 23 21 19 18 18 18 17 17 16 15 14 14 14 11 11 10 9 10 12 13 13 15 16 16 17 18 18 17 16 15 14 14 14 14 13 12 12 11
29 28 27 25 22 21 21 20 19 18 18 17 16 15 15 13 12 11 10 9 8 8 8 8 10 11 13 14 14 14 14 16 18 17 15 14 13 12 12 12 11 10 9 10
24 23 25 23 22 21 20 19 18 18 17 16 15 13 12 10 9 8 6 5 4 3 2 5 9 10 12 14 15 13 13 14 16 15 13 10 7 10 11 11 10 9 9 9
25 24 23 22 21 19 18 18 18 17 15 14 11 9 9 9 9 9 8 4 4 4 3 1 10 10 11 14 15 15 14 15 14 14 13 9 9 11 11 11 10 9 8 7
25 23 22 20 19 17 16 15 13 12 10 9 9 9 6 5 6 7 4 5 5 6 6 3 9 11 10 12 13 13 14 13 12 12 13 12 9 10 9 9 9 8 8 7
19 18 17 16 15 14 12 11 10 8 6 7 6 7 7 6 4 4 3 4 5 7 5 3 5 10 10 9 10 11 11 10 11 10 9 9 8 7 9 9 8 7 6 5
15 14 12 11 10 9 8 7 6 6 4 4 6 7 7 4 4 5 9 8 5 8 4 0 3 8 9 8 8 8 9 9 9 9 8 7 8 8 8 8 7 6 5 4
11 10 9 9 9 8 6 6 6 6 4 3 3 4 5 6 5 6 6 8 7 7 2 -0 -1 2 7 7 7 6 7 8 7 8 8 8 6 6 6 5 6 6 5 4
10 10 9 9 9 6 4 4 4 3 5 7 8 7 7 8 9 7 6 8 9 8 7 3 0 -3 3 4 3 4 6 6 5 5 4 4 5 6 6 6 5 5 5 4
11 11 10 8 6 6 1 4 4 6 7 7 7 5 7 10 9 10 10 9 5 2 3 4 4 2 -2 0 4 4 3 4 4 1 -0 -1 2 1 2 3 4 3 3 2
12 11 10 9 9 9 10 8 9 10 12 11 11 10 8 7 8 8 8 6 4 5 4 1 2 3 2 0 -0 1 2 3 3 2 3 1 1 3 4 4 4 4 2 2
14 12 10 11 12 13 14 14 12 13 13 13 13 11 10 11 12 11 12 10 6 6 5 5 4 3 2 2 2 2 2 3 4 4 3 3 1 1 2 2 2 2 3 3
15 14 12 14 16 16 17 16 14 12 12 11 5 5 6 7 10 10 12 11 8 8 8 7 7 7 7 6 6 5 4 4 4 4 3 2 2 4 3 3 3 2 -0 2

GFSNGP_sfc_30mbdewp_099.txt.gz
Dewpoint
15 18 18 17 14 12 9 8 6 -4 3 9 11 19 31 30 29 27 27 28 28 28 29 29 29 30 30 31 32 33 34 35 36 37 37 38 43 44 54 53 51 49 47 45
14 16 16 12 11 10 9 11 14 17 20 23 24 31 30 29 28 28 26 27 27 27 27 28 28 29 29 30 30 31 32 33 35 35 35 35 35 38 38 42 41 41 40 39
3 13 10 3 10 10 20 24 24 22 23 27 30 28 27 27 27 27 26 26 27 27 27 28 28 28 28 29 30 29 30 31 32 34 34 34 33 33 33 34 35 34 34 34
7 12 -6 22 26 27 25 25 27 26 29 30 28 27 27 28 27 27 27 26 27 27 27 28 28 27 27 28 28 28 27 29 30 31 32 33 33 32 32 31 32 32 32 33
10 11 10 23 25 23 23 22 25 24 28 26 26 25 25 28 28 26 26 26 27 27 27 27 27 27 26 25 26 26 26 27 28 29 28 30 31 31 31 30 29 30 31 31
17 12 8 20 22 25 28 19 24 24 24 25 26 23 21 25 26 25 26 26 26 27 27 25 26 26 24 24 24 24 25 26 27 28 27 27 28 29 30 30 28 29 29 30
16 16 18 24 25 26 18 18 24 24 23 28 21 23 23 24 23 24 25 25 25 25 25 27 26 25 24 23 23 24 26 25 26 27 27 27 27 28 28 27 27 27 26 27
17 16 14 25 22 18 23 26 25 24 23 21 21 21 21 21 20 22 22 23 23 23 23 24 26 24 23 23 25 24 24 25 25 25 26 26 26 26 27 28 26 26 25 24
21 19 26 27 25 26 27 24 24 23 23 22 19 18 18 18 19 19 21 21 21 21 21 22 23 24 23 24 24 23 23 23 25 25 25 26 26 25 25 26 26 26 25 25
23 24 25 26 27 26 26 23 24 23 22 21 18 18 17 17 17 17 18 19 19 19 19 20 22 23 24 23 21 22 22 22 23 23 24 25 24 25 25 25 25 25 25 25
23 25 26 26 26 26 25 24 23 23 22 20 18 18 17 17 17 17 17 18 18 18 18 19 20 21 22 24 23 18 19 21 21 21 21 21 24 25 25 27 26 25 25 25
20 25 24 25 27 27 24 23 23 20 19 19 18 17 17 17 17 17 16 16 16 16 16 17 18 19 20 21 22 22 20 17 20 20 20 19 20 21 23 26 26 25 24 25
24 28 26 26 26 25 22 22 21 20 19 18 18 17 17 17 17 17 16 15 14 13 14 15 16 16 16 19 20 21 20 17 15 18 19 19 19 19 19 20 20 22 23 22
27 25 24 25 23 23 21 21 20 19 18 18 18 17 16 15 15 13 14 14 12 12 13 14 14 14 15 17 18 19 21 18 17 17 17 18 18 19 18 18 17 17 16 18
27 28 27 25 24 22 21 19 18 17 17 17 16 15 14 13 12 11 10 9 9 9 10 12 13 13 14 15 16 17 20 20 19 18 17 16 17 17 16 14 13 14 14 13
28 26 24 22 22 21 20 18 17 17 16 16 15 14 11 10 9 8 7 6 5 5 6 9 11 11 13 15 17 16 17 17 18 18 16 14 14 14 14 13 12 11 11 12
25 24 24 22 21 20 19 18 17 17 16 15 14 12 9 9 9 8 7 6 4 3 4 6 10 10 12 14 17 16 16 17 16 16 13 12 12 13 13 12 11 10 10 10
25 25 26 23 22 20 19 18 17 16 15 14 11 10 9 10 10 8 5 5 6 7 6 3 11 12 12 15 15 16 16 15 15 15 13 12 12 12 12 12 10 9 9 7
24 23 23 22 20 18 17 16 14 13 11 10 9 9 8 7 7 6 4 5 7 8 7 5 10 11 11 12 13 14 14 14 14 14 15 13 12 12 12 12 11 10 9 8
21 20 19 17 16 15 13 12 11 9 7 8 6 6 6 6 5 5 5 6 7 8 6 4 8 10 10 9 9 10 12 12 12 12 12 12 13 13 12 11 11 10 10 9
16 15 13 12 10 10 9 9 8 8 6 6 7 8 7 5 5 6 10 8 8 9 3 2 3 8 8 8 7 10 10 10 10 10 10 10 11 11 12 11 11 11 10 9
12 11 10 9 9 6 5 6 5 4 3 3 2 3 5 7 6 7 7 9 9 7 4 4 2 2 7 7 7 9 8 9 9 8 8 8 9 9 9 9 9 10 9 9
10 10 9 9 9 8 7 7 5 4 6 8 8 8 9 10 11 9 7 9 9 8 7 8 3 -1 1 9 9 8 8 8 8 8 7 6 6 7 8 8 8 8 8 8
10 10 9 7 5 5 2 4 5 7 8 8 7 7 8 11 12 11 12 10 6 6 7 7 7 4 1 6 6 7 8 8 8 8 8 5 7 6 7 7 7 8 7 6
12 10 7 8 6 5 7 8 9 11 11 12 12 12 10 10 11 11 12 12 7 7 10 6 3 3 7 7 7 7 7 8 8 8 8 7 7 7 7 8 7 7 7 7
11 8 9 11 12 12 12 12 12 14 14 14 13 9 10 10 13 13 13 12 11 9 11 11 9 9 9 9 8 8 7 7 7 7 7 7 7 6 7 7 7 7 7 7
13 11 12 13 15 16 17 16 15 14 13 11 8 9 8 10 11 12 12 13 12 11 10 10 9 8 8 8 8 8 8 8 7 7 7 7 6 7 6 6 7 7 6 5

GFSNGP_sfc_30mbdewp_102.txt.gz
Dewpoint
11 12 11 11 11 9 6 4 2 -4 -4 -0 13 23 25 30 29 29 29 29 28 28 28 29 29 29 30 30 30 31 32 32 34 36 37 37 37 39 43 51 56 55 52 51
7 10 10 8 6 6 6 5 2 3 7 22 26 30 30 30 29 28 28 28 27 27 28 28 28 28 28 29 31 30 30 30 32 33 35 36 35 34 35 36 39 43 44 44
-4 7 6 -0 7 5 4 8 16 17 22 25 26 32 28 28 27 27 27 27 27 27 28 28 28 28 28 30 31 29 28 28 30 31 32 33 34 34 33 33 33 34 37 36
2 7 5 21 25 26 24 23 27 25 24 27 29 29 28 28 27 26 26 26 26 27 27 27 28 28 28 28 29 29 28 28 28 29 29 30 32 32 32 32 31 31 32 34
14 11 11 22 24 25 24 23 26 24 24 26 27 27 25 27 27 26 26 28 27 28 28 27 27 27 27 26 26 26 27 28 29 28 28 28 28 30 31 31 30 29 30 32
15 13 8 24 23 24 28 19 24 24 23 27 28 26 21 25 26 26 27 27 27 28 28 27 27 26 25 25 25 26 27 27 28 29 28 28 29 28 29 28 27 27 26 28
15 14 21 25 23 26 19 20 23 23 23 26 22 23 24 25 24 26 27 27 28 28 26 27 28 27 25 25 25 26 27 27 28 29 29 29 30 30 30 28 27 26 25 25
16 16 16 24 23 22 24 26 25 24 24 23 23 22 22 22 22 23 25 25 26 24 24 24 24 25 25 25 27 27 27 27 27 28 29 30 30 30 30 30 28 27 26 25
23 22 25 25 25 26 28 26 25 24 24 23 21 20 20 20 21 22 24 22 21 21 22 22 23 23 24 22 25 26 26 26 26 27 28 28 28 28 29 29 29 28 27 26
24 24 24 25 25 25 26 25 25 25 24 22 19 20 19 20 21 21 21 20 20 20 20 21 22 22 23 23 20 21 23 23 24 24 25 25 26 26 26 27 26 26 27 26
24 25 25 25 26 25 25 25 24 24 23 22 21 21 21 20 20 20 20 20 19 19 19 19 19 19 20 21 22 20 18 22 22 22 22 23 23 24 25 25 25 25 25 25
23 24 26 25 27 26 24 23 23 21 20 20 20 19 19 19 19 18 18 18 17 18 18 19 18 18 19 19 18 18 17 16 19 21 22 21 21 21 21 22 22 22 22 23
26 28 27 26 26 26 23 23 22 20 19 18 18 18 18 18 18 17 17 17 17 17 18 18 18 18 19 20 21 20 19 18 17 18 18 19 20 21 21 22 19 18 20 20
27 26 24 24 23 23 21 20 20 19 19 18 17 17 16 15 14 13 14 14 14 16 16 17 16 16 18 20 20 20 21 20 20 19 19 19 19 19 19 17 17 17 16 16
27 28 25 23 21 20 19 18 18 17 17 16 16 15 14 13 11 10 8 7 7 10 13 15 15 16 17 19 19 19 19 20 20 19 18 18 18 17 17 16 15 15 15 15
28 25 23 22 21 20 19 18 17 16 16 16 14 12 10 8 8 8 7 7 5 6 8 11 12 14 16 18 18 17 17 18 17 17 16 15 15 15 14 14 13 13 12 12
25 23 22 22 21 20 19 18 17 16 16 16 14 10 9 7 6 8 9 10 10 10 8 9 12 14 15 17 17 16 16 15 15 15 14 14 14 14 13 13 12 11 10 11
27 25 24 23 21 20 19 18 17 16 16 15 14 13 13 12 9 8 9 10 10 10 7 8 12 13 13 14 14 13 12 12 12 12 12 13 12 11 12 12 11 10 10 10
26 27 25 23 22 20 19 18 17 16 14 13 13 12 11 11 11 9 10 11 10 9 8 8 10 10 10 11 10 10 10 11 10 9 12 11 12 11 12 12 11 11 10 9
25 24 23 21 20 19 18 16 15 14 13 12 10 10 10 9 9 9 10 10 10 9 8 6 7 7 6 6 7 7 9 10 8 8 10 10 12 12 12 11 10 11 12 11
22 20 18 16 15 15 15 14 12 11 11 11 11 12 11 10 10 10 12 8 10 9 6 5 4 5 4 6 4 9 9 8 8 8 9 9 10 10 11 12 12 11 11 11
18 15 13 13 12 12 12 13 11 9 9 9 8 7 9 11 10 11 11 10 8 8 6 6 4 4 6 9 7 8 7 6 7 7 7 7 7 7 8 9 10 10 11 11
15 14 13 12 11 10 10 9 8 8 9 9 10 12 13 12 11 10 10 10 8 8 7 9 7 6 5 11 10 9 8 7 7 6 6 6 6 6 6 6 6 7 8 8
15 14 14 13 10 7 6 7 8 11 12 12 12 12 11 13 14 12 12 11 10 10 11 11 10 8 7 12 12 11 11 10 9 9 8 7 7 6 6 6 5 5 7 7
14 13 10 7 5 6 7 7 9 9 11 11 12 12 13 13 14 13 14 16 13 10 13 11 9 9 12 12 11 11 10 11 11 11 11 9 8 7 6 5 5 5 5 5
12 6 6 6 8 9 11 11 13 14 13 14 14 14 14 14 13 13 14 14 14 13 14 13 12 10 10 9 8 7 7 7 8 9 10 10 11 9 8 7 6 6 6 5
9 10 12 13 13 14 15 15 15 14 14 13 11 13 13 13 14 12 13 13 13 12 11 10 10 8 7 7 6 6 6 6 7 6 7 8 8 9 9 9 7 8 10 7

GFSNGP_sfc_30mbdewp_105.txt.gz
Dewpoint
8 9 8 10 11 10 8 8 4 0 -2 -1 19 23 29 28 29 28 28 28 28 28 29 29 29 29 30 31 32 31 30 30 31 32 34 36 37 37 37 37 39 49 56 54
8 8 7 3 2 2 2 2 2 0 -1 24 25 27 31 30 29 27 27 27 27 27 27 28 28 28 29 29 30 31 30 29 30 31 31 32 34 35 35 35 34 35 39 42
-2 5 2 -4 4 3 1 -0 6 7 21 23 27 29 29 29 27 26 26 26 27 26 27 28 28 28 29 28 29 30 30 30 30 30 30 30 31 32 33 33 33 32 33 34
1 4 -3 19 23 23 22 20 24 23 23 24 27 27 27 28 27 25 26 26 27 27 27 28 30 28 28 28 27 28 29 29 30 30 30 30 29 29 29 30 31 31 30 31
12 5 12 18 22 26 24 25 26 24 24 24 26 26 24 25 26 26 27 28 28 28 29 29 30 28 27 27 26 27 28 28 30 30 30 30 29 28 28 27 27 27 28 29
13 11 7 24 22 23 27 19 23 24 24 23 26 25 22 25 26 27 28 29 29 29 29 29 29 28 27 26 26 27 28 29 30 31 31 30 30 30 30 29 27 26 25 27
13 12 22 25 23 26 20 20 24 24 24 26 27 24 25 26 25 27 28 28 30 28 28 29 29 28 27 27 27 28 28 29 29 30 30 31 32 31 31 31 30 28 26 25
13 16 18 24 24 22 25 26 24 24 25 25 24 23 23 24 24 25 27 28 29 28 27 24 24 25 26 26 29 29 29 28 28 28 30 29 29 31 31 31 30 29 29 27
23 23 25 25 25 26 26 25 26 25 25 24 22 22 22 22 23 24 25 26 23 22 21 21 22 22 23 24 24 27 27 27 27 27 27 28 26 26 27 28 28 28 27 25
24 25 24 25 25 26 26 25 25 25 25 24 21 22 22 22 23 23 23 21 20 20 19 19 19 19 19 20 20 20 22 24 24 25 25 24 24 24 23 24 25 24 24 24
24 24 24 24 25 25 25 25 25 25 23 23 23 22 21 21 22 22 21 20 19 18 18 16 16 17 18 18 18 17 17 19 20 23 23 24 22 22 22 23 23 22 24 22
26 25 27 25 26 25 24 24 24 21 21 21 21 21 20 20 20 20 20 19 19 18 18 17 16 17 18 19 18 18 17 17 19 19 19 19 20 23 21 20 19 20 20 20
27 29 28 26 26 25 24 24 22 21 20 19 20 20 20 20 19 19 18 18 18 18 18 18 18 18 19 20 20 21 18 19 18 19 19 19 19 19 18 22 20 18 17 17
27 26 24 25 24 23 22 21 21 20 19 19 18 18 17 17 15 14 14 13 15 16 16 16 17 17 19 22 20 21 21 22 21 20 19 20 20 19 19 18 18 19 19 17
26 27 25 24 22 20 20 19 18 18 18 17 17 17 16 13 11 9 7 5 5 8 11 13 14 15 18 20 21 21 19 19 21 20 19 18 18 18 17 16 16 15 15 15
26 25 23 21 20 19 19 18 18 17 17 17 15 13 11 10 8 7 7 8 8 9 10 12 12 14 16 18 19 18 18 17 16 17 16 16 16 15 14 15 14 13 13 10
24 23 22 21 20 19 19 19 18 18 17 16 13 12 9 6 7 9 11 12 12 11 10 11 12 15 15 16 16 14 15 14 13 14 14 14 13 12 12 12 12 11 13 11
26 25 24 23 21 20 19 18 18 17 17 15 16 16 15 12 11 11 12 12 13 12 11 11 12 13 13 12 13 11 11 11 11 10 11 12 12 11 12 13 11 11 11 12
28 26 26 24 22 21 19 19 19 19 17 15 15 14 14 13 12 12 13 12 12 10 11 10 10 9 8 8 9 8 10 11 10 8 11 9 11 13 13 11 11 13 12 12
30 27 25 23 22 21 20 20 18 17 16 15 13 12 12 12 12 12 12 11 10 9 10 7 7 7 4 5 7 8 10 10 8 9 9 9 11 11 12 12 13 13 13 12
27 25 24 22 21 20 19 18 16 15 14 13 13 13 13 13 12 13 15 11 12 10 7 8 4 4 3 7 6 10 9 8 8 8 9 9 9 9 10 11 10 11 14 11
23 20 19 18 17 17 17 17 15 13 12 14 13 13 12 12 12 12 11 12 10 8 8 8 6 5 6 9 9 10 9 8 8 8 8 8 8 8 8 8 8 10 9 10
20 18 17 16 16 17 15 12 11 11 11 11 11 13 15 14 12 12 13 11 9 9 8 11 9 9 9 12 12 12 12 10 12 11 10 11 9 9 9 8 7 8 9 8
19 18 16 17 14 10 8 9 11 13 14 14 15 15 14 14 17 12 12 12 11 11 12 13 11 11 11 12 16 14 12 12 12 13 12 14 14 13 11 10 8 8 8 8
18 17 16 11 6 7 8 9 10 10 11 10 11 12 14 12 14 14 14 17 16 12 15 15 13 12 14 13 13 10 11 10 12 9 12 12 10 12 14 11 11 10 9 5
16 14 10 7 10 9 9 9 11 13 12 15 15 15 16 14 13 13 14 14 12 13 15 15 13 9 9 9 7 10 9 10 10 7 6 9 10 11 11 12 13 13 11 11
13 9 9 11 11 12 13 15 15 14 16 15 14 15 14 14 15 11 13 13 13 12 14 12 11 10 9 5 8 6 6 5 5 4 4 5 5 6 5 5 6 6 7 7

GFSNGP_sfc_30mbdewp_108.txt.gz
Dewpoint
16 10 9 12 9 9 8 8 10 9 3 22 26 30 29 29 28 27 27 27 27 27 27 28 28 29 30 30 31 31 30 30 30 31 31 31 32 33 34 36 36 36 38 41
15 11 8 5 2 2 5 5 1 -0 3 27 29 30 29 29 28 27 26 26 26 26 27 28 28 29 29 30 30 30 30 30 31 31 31 30 30 30 30 32 33 34 33 35
9 9 4 -1 6 1 4 3 9 5 23 24 27 27 28 28 26 26 25 25 25 26 27 27 30 30 29 29 30 31 30 30 30 31 31 31 30 29 28 28 29 30 32 32
5 5 -3 19 22 21 21 26 25 24 23 26 27 26 26 26 25 24 25 25 25 27 28 29 31 30 30 28 28 30 29 29 31 31 31 31 30 29 28 27 26 26 28 30
7 4 16 17 22 24 23 26 25 24 24 27 27 25 25 24 25 26 27 29 28 29 30 30 30 30 30 28 28 28 28 29 30 31 30 31 30 30 30 28 26 25 26 26
13 11 6 23 21 23 26 20 23 24 23 23 28 24 21 25 26 27 28 29 29 29 30 30 31 31 29 27 27 28 28 28 29 31 29 29 30 30 31 31 29 28 26 26
14 11 23 26 22 25 20 20 25 23 24 28 24 25 25 24 25 28 28 29 30 30 29 29 31 31 30 27 28 29 28 28 27 28 28 28 28 30 30 30 29 28 27 28
14 12 15 25 24 23 25 26 25 23 25 24 24 23 22 23 24 26 27 29 29 28 27 26 22 23 24 27 29 30 29 28 27 25 26 26 25 25 26 27 26 27 26 25
24 23 25 26 26 27 29 26 25 23 23 23 22 21 22 22 23 24 26 27 26 21 18 18 19 19 19 20 22 23 26 26 27 26 24 24 23 22 23 23 24 22 23 22
25 24 24 24 25 25 25 24 24 25 23 23 22 23 23 23 23 23 24 20 19 17 16 16 17 18 19 19 18 19 20 21 23 24 26 23 22 21 20 21 21 21 20 20
25 25 25 24 25 25 24 24 23 23 23 23 23 24 23 22 22 22 22 21 19 18 17 16 16 18 18 20 19 19 20 20 21 21 21 24 22 21 20 19 19 19 20 20
27 25 28 25 25 25 24 24 23 22 22 22 22 22 22 22 21 20 20 19 19 19 18 17 16 18 21 21 21 20 20 20 20 21 21 21 21 23 22 21 19 18 18 18
28 30 28 26 25 25 24 23 22 21 21 21 21 21 21 21 20 19 18 19 19 18 18 18 17 18 20 22 23 21 21 22 21 21 21 21 21 21 20 23 22 20 19 19
29 27 25 25 24 24 23 22 21 20 20 20 20 20 19 17 15 13 12 13 14 15 15 15 15 16 19 20 24 21 20 21 23 22 22 22 22 21 20 19 19 19 16 15
27 27 25 25 23 22 21 20 19 18 18 18 19 18 16 13 10 8 7 6 8 11 13 14 14 15 17 18 20 24 21 19 21 21 20 20 19 19 19 18 17 18 14 11
27 25 23 21 20 20 19 19 18 18 18 18 16 14 12 9 8 9 10 11 9 11 12 13 14 16 16 16 18 18 19 16 16 18 18 17 17 16 16 16 16 18 14 11
25 23 22 20 19 19 19 19 19 18 18 16 13 12 8 8 10 12 13 14 12 13 13 13 13 15 14 13 15 15 16 15 14 15 15 15 15 15 15 16 15 13 17 13
25 24 24 22 21 20 20 20 19 19 18 17 16 13 13 13 13 13 13 14 15 12 13 12 13 13 12 11 12 13 13 13 12 12 13 13 15 14 16 14 13 15 14 14
27 26 25 24 23 21 20 20 21 19 17 16 15 14 14 14 14 14 14 14 13 12 12 11 12 10 8 8 11 12 12 13 12 12 12 12 14 13 15 15 15 15 15 15
27 27 25 24 23 22 22 20 19 18 18 16 14 13 12 13 13 13 14 11 10 10 11 9 7 6 5 7 10 11 12 12 11 11 12 12 12 12 12 13 13 13 15 17
28 26 24 23 22 21 20 19 18 17 15 14 15 14 14 13 13 14 18 18 14 10 9 9 6 5 5 7 10 14 13 12 11 11 12 12 11 11 11 11 11 12 12 13
26 24 22 21 20 20 19 18 17 15 15 16 15 14 12 12 11 12 10 13 11 7 11 10 9 6 8 9 15 14 14 13 12 14 13 12 11 11 10 10 10 10 9 12
22 21 20 19 18 19 19 15 14 15 14 11 11 14 18 15 14 14 18 11 12 8 10 15 9 10 10 13 14 16 14 13 13 13 14 13 13 14 13 11 11 10 10 9
21 20 19 20 18 15 12 12 12 13 14 15 16 16 16 18 20 14 15 12 11 13 14 16 13 11 11 15 16 13 12 12 13 11 11 11 11 11 11 13 14 10 11 10
20 20 19 16 12 9 9 10 12 13 13 11 12 13 14 13 16 16 16 17 16 12 16 15 13 10 13 13 11 11 12 11 12 11 8 7 9 9 9 7 8 8 11 12
19 18 15 11 11 10 11 10 11 13 13 16 17 18 17 15 15 16 17 12 15 13 16 16 14 12 12 9 8 10 9 9 8 6 5 6 5 5 5 4 4 5 6 7
17 15 11 13 12 12 12 14 17 16 18 18 18 18 16 17 14 13 15 15 14 15 14 13 13 11 10 7 8 6 6 6 5 3 5 4 2 2 1 0 0 1 3 3

GFSNGP_sfc_30mbdewp_111.txt.gz
Dewpoint
20 24 16 10 11 14 16 14 11 12 23 30 30 29 28 28 27 26 26 26 26 26 27 27 28 29 29 29 30 30 30 30 30 31 32 30 29 29 28 29 30 32 33 34
20 18 10 8 7 4 4 5 5 22 26 29 29 29 28 27 26 25 25 25 25 26 25 27 27 29 29 29 29 29 30 30 31 31 31 31 29 28 27 27 27 28 29 31
20 16 13 5 14 15 20 25 23 19 27 27 26 26 26 26 26 25 25 24 25 27 27 28 29 30 29 30 31 30 30 30 31 30 31 31 30 29 28 27 26 26 27 28
10 6 6 20 23 24 26 26 25 24 26 26 26 26 25 26 25 25 25 25 26 27 28 29 30 30 30 30 30 29 28 29 30 29 29 30 30 30 30 29 28 27 27 26
7 8 19 20 24 21 22 24 24 24 27 26 25 24 24 26 26 26 27 28 27 29 29 30 30 31 31 29 29 28 27 28 29 28 27 27 27 29 30 28 27 27 27 27
14 12 9 21 25 27 26 18 24 24 23 27 25 21 20 25 26 27 28 28 28 29 29 29 30 31 30 29 29 28 27 25 26 26 25 25 25 27 28 28 27 26 26 26
15 15 22 26 25 26 15 16 24 24 25 26 22 23 25 26 26 28 29 29 29 29 28 28 29 28 28 29 28 29 29 27 25 25 23 22 23 24 24 24 23 24 24 24
17 15 16 26 26 22 25 26 24 25 24 22 23 23 24 24 24 26 27 28 28 26 26 24 20 20 21 23 24 26 27 28 25 24 24 23 21 20 22 22 21 19 20 21
24 22 25 26 26 28 27 25 25 25 25 24 23 22 22 22 23 24 26 27 25 19 17 18 19 19 20 20 22 22 22 24 26 25 23 23 21 20 17 18 19 20 18 18
23 23 24 25 26 27 27 25 24 24 24 22 21 22 22 22 23 23 23 20 18 17 16 17 19 21 21 21 20 21 20 21 22 22 23 22 21 20 19 18 17 18 18 19
25 25 24 25 25 25 25 24 24 23 23 23 22 22 22 22 22 21 20 20 19 19 18 17 18 20 21 23 22 21 22 21 21 21 22 22 23 23 22 21 19 20 20 19
24 25 25 26 26 25 24 23 24 24 24 25 24 23 22 21 21 20 19 19 18 18 17 16 17 17 19 21 23 21 22 22 21 21 22 22 21 22 25 21 17 15 18 21
27 28 26 26 26 25 24 24 23 23 22 21 22 22 22 21 21 20 19 17 16 15 14 14 13 14 16 18 21 20 19 20 23 21 21 21 21 20 19 20 18 13 15 18
27 26 25 26 25 24 24 23 23 22 22 21 21 21 21 18 15 15 15 15 14 14 13 12 12 12 14 16 18 21 15 16 19 19 17 17 18 17 17 17 14 12 11 16
27 27 26 25 24 23 22 21 20 20 20 20 20 18 14 10 10 11 12 11 11 12 13 13 12 11 13 13 15 18 18 15 16 17 16 15 16 16 16 16 15 11 11 13
27 25 25 24 22 21 20 20 19 19 19 17 15 12 10 11 12 11 11 12 10 12 12 11 12 13 11 11 13 16 15 14 15 15 15 16 16 17 16 16 16 14 12 12
24 23 23 21 21 20 20 20 20 19 17 15 12 10 11 12 13 13 11 12 11 11 11 11 11 12 10 10 12 15 15 14 14 15 13 15 15 15 17 15 14 15 15 13
25 24 23 21 21 21 21 20 20 18 17 15 13 12 12 11 10 11 12 12 11 10 9 9 9 8 7 11 14 14 14 14 13 13 13 14 13 14 14 14 14 15 16 16
26 25 23 23 23 22 22 20 19 17 14 12 11 10 10 10 12 12 12 12 12 7 7 7 12 6 8 12 12 14 12 11 12 12 12 12 11 11 11 11 11 12 14 13
27 25 24 23 23 22 20 18 17 16 15 13 12 12 11 10 12 11 4 3 8 9 10 8 6 8 7 8 11 13 13 10 11 12 11 11 9 8 9 10 9 9 8 10
25 24 22 21 21 20 19 18 16 14 13 11 9 8 8 11 12 13 13 12 8 10 10 8 6 7 7 8 13 14 13 12 12 12 12 12 11 11 9 8 8 8 6 9
23 22 21 20 19 18 18 16 15 13 14 13 12 11 9 8 11 11 12 11 8 8 13 11 7 7 8 9 13 14 12 11 12 11 11 11 10 11 11 11 10 10 7 9
22 21 20 19 18 18 16 14 14 14 13 12 10 9 11 13 14 14 11 13 10 10 14 10 9 8 9 11 14 10 10 11 10 9 7 7 8 9 7 6 6 7 7 9
20 20 19 19 17 15 13 14 15 13 10 11 12 15 17 19 18 16 13 11 11 11 14 13 9 10 12 9 10 9 10 9 8 6 5 6 5 6 5 4 3 4 5 6
20 20 18 17 15 13 12 13 13 13 14 15 14 11 15 17 14 16 18 15 12 15 14 11 11 10 6 6 8 7 7 7 4 3 3 3 2 3 1 0 0 -0 2 3
20 18 18 16 13 12 13 14 14 14 15 12 13 15 14 15 18 16 13 15 15 14 15 13 11 7 6 6 4 4 4 4 0 1 2 -0 -1 -2 -4 -4 -3 -3 -1 1
20 18 16 15 12 13 13 15 14 14 16 18 18 17 15 11 13 15 13 13 11 10 9 9 10 9 6 4 3 3 2 -1 -3 -0 -2 -4 -6 -7 -7 -6 -6 -3 -4 -2

GFSNGP_sfc_30mbdewp_114.txt.gz
Dewpoint
24 25 24 20 10 15 22 23 18 19 27 30 29 28 27 26 25 25 25 25 24 24 25 26 27 27 28 28 29 29 29 29 30 30 31 30 30 31 29 28 28 28 28 29
27 25 17 8 8 6 5 15 26 27 27 30 29 27 26 25 25 24 23 24 25 24 24 25 26 27 27 27 28 28 28 29 29 29 29 30 30 29 29 27 27 28 27 28
23 27 25 16 11 18 24 25 25 21 25 27 25 25 25 26 25 24 23 24 25 26 26 27 28 29 28 28 28 27 27 27 28 28 28 28 29 29 29 28 26 26 27 28
21 23 16 21 27 26 25 25 27 27 27 26 25 25 25 26 25 25 24 24 26 27 28 29 30 30 30 29 29 26 26 26 27 26 26 27 27 27 26 28 26 26 26 27
17 15 20 22 24 25 22 23 25 27 26 25 25 23 24 25 26 26 27 26 27 28 29 28 28 30 30 29 29 27 25 24 24 23 22 23 23 24 25 24 24 25 25 25
15 10 11 21 25 26 22 14 24 26 26 25 23 20 20 26 27 26 27 28 27 28 26 26 27 28 29 29 28 28 26 25 24 24 22 20 20 22 23 22 21 21 22 23
13 13 21 25 27 26 14 16 24 24 24 26 24 22 24 26 26 27 28 27 26 26 25 25 26 26 23 23 23 26 29 26 24 24 23 22 20 19 20 20 20 20 20 21
17 16 15 26 26 21 22 25 25 23 23 22 23 23 23 23 24 26 26 25 24 23 22 22 21 22 22 22 23 24 24 26 25 24 23 22 21 20 19 19 18 18 19 20
22 18 26 27 27 27 25 24 25 22 23 22 21 22 21 22 23 24 24 23 18 17 18 19 21 22 21 22 23 22 22 23 23 24 23 22 21 20 19 19 19 19 18 19
22 24 25 27 28 27 26 25 26 25 23 22 21 20 21 21 21 21 20 18 17 16 17 18 20 20 21 22 22 21 20 21 22 22 22 23 22 21 18 16 19 19 19 18
24 25 25 27 26 26 25 26 25 24 22 21 21 21 21 20 20 19 19 19 18 16 17 17 18 19 19 21 22 21 22 21 21 22 22 22 23 24 18 16 19 20 21 20
19 24 23 25 26 26 25 24 23 22 22 22 22 21 21 20 19 18 17 16 14 14 14 15 15 15 17 19 21 19 19 21 20 20 19 20 19 19 22 14 14 18 19 20
25 26 26 26 26 25 25 24 23 23 24 23 22 21 20 19 19 17 16 14 11 11 11 11 12 12 14 17 20 17 17 19 17 16 17 17 17 17 15 13 12 12 14 14
27 26 25 25 25 24 24 25 24 23 22 22 22 21 21 20 18 15 12 13 13 13 12 11 9 10 11 13 14 14 15 15 15 15 15 16 15 15 15 12 11 11 12 14
26 27 25 26 25 25 24 23 22 22 21 21 21 19 15 13 13 13 13 11 11 12 12 10 9 9 10 12 13 13 15 14 13 14 15 15 16 16 15 14 14 11 11 11
26 25 25 24 24 24 22 22 21 21 21 20 15 12 11 12 12 12 12 10 9 10 11 9 9 9 9 12 13 14 15 14 13 14 14 14 15 15 15 14 14 14 13 11
25 24 24 24 23 21 21 20 20 19 17 14 12 12 12 10 9 10 10 10 9 9 8 8 6 7 10 12 13 13 14 14 13 13 13 13 14 13 13 13 13 13 14 14
26 25 24 23 22 21 20 20 19 17 15 13 13 13 11 9 9 10 10 9 8 7 7 7 7 8 11 12 14 13 12 13 13 13 12 11 11 12 10 10 11 11 11 13
25 23 23 22 22 22 21 20 19 17 14 13 12 10 7 8 11 11 10 8 5 4 6 8 8 7 10 14 13 13 11 11 12 13 12 11 10 9 9 8 9 5 8 11
24 24 24 23 23 23 22 19 16 14 13 11 10 8 9 11 11 10 11 12 6 6 8 6 7 8 8 12 14 13 12 11 11 11 10 9 9 9 9 8 8 8 5 8
23 23 23 24 23 22 21 19 15 13 12 11 9 8 10 11 5 3 5 6 8 9 9 6 7 8 9 12 14 11 10 9 9 8 7 7 7 7 7 6 5 6 6 5
22 22 22 22 20 19 19 18 15 13 11 9 8 7 9 11 12 13 12 7 9 9 12 8 8 8 11 12 11 9 9 7 5 5 5 4 5 4 3 2 3 4 4 5
22 21 20 19 19 17 17 16 15 12 9 9 7 7 9 11 11 12 13 11 11 11 10 9 9 10 9 9 8 7 6 4 4 3 2 2 2 2 0 -1 -1 0 2 3
20 20 19 18 17 16 15 14 14 13 11 10 7 7 15 15 16 15 13 11 11 13 11 9 9 6 7 6 6 5 4 3 1 0 -0 -1 -2 -3 -4 -4 -4 -4 -2 -1
20 19 18 17 17 16 15 14 13 12 11 14 16 14 18 16 14 13 12 12 14 13 10 9 6 5 4 4 4 2 -0 -2 -1 -3 -4 -5 -6 -7 -7 -8 -8 -7 -6 -3
19 18 18 19 18 17 14 12 11 12 15 14 12 14 14 15 16 15 14 15 13 12 11 8 5 3 2 2 1 -1 -3 -2 -3 -4 -7 -9 -10 -9 -11 -11 -10 -9 -7 -6
21 20 20 16 14 13 13 13 12 14 13 12 14 13 15 14 15 14 12 11 10 8 8 7 4 2 1 -0 -2 -6 -6 -4 -5 -7 -10 -11 -11 -12 -13 -12 -11 -11 -10 -9

GFSNGP_sfc_30mbdewp_117.txt.gz
Dewpoint
31 30 31 30 30 29 26 27 24 22 26 31 31 27 26 26 25 24 24 24 24 24 26 26 27 27 27 27 28 28 28 28 28 28 28 28 28 28 27 27 26 26 27 28
26 28 26 26 21 8 21 25 26 24 29 30 28 27 27 26 25 23 23 23 24 24 26 26 27 28 28 28 28 28 27 27 26 26 26 26 27 26 27 25 25 25 25 26
23 28 30 25 22 14 22 25 26 23 27 29 28 27 26 26 24 23 22 23 23 24 26 27 29 29 28 29 26 24 24 24 23 23 23 24 24 24 24 24 24 24 24 25
23 26 17 23 27 26 23 25 28 27 29 27 26 26 26 25 25 23 24 24 23 25 24 27 28 30 30 30 28 24 24 24 23 21 20 20 21 22 22 21 22 22 23 24
20 20 21 22 25 24 20 22 27 27 26 25 25 24 23 25 25 25 24 26 26 27 26 27 27 28 30 29 29 25 24 24 24 22 20 19 18 19 20 21 20 21 22 23
22 17 15 18 25 27 20 15 26 26 24 23 22 19 20 25 26 25 27 27 25 25 24 24 26 27 26 26 25 27 24 24 23 23 21 20 19 19 19 19 20 21 22 23
20 16 18 25 26 25 11 12 25 26 25 23 22 21 25 27 25 26 27 25 25 24 23 24 25 24 23 22 23 25 26 24 23 23 21 21 21 20 20 20 19 19 20 22
17 16 12 26 26 21 22 25 24 23 24 26 23 24 24 25 25 26 24 23 23 21 22 22 22 22 22 23 22 23 23 23 23 23 23 22 19 18 19 19 19 19 18 19
19 17 25 28 26 26 25 24 22 22 23 23 22 22 22 22 22 23 22 20 18 18 19 20 21 21 21 22 21 21 22 22 23 23 23 23 19 16 18 19 19 19 17 17
21 24 26 28 27 26 25 24 23 22 22 21 20 20 19 20 19 18 18 17 17 18 18 18 19 19 20 21 22 22 21 21 21 22 22 23 19 16 16 18 18 19 16 16
23 25 26 27 27 26 26 25 23 23 21 19 19 19 19 18 18 18 17 17 17 17 17 17 17 17 18 20 20 19 20 20 19 19 19 20 21 16 15 15 15 16 18 15
19 24 23 25 26 26 25 24 24 22 21 21 20 20 19 18 18 17 15 14 14 15 14 14 14 15 17 19 19 18 18 16 17 18 17 17 17 14 15 13 13 12 12 12
25 26 25 27 26 26 24 23 23 22 21 21 21 20 19 18 17 14 11 10 10 10 10 10 11 12 13 15 17 17 17 16 16 17 16 16 16 14 12 12 13 12 12 10
27 26 25 25 25 25 23 23 23 23 23 22 20 20 18 18 15 13 12 12 12 11 9 9 9 11 11 12 13 12 13 13 13 14 14 14 14 13 12 11 11 11 11 12
26 26 25 25 25 24 24 24 22 22 22 21 20 20 19 15 12 12 12 11 11 10 9 9 10 11 10 12 13 12 12 12 12 12 13 13 14 14 12 12 12 12 10 11
26 25 25 24 24 24 24 22 22 21 21 21 19 16 14 13 13 12 10 10 9 9 8 8 10 9 10 12 13 13 13 12 12 12 12 12 11 11 11 11 11 11 12 12
25 24 24 24 24 23 22 22 21 21 21 17 13 13 12 12 11 9 10 10 9 7 6 8 10 9 11 11 12 12 12 13 12 12 10 11 11 10 10 10 8 8 9 12
25 25 25 25 24 22 22 22 22 21 17 14 13 12 10 8 5 6 8 8 6 7 6 6 8 11 12 12 12 12 12 13 13 13 13 10 10 11 9 9 9 7 7 10
25 25 25 24 23 22 21 20 19 17 15 14 12 10 7 7 6 8 7 5 7 5 7 7 11 12 14 15 13 12 11 11 11 9 10 9 8 7 7 6 5 5 5 6
25 24 23 23 23 22 21 19 17 15 14 12 10 7 7 9 9 8 6 5 5 6 7 8 8 9 13 13 12 11 10 9 8 7 5 5 4 3 2 3 3 3 4 4
23 23 23 23 24 23 22 18 16 14 12 11 8 7 10 10 10 10 11 7 7 8 7 8 8 11 13 12 10 7 6 5 4 3 2 2 -0 -1 -2 -2 -1 0 1 3
23 23 23 23 22 20 20 19 17 14 12 11 10 11 10 7 5 8 9 7 9 10 9 9 10 10 11 9 7 5 4 3 2 1 1 0 -2 -3 -5 -5 -5 -4 -2 0
22 23 22 21 20 18 18 17 17 16 13 10 9 11 10 9 11 13 12 11 11 11 10 10 9 8 6 5 3 2 1 0 -1 -2 -3 -4 -5 -7 -7 -7 -8 -8 -7 -5
21 21 20 18 18 17 16 16 16 15 11 9 9 11 13 14 13 14 13 11 11 10 10 8 6 5 4 3 1 -0 -1 -2 -4 -5 -6 -8 -9 -10 -11 -11 -11 -11 -9 -8
20 19 18 18 18 17 16 16 15 13 10 8 8 11 15 15 12 13 11 11 12 11 9 5 4 3 2 0 -2 -3 -3 -4 -6 -8 -11 -11 -12 -13 -14 -13 -13 -12 -11 -11
20 19 19 20 19 18 17 17 14 12 13 15 15 17 15 15 13 11 12 12 10 9 6 4 2 1 -0 -2 -5 -5 -5 -5 -8 -11 -12 -12 -13 -14 -15 -14 -14 -14 -13 -13
21 20 20 19 19 19 18 17 14 13 16 14 15 12 13 13 13 13 12 11 9 7 5 2 0 -1 -2 -5 -7 -6 -6 -8 -10 -11 -14 -14 -16 -17 -17 -16 -16 -16 -16 -16

GFSNGP_sfc_30mbdewp_123.txt.gz
Dewpoint
28 27 27 26 25 28 28 29 25 22 25 27 32 33 34 29 26 25 24 23 24 24 25 25 25 25 25 25 24 23 22 22 21 21 22 22 22 22 22 23 24 24 24 25
26 29 30 28 28 28 28 29 29 29 30 33 33 35 28 27 26 24 24 23 24 24 24 25 25 25 25 26 24 22 21 20 20 20 20 20 20 21 21 21 22 21 22 22
23 25 28 25 26 27 27 28 28 26 29 31 30 29 28 27 25 24 24 23 24 24 26 26 27 26 25 25 22 22 21 20 20 21 20 21 20 20 20 21 21 21 21 21
23 25 18 19 26 27 27 28 27 27 30 30 30 29 28 27 25 24 23 24 25 26 25 26 28 28 28 24 22 21 21 20 20 20 20 20 20 20 20 20 20 20 20 21
22 21 22 20 24 24 24 22 27 27 29 28 28 27 26 26 25 24 24 26 26 26 25 27 27 27 26 25 21 20 21 20 20 19 19 19 20 20 19 19 18 19 19 19
24 19 14 17 25 26 23 19 26 29 28 26 27 25 24 25 25 25 25 25 24 25 25 25 25 25 24 23 22 21 21 21 20 18 19 19 20 20 20 17 17 16 16 17
22 20 20 22 26 22 18 16 27 29 28 27 27 26 26 25 24 25 24 24 24 24 23 23 23 23 23 22 23 23 22 22 20 19 17 18 18 19 19 16 15 15 14 16
23 20 16 26 24 19 23 26 29 28 27 26 24 24 23 23 24 23 23 24 23 23 23 23 22 21 22 22 23 23 23 22 21 18 17 17 17 17 17 15 14 14 13 14
22 21 25 28 27 27 27 26 27 27 26 25 24 22 23 23 22 22 22 23 22 21 20 20 20 20 20 21 21 21 21 21 19 18 18 16 15 15 14 14 13 11 12 12
21 23 24 27 27 26 26 25 25 26 26 25 23 23 23 22 21 21 21 20 20 19 18 19 19 20 20 19 18 17 16 16 17 15 14 15 13 12 12 12 12 11 11 12
22 25 26 27 27 26 24 25 26 26 26 24 23 22 21 20 20 19 20 19 18 17 17 17 17 18 19 18 15 15 15 15 15 14 13 12 14 13 12 13 12 12 12 11
20 23 23 25 28 25 24 24 24 23 22 22 22 21 20 19 19 18 19 18 17 16 16 16 15 16 17 17 15 14 14 14 14 13 13 11 9 10 13 12 12 10 10 10
25 28 27 28 26 24 23 22 22 22 21 21 20 20 19 18 17 17 16 16 15 15 15 14 14 14 16 16 14 14 13 13 14 12 11 10 9 8 7 8 10 10 8 8
27 26 25 26 25 24 22 22 22 21 20 20 19 19 18 15 15 14 14 13 13 13 12 13 12 11 12 15 13 13 14 13 13 12 11 10 10 9 9 7 7 8 9 8
26 26 26 26 24 22 22 21 20 20 20 19 19 17 16 11 9 12 13 12 12 12 12 13 11 11 11 12 12 13 12 12 12 11 11 10 10 10 9 8 8 8 8 8
26 26 25 24 23 22 21 21 20 20 19 19 18 16 12 8 8 10 11 11 12 12 12 12 12 11 12 13 12 12 11 11 11 11 11 11 10 9 8 7 7 7 7 7
24 24 24 23 23 22 22 21 20 20 19 19 17 14 10 8 8 9 11 12 11 11 11 12 12 10 12 14 12 12 13 12 11 9 9 9 8 6 5 5 4 4 5 5
26 25 25 24 23 23 22 21 21 20 20 19 15 13 11 10 10 9 8 9 9 9 10 11 11 11 12 13 14 13 11 9 9 7 6 5 4 3 3 2 1 2 3 3
26 26 25 24 24 23 22 22 22 21 18 16 14 12 11 10 9 8 7 9 10 10 10 12 15 14 13 13 11 10 9 7 6 5 4 2 2 0 1 0 -0 -0 0 0
26 26 25 25 24 23 23 23 21 19 18 17 14 10 9 8 8 7 7 9 10 11 12 15 15 14 13 11 9 7 7 7 4 3 2 1 0 -1 -2 -4 -4 -3 -2 -2
25 24 23 23 24 24 23 22 19 17 16 15 13 10 9 8 8 7 6 5 7 9 10 12 13 11 9 7 6 7 6 4 3 2 1 -1 -2 -3 -4 -4 -5 -4 -4 -4
22 22 22 22 22 21 21 21 19 17 16 16 13 9 7 8 7 9 9 7 8 9 11 13 12 10 8 6 5 5 3 2 1 0 -1 -3 -4 -5 -6 -7 -7 -6 -6 -6
21 22 22 21 21 20 20 19 18 17 16 15 13 9 8 8 9 9 8 9 9 11 12 12 9 7 5 6 5 3 1 0 -1 -2 -4 -5 -6 -7 -8 -8 -8 -8 -8 -9
21 21 21 21 20 19 18 18 18 18 17 16 15 13 11 10 11 11 12 11 10 12 12 8 6 3 4 4 2 1 0 -1 -3 -4 -6 -9 -8 -9 -10 -10 -10 -10 -10 -11
21 21 20 20 20 19 18 18 17 16 16 16 15 12 12 13 14 15 14 13 12 11 9 5 3 2 3 2 2 -0 -1 -2 -4 -5 -6 -7 -9 -11 -11 -11 -12 -12 -12 -12
21 21 21 21 21 19 18 17 16 16 16 15 15 14 15 16 15 13 13 12 11 9 7 4 4 3 2 1 -0 -2 -3 -5 -6 -7 -8 -9 -11 -12 -13 -13 -13 -13 -14 -14
22 21 21 20 20 19 18 18 17 16 16 16 14 15 15 15 14 13 12 11 10 7 5 4 3 2 1 -0 -2 -3 -4 -6 -7 -8 -9 -11 -13 -13 -14 -14 -14 -14 -14 -15

GFSNGP_sfc_30mbdewp_126.txt.gz
Dewpoint
20 20 21 26 25 24 24 27 25 23 19 18 20 29 33 34 34 30 28 26 25 25 25 25 26 26 27 27 26 25 24 23 23 21 22 22 22 22 23 23 22 22 23 23
17 18 18 17 19 18 19 20 20 21 21 23 24 31 33 34 32 29 27 25 25 24 25 25 25 25 26 25 23 22 21 20 21 21 21 21 22 22 22 21 22 21 22 22
18 17 19 21 21 20 19 20 21 20 20 20 24 32 35 35 31 28 28 27 24 25 25 26 25 26 25 24 22 20 19 19 20 22 21 21 21 21 21 21 21 21 21 21
20 22 18 17 20 21 19 21 22 23 22 23 27 32 36 34 31 30 27 26 25 26 25 26 27 27 25 22 21 20 20 19 20 20 21 21 20 20 21 21 21 20 19 20
20 14 14 14 19 24 25 20 21 25 25 27 32 32 31 31 31 30 27 27 28 26 26 27 27 26 25 22 20 19 20 20 20 20 20 20 20 20 20 20 19 19 18 18
18 15 11 18 16 26 26 20 20 24 24 31 30 28 29 30 29 29 29 28 27 27 27 27 27 26 24 22 21 21 21 20 18 19 19 19 20 19 19 19 19 18 18 17
22 19 16 22 25 25 19 17 27 29 31 30 30 31 31 29 29 28 27 26 26 26 25 25 26 25 23 22 22 22 21 20 19 18 18 19 19 19 18 18 17 17 17 17
25 21 19 28 25 20 28 29 31 33 33 32 30 29 28 27 26 26 26 25 25 24 24 23 22 22 22 22 23 23 21 20 19 19 18 19 18 18 18 17 16 16 15 16
23 20 29 26 30 30 29 29 31 32 32 30 27 26 26 25 25 25 25 24 24 23 22 20 18 18 19 20 21 21 20 19 18 18 18 16 16 16 15 16 14 13 13 13
25 25 26 29 29 29 28 29 31 31 30 29 26 26 25 25 24 24 24 23 22 21 20 19 18 17 17 17 16 15 14 15 14 13 13 13 11 11 12 12 13 12 12 12
27 27 26 27 29 29 28 29 29 29 29 27 26 25 24 23 23 23 23 22 20 20 19 18 16 17 16 14 13 12 12 12 12 11 10 11 12 13 11 12 11 11 12 12
23 26 25 29 30 30 28 28 29 28 27 26 26 24 23 23 23 22 22 21 19 19 17 16 16 16 15 13 12 10 10 11 11 10 9 7 6 10 11 11 10 9 9 9
29 29 30 30 29 28 27 28 28 27 26 25 24 23 23 22 21 21 21 20 18 18 17 17 18 18 15 13 12 11 10 10 11 10 8 8 7 7 8 11 9 8 8 8
29 28 27 27 26 25 24 24 26 25 24 23 23 22 21 20 20 18 17 18 17 17 17 17 16 16 17 17 17 16 15 13 13 12 12 12 12 11 11 10 10 11 12 9
27 27 27 27 25 23 23 23 22 22 22 22 21 20 19 18 16 15 15 15 15 15 16 15 14 14 16 15 14 14 14 14 14 13 13 12 12 11 10 10 9 9 8 7
27 26 26 24 23 23 22 22 21 21 21 21 20 18 17 15 13 13 14 14 13 14 15 14 14 14 14 14 13 12 12 12 12 11 11 10 9 8 7 6 6 6 6 5
25 25 25 24 23 22 21 22 21 21 21 20 19 16 13 11 12 13 14 15 16 16 16 15 14 14 15 14 12 12 13 11 11 9 8 8 7 5 4 4 3 3 4 5
27 26 26 25 24 23 22 22 21 21 20 20 18 15 12 11 12 14 15 16 15 15 15 16 15 14 15 15 12 12 10 9 8 7 5 5 2 1 3 2 1 1 2 2
26 26 26 25 25 24 23 22 22 22 22 19 17 14 13 14 13 13 14 13 12 12 13 14 14 13 13 13 10 9 8 7 5 4 3 3 3 1 2 2 1 2 1 1
26 26 25 25 25 24 24 24 24 22 20 19 19 17 13 12 11 12 13 13 12 12 14 14 13 12 12 12 9 8 9 8 4 5 4 2 3 3 2 -1 -1 1 2 1
27 27 27 26 25 26 25 23 22 20 20 19 18 15 12 12 11 12 12 11 15 15 14 15 12 11 9 7 7 10 9 8 6 5 4 3 2 1 1 1 0 0 0 0
27 26 25 25 25 24 24 24 22 20 19 19 18 15 12 11 10 10 10 8 11 13 12 11 11 9 8 7 6 8 6 5 4 3 3 2 1 0 -0 -1 -1 -1 -1 -2
26 25 25 24 24 24 24 23 21 20 19 18 16 15 12 10 9 8 8 8 9 11 11 12 12 10 8 10 9 7 5 4 3 2 1 0 -1 -1 -2 -3 -2 -3 -3 -4
26 26 25 25 24 23 22 21 21 21 20 19 18 17 15 11 9 9 10 9 10 13 14 14 11 9 9 9 8 6 5 4 2 1 -1 -3 -2 -3 -4 -4 -5 -4 -5 -6
25 25 25 24 23 23 23 21 21 20 19 19 17 18 15 10 12 12 13 12 13 14 14 10 8 7 10 9 7 5 4 3 2 0 -1 -2 -3 -4 -4 -5 -6 -6 -6 -7
24 24 24 24 24 23 22 20 19 19 19 18 18 18 15 14 15 15 14 13 12 13 13 9 8 9 9 7 5 4 2 -1 -2 -2 -3 -4 -5 -5 -6 -7 -7 -7 -7 -7
25 24 24 23 23 23 22 21 21 20 20 19 18 18 16 17 16 15 15 13 14 14 12 11 9 9 8 6 4 2 1 0 -2 -3 -4 -4 -6 -5 -7 -7 -7 -7 -8 -8

GFSNGP_sfc_30mbdewp_129.txt.gz
Dewpoint
18 19 29 29 30 28 26 27 30 27 24 26 24 23 31 31 34 34 33 31 29 28 26 26 27 27 28 28 28 27 27 26 24 23 23 24 24 24 24 23 22 22 22 22
23 24 17 15 15 15 15 20 23 24 24 25 22 19 20 32 34 33 32 30 28 27 26 26 26 27 27 26 24 23 22 22 22 22 22 22 22 23 22 21 21 21 21 20
21 17 15 15 13 14 13 12 13 13 15 16 15 16 25 30 34 33 32 30 27 26 26 26 26 27 26 25 22 21 20 20 22 23 22 22 22 22 22 21 21 21 21 21
24 20 18 20 18 15 15 14 16 16 16 16 17 21 27 31 35 34 31 29 29 29 27 27 27 26 26 24 22 20 19 20 20 21 21 21 21 22 23 23 22 21 19 19
22 15 14 11 12 21 19 18 19 18 16 17 18 30 36 37 37 34 31 33 33 31 28 28 28 27 24 22 20 19 20 20 20 20 21 21 21 21 22 21 21 21 20 19
20 17 13 17 14 17 23 21 22 20 19 20 32 30 32 35 34 34 33 33 32 31 30 29 29 27 23 21 21 22 21 19 19 20 21 21 21 21 22 22 21 21 20 19
20 18 15 15 14 21 19 17 25 24 25 25 32 34 36 34 33 32 32 31 31 29 28 29 29 28 25 23 22 21 20 20 20 19 21 21 21 22 22 20 20 20 20 20
19 18 17 17 20 21 26 30 30 31 33 35 34 34 32 30 29 30 29 29 28 27 27 26 25 23 23 23 24 22 21 20 20 20 19 20 21 21 21 20 18 18 18 18
18 19 32 28 25 29 30 29 31 33 34 34 31 30 29 28 28 28 28 27 26 25 23 21 20 19 19 21 21 21 20 20 19 19 19 17 17 17 17 18 17 15 15 15
22 21 23 28 29 30 30 29 32 33 34 32 30 29 28 27 27 27 28 25 24 23 21 19 18 17 18 18 17 16 16 15 13 13 14 13 12 13 12 13 13 14 14 12
23 23 28 27 29 30 29 30 31 32 32 30 29 28 26 26 26 27 27 25 22 21 20 18 16 16 15 13 12 12 11 11 11 11 12 13 12 14 12 12 11 11 12 15
21 30 32 31 30 30 30 30 31 30 30 29 28 27 26 26 25 25 25 24 22 22 20 16 15 14 12 12 11 10 10 10 10 9 8 7 9 12 11 10 9 9 9 9
30 32 33 32 31 31 30 30 30 29 28 28 27 26 25 24 24 24 23 24 25 23 21 19 20 18 14 12 11 10 9 9 10 9 9 10 10 10 13 12 11 10 9 9
30 29 29 28 28 28 28 29 29 28 27 27 25 25 24 23 23 22 22 22 22 20 21 21 20 20 21 21 20 19 17 15 15 15 15 15 15 14 14 13 12 17 14 9
29 29 28 28 26 26 26 27 26 26 26 25 24 24 23 22 21 21 21 19 18 18 19 18 17 17 18 18 17 17 17 17 17 16 16 15 14 13 11 11 11 10 10 7
28 27 27 25 24 24 24 24 24 24 24 24 23 22 21 21 19 18 16 14 13 15 16 16 16 16 17 17 16 16 15 15 14 14 13 12 10 9 8 8 8 7 8 6
27 26 26 25 24 24 23 23 23 23 23 23 22 21 20 17 16 15 15 17 19 18 17 16 15 16 16 16 14 14 13 12 12 11 10 9 8 6 5 6 5 4 5 6
27 27 26 26 24 24 23 23 23 23 22 22 22 21 19 17 17 18 19 20 19 18 17 16 16 17 16 16 14 13 12 10 9 8 6 7 3 3 5 5 3 3 4 4
26 26 27 26 25 24 23 23 24 24 25 23 20 18 18 19 19 19 19 17 17 16 16 16 14 14 14 14 10 10 9 8 6 5 4 5 6 3 5 5 4 5 4 4
27 27 27 26 26 25 25 26 26 26 22 20 18 18 18 19 18 17 16 15 14 15 15 14 12 11 11 12 10 10 10 10 5 8 6 5 7 6 5 2 2 4 5 5
28 27 28 28 28 28 28 27 25 22 22 21 20 19 18 16 16 16 15 13 18 15 13 13 11 11 9 8 7 12 11 10 9 8 7 7 6 5 5 5 4 4 4 4
28 27 26 26 26 26 26 26 24 23 22 21 21 19 16 14 15 15 14 14 15 14 13 12 11 9 9 8 8 11 10 7 8 7 7 6 5 5 4 3 3 3 3 3
28 27 26 25 25 24 24 24 23 22 21 21 19 17 17 13 13 12 11 14 14 14 12 12 13 12 10 11 12 10 8 8 7 6 6 5 4 3 3 2 2 2 1 0
28 27 26 26 27 24 23 23 23 23 23 21 20 20 18 17 12 10 12 12 12 13 14 15 13 11 12 12 11 10 8 8 6 6 5 3 3 2 1 0 -0 0 -1 -2
27 26 26 25 24 24 24 22 22 21 20 20 19 20 20 19 15 12 13 12 13 16 16 13 11 10 13 12 10 8 8 7 7 5 4 3 2 0 1 0 -2 -1 -2 -2
26 26 26 25 24 24 23 22 21 21 20 20 20 20 21 20 16 16 15 15 14 16 14 12 11 12 12 11 9 7 7 6 2 3 2 1 1 -0 -1 -2 -2 -2 -2 -3
27 26 25 25 25 24 23 23 23 21 22 21 19 21 21 19 18 17 16 15 15 16 14 13 11 12 12 10 8 6 5 4 3 2 1 1 -0 0 -1 -2 -2 -3 -3 -4

GFSNGP_sfc_30mbdewp_132.txt.gz
Dewpoint
19 16 17 25 28 31 31 32 30 28 26 26 28 33 35 35 32 36 35 34 33 30 28 28 28 28 29 29 29 28 28 26 25 24 25 25 25 25 25 24 23 23 22 20
21 21 22 24 32 30 28 28 27 28 24 28 27 26 34 34 33 35 34 33 32 30 28 27 27 28 28 27 26 25 23 24 24 23 23 24 24 24 23 22 22 22 22 20
19 20 23 22 26 25 23 19 16 14 17 17 17 19 21 32 33 35 34 33 31 29 27 27 27 27 27 26 23 22 22 22 23 23 23 23 23 24 23 22 22 22 21 21
23 22 18 23 22 21 18 17 16 15 16 16 19 23 31 32 37 36 34 32 31 29 28 29 29 28 27 24 22 21 21 21 21 22 23 23 23 24 24 24 23 22 21 20
24 24 22 19 15 15 20 20 22 23 23 20 21 22 37 38 39 36 34 34 31 31 32 32 30 28 26 23 21 20 21 21 21 23 23 23 23 23 24 24 23 22 22 21
27 21 18 17 17 16 21 23 25 24 24 23 22 24 34 37 37 35 34 34 33 33 32 31 31 27 24 22 21 22 21 22 22 23 23 22 23 23 24 24 23 24 22 20
21 19 19 19 17 16 14 19 27 28 32 31 32 37 37 35 34 34 33 33 32 31 30 31 30 28 25 24 23 22 22 21 21 22 23 23 23 24 23 23 22 22 23 20
20 19 18 25 24 18 28 29 30 30 35 37 35 33 31 31 31 31 31 31 30 29 29 30 27 25 25 24 24 22 21 22 22 21 21 23 24 24 23 22 20 20 20 19
26 23 29 29 26 25 31 30 31 31 37 36 32 30 30 29 30 30 29 29 30 29 28 27 25 23 21 23 24 22 22 21 21 21 20 20 19 19 19 20 19 18 17 16
20 21 20 22 27 29 32 30 31 33 36 34 30 30 29 29 29 29 28 28 27 26 25 23 21 20 20 20 19 19 19 19 19 17 16 16 15 14 14 15 15 17 16 14
25 29 29 24 27 28 30 29 31 33 35 32 30 29 28 28 28 28 28 26 26 24 21 20 18 18 19 19 17 16 15 14 14 15 13 14 16 14 12 13 12 12 15 15
23 26 30 33 36 37 31 30 31 32 31 31 30 28 28 27 27 28 28 28 26 23 21 18 17 16 15 14 13 13 13 13 13 12 15 13 11 12 12 12 11 11 10 10
33 35 35 34 35 33 31 31 31 31 30 29 29 27 27 27 27 27 28 28 26 24 22 20 21 22 17 15 13 13 12 11 12 12 11 12 14 15 14 13 12 11 11 9
30 31 29 29 29 30 30 30 31 30 29 28 27 27 26 26 27 27 29 28 26 24 23 22 21 22 22 21 19 19 19 16 17 18 18 18 17 16 15 17 15 15 10 9
30 30 29 30 28 27 28 29 29 28 28 27 27 26 27 25 24 27 27 25 24 22 21 20 19 19 20 20 20 20 20 20 21 20 19 17 16 15 13 13 12 14 13 8
30 28 28 27 25 25 26 27 27 27 27 27 27 26 25 24 25 24 24 23 23 21 20 19 18 19 20 20 20 19 19 18 18 17 16 14 13 11 11 10 10 12 10 6
28 27 26 26 24 24 25 26 26 26 26 26 25 25 24 25 25 22 21 20 20 19 18 18 18 19 19 19 16 15 16 15 14 14 13 12 11 9 8 9 7 9 9 4
28 28 27 26 25 25 25 25 26 25 25 25 25 24 24 22 20 19 21 21 20 19 19 18 18 18 19 18 18 17 14 13 13 11 10 9 6 8 9 7 6 6 7 5
26 27 27 26 26 26 25 25 25 26 27 26 24 23 21 21 21 22 21 19 18 18 18 18 18 18 18 16 14 13 12 10 8 8 8 7 7 7 8 8 7 8 7 7
28 28 28 28 27 27 27 28 27 25 23 22 22 23 22 22 22 21 20 18 18 18 18 17 16 14 14 12 12 13 13 12 9 11 9 9 10 10 5 2 5 7 8 7
30 29 29 28 28 29 28 27 24 22 22 22 23 21 21 21 21 19 18 17 19 17 17 15 13 13 11 10 10 15 15 11 11 8 9 9 6 7 7 7 7 7 6 6
27 27 27 28 28 28 28 26 25 24 23 23 23 21 19 18 19 19 19 18 18 16 15 14 13 11 10 9 13 15 14 12 11 11 11 10 9 8 7 6 5 5 5 5
27 26 26 26 25 25 26 26 25 24 23 22 20 18 18 18 19 19 18 18 16 16 15 15 14 11 10 15 15 13 11 11 11 10 10 8 7 7 6 5 5 4 3 3
26 26 26 26 26 25 23 25 24 23 23 21 20 19 19 19 20 19 19 19 16 16 17 15 12 10 15 16 14 13 11 11 10 10 8 7 7 4 4 3 2 2 2 -0
26 26 26 24 24 23 23 23 24 24 22 21 20 20 19 20 19 19 17 17 16 18 17 13 12 12 16 15 14 12 12 11 10 10 7 7 6 4 4 3 0 2 -0 -0
26 26 26 25 25 25 24 23 22 22 22 21 21 22 22 22 21 18 17 16 17 18 15 14 13 15 15 14 12 11 11 8 7 7 7 6 4 4 2 1 0 -0 0 -1
28 28 26 26 27 26 25 24 24 23 23 21 20 22 23 23 22 18 18 16 19 17 15 14 14 16 15 13 11 10 10 6 6 5 4 5 4 3 2 0 0 0 -1 -2